Time,TemperatureF,DewpointF,PressureIn,WindDirection,WindDirectionDegrees,WindSpeedMPH,WindSpeedGustMPH,Humidity,HourlyPrecipIn,Conditions,Clouds,dailyrainin,SoftwareType,DateUTC
2013-04-01 00:00:00,33.5,26.1,29.69,SW,226,5.0,10.0,74,0.00,,OVC003,0.01,VWS V14.01,2013-04-01 04:00:00,
2013-04-01 00:01:00,33.5,26.1,29.69,West,266,5.0,5.0,74,0.00,,OVC003,0.00,VWS V14.01,2013-04-01 04:01:00,
2013-04-01 00:02:00,33.4,26.0,29.69,SW,220,5.0,5.0,74,0.00,,OVC003,0.00,VWS V14.01,2013-04-01 04:02:00,
2013-04-01 00:03:00,33.4,25.4,29.69,NNW,338,8.0,8.0,72,0.00,,OVC003,0.00,VWS V14.01,2013-04-01 04:03:00,
2013-04-01 00:04:00,33.4,25.4,29.69,ENE,67,5.0,6.0,72,0.00,,OVC003,0.00,VWS V14.01,2013-04-01 04:04:00,
2013-04-01 00:05:00,33.4,25.4,29.69,SSE,153,3.0,6.0,72,0.00,,OVC003,0.00,VWS V14.01,2013-04-01 04:05:00,
2013-04-01 00:06:00,33.3,24.9,29.69,NW,312,5.0,6.0,71,0.00,,OVC003,0.00,VWS V14.01,2013-04-01 04:06:00,
2013-04-01 00:07:00,33.3,24.6,29.69,NW,312,2.0,6.0,70,0.00,,OVC003,0.00,VWS V14.01,2013-04-01 04:07:00,
2013-04-01 00:08:00,33.3,24.6,29.69,NW,312,4.0,6.0,70,0.00,,OVC003,0.00,VWS V14.01,2013-04-01 04:08:00,
2013-04-01 00:09:00,33.3,23.9,29.69,SSW,193,4.0,6.0,68,0.00,,OVC003,0.00,VWS V14.01,2013-04-01 04:09:00,
2013-04-01 00:10:00,33.2,23.8,29.69,North,351,3.0,3.0,68,0.00,,OVC003,0.00,VWS V14.01,2013-04-01 04:10:00,
2013-04-01 00:11:00,33.2,23.8,29.69,NNW,339,2.0,3.0,68,0.00,,OVC003,0.00,VWS V14.01,2013-04-01 04:11:00,
2013-04-01 00:12:00,33.2,23.8,29.69,NNW,336,2.0,3.0,68,0.00,,OVC003,0.00,VWS V14.01,2013-04-01 04:12:00,
2013-04-01 00:13:00,33.2,23.5,29.69,WSW,257,4.0,4.0,67,0.00,,OVC003,0.00,VWS V14.01,2013-04-01 04:13:00,
2013-04-01 00:15:00,33.1,23.4,29.69,NW,312,5.0,5.0,67,0.00,,OVC003,0.00,VWS V14.01,2013-04-01 04:15:00,
2013-04-01 00:16:00,33.1,23.4,29.69,NNW,328,5.0,5.0,67,0.00,,OVC003,0.00,VWS V14.01,2013-04-01 04:16:00,
2013-04-01 00:17:00,33.0,23.2,29.69,SW,220,2.0,5.0,67,0.00,,OVC003,0.00,VWS V14.01,2013-04-01 04:17:00,
2013-04-01 00:18:00,33.0,23.2,29.69,NNW,336,3.0,5.0,67,0.00,,OVC003,0.00,VWS V14.01,2013-04-01 04:18:00,
2013-04-01 00:19:00,33.0,23.2,29.69,NNW,335,2.0,5.0,67,0.00,,OVC003,0.00,VWS V14.01,2013-04-01 04:19:00,
2013-04-01 00:20:00,33.0,23.2,29.69,NNW,335,2.0,0.0,67,0.00,,OVC003,0.00,VWS V14.01,2013-04-01 04:20:00,
2013-04-01 00:21:00,33.0,23.2,29.69,SE,137,2.0,3.0,67,0.00,,OVC003,0.00,VWS V14.01,2013-04-01 04:21:00,
2013-04-01 00:22:00,32.9,23.2,29.69,SW,236,2.0,3.0,67,0.00,,OVC003,0.00,VWS V14.01,2013-04-01 04:22:00,
2013-04-01 00:23:00,32.9,23.2,29.69,SW,236,2.0,3.0,67,0.00,,OVC003,0.00,VWS V14.01,2013-04-01 04:23:00,
2013-04-01 00:24:00,32.9,23.2,29.69,SW,236,3.0,3.0,67,0.00,,OVC003,0.00,VWS V14.01,2013-04-01 04:24:00,
2013-04-01 00:25:00,32.9,22.8,29.69,NW,312,7.0,7.0,66,0.00,,OVC003,0.00,VWS V14.01,2013-04-01 04:25:00,
2013-04-01 00:26:00,32.8,22.7,29.69,WNW,282,2.0,5.0,66,0.00,,OVC003,0.00,VWS V14.01,2013-04-01 04:26:00,
2013-04-01 00:27:00,32.8,22.7,29.69,WNW,282,3.0,5.0,66,0.00,,OVC003,0.00,VWS V14.01,2013-04-01 04:27:00,
2013-04-01 00:28:00,32.8,22.7,29.69,WNW,282,2.0,5.0,66,0.00,,OVC003,0.00,VWS V14.01,2013-04-01 04:28:00,
2013-04-01 00:29:00,32.7,22.6,29.70,NNE,25,3.0,5.0,66,0.00,,OVC003,0.00,VWS V14.01,2013-04-01 04:29:00,
2013-04-01 00:30:00,32.7,22.6,29.70,WNW,299,5.0,5.0,66,0.00,,OVC003,0.00,VWS V14.01,2013-04-01 04:30:00,
2013-04-01 00:31:00,32.6,22.5,29.70,WNW,301,2.0,3.0,66,0.00,,OVC003,0.00,VWS V14.01,2013-04-01 04:31:00,
2013-04-01 00:32:00,32.6,22.9,29.70,North,349,4.0,4.0,67,0.00,,OVC003,0.00,VWS V14.01,2013-04-01 04:32:00,
2013-04-01 00:33:00,32.6,22.9,29.70,SW,223,2.0,3.0,67,0.00,,OVC003,0.00,VWS V14.01,2013-04-01 04:33:00,
2013-04-01 00:34:00,32.6,22.9,29.70,SW,223,2.0,3.0,67,0.00,,OVC003,0.00,VWS V14.01,2013-04-01 04:34:00,
2013-04-01 00:35:00,32.5,22.4,29.70,SW,223,2.0,2.0,66,0.00,,OVC003,0.00,VWS V14.01,2013-04-01 04:35:00,
2013-04-01 00:36:00,32.5,22.4,29.70,SW,222,2.0,2.0,66,0.00,,OVC003,0.00,VWS V14.01,2013-04-01 04:36:00,
2013-04-01 00:37:00,32.5,22.8,29.70,WSW,237,4.0,4.0,67,0.00,,OVC003,0.00,VWS V14.01,2013-04-01 04:37:00,
2013-04-01 00:38:00,32.5,22.4,29.70,SW,230,7.0,7.0,66,0.00,,OVC003,0.00,VWS V14.01,2013-04-01 04:38:00,
2013-04-01 00:39:00,32.4,22.3,29.70,SSW,203,4.0,5.0,66,0.00,,OVC003,0.00,VWS V14.01,2013-04-01 04:39:00,
2013-04-01 00:40:00,32.4,22.3,29.70,WNW,302,2.0,2.0,66,0.00,,OVC003,0.00,VWS V14.01,2013-04-01 04:40:00,
2013-04-01 00:41:00,32.4,22.3,29.70,WNW,302,3.0,3.0,66,0.00,,OVC003,0.00,VWS V14.01,2013-04-01 04:41:00,
2013-04-01 00:42:00,32.4,22.7,29.70,WNW,302,4.0,4.0,67,0.00,,OVC003,0.00,VWS V14.01,2013-04-01 04:42:00,
2013-04-01 00:43:00,32.4,22.7,29.70,North,2,5.0,5.0,67,0.00,,OVC003,0.00,VWS V14.01,2013-04-01 04:43:00,
2013-04-01 00:44:00,32.4,22.7,29.71,North,351,3.0,3.0,67,0.00,,OVC003,0.00,VWS V14.01,2013-04-01 04:44:00,
2013-04-01 00:45:00,32.4,22.7,29.71,ENE,68,2.0,2.0,67,0.00,,OVC003,0.00,VWS V14.01,2013-04-01 04:45:00,
2013-04-01 00:46:00,32.4,22.3,29.71,NW,317,3.0,3.0,66,0.00,,OVC003,0.00,VWS V14.01,2013-04-01 04:46:00,
2013-04-01 00:47:00,32.3,21.5,29.71,NNW,345,2.0,9.0,64,0.00,,OVC003,0.00,VWS V14.01,2013-04-01 04:47:00,
2013-04-01 00:48:00,32.3,21.5,29.71,SSW,208,4.0,9.0,64,0.00,,OVC003,0.00,VWS V14.01,2013-04-01 04:48:00,
2013-04-01 00:49:00,32.3,21.5,29.71,North,8,7.0,9.0,64,0.00,,OVC003,0.00,VWS V14.01,2013-04-01 04:49:00,
2013-04-01 00:50:00,32.2,21.0,29.71,SE,136,4.0,9.0,63,0.00,,OVC003,0.00,VWS V14.01,2013-04-01 04:50:00,
2013-04-01 00:51:00,32.2,21.0,29.71,NNW,338,3.0,6.0,63,0.00,,OVC003,0.00,VWS V14.01,2013-04-01 04:51:00,
2013-04-01 00:52:00,32.1,20.9,29.71,NW,317,4.0,6.0,63,0.00,,OVC003,0.00,VWS V14.01,2013-04-01 04:52:00,
2013-04-01 00:53:00,32.1,20.9,29.71,NW,317,2.0,6.0,63,0.00,,OVC003,0.00,VWS V14.01,2013-04-01 04:53:00,
2013-04-01 00:54:00,32.0,20.9,29.71,NW,317,4.0,6.0,63,0.00,,OVC003,0.00,VWS V14.01,2013-04-01 04:54:00,
2013-04-01 00:55:00,32.0,20.9,29.71,NW,317,2.0,0.0,63,0.00,,OVC003,0.00,VWS V14.01,2013-04-01 04:55:00,
2013-04-01 00:56:00,32.0,22.6,29.71,North,354,4.0,4.0,68,0.00,,OVC003,0.00,VWS V14.01,2013-04-01 04:56:00,
2013-04-01 00:57:00,31.9,21.1,29.71,NNE,32,2.0,5.0,64,0.00,,OVC003,0.00,VWS V14.01,2013-04-01 04:57:00,
2013-04-01 00:58:00,31.9,21.1,29.71,NNW,345,5.0,5.0,64,0.00,,OVC003,0.00,VWS V14.01,2013-04-01 04:58:00,
2013-04-01 00:59:00,31.9,20.8,29.71,West,264,7.0,7.0,63,0.00,,OVC003,0.00,VWS V14.01,2013-04-01 04:59:00,
2013-04-01 01:00:00,31.8,20.7,29.71,NW,317,3.0,5.0,63,0.00,,OVC003,0.00,VWS V14.01,2013-04-01 05:00:00,
2013-04-01 01:01:00,31.7,20.9,29.71,NW,322,2.0,2.0,64,0.00,,OVC003,0.00,VWS V14.01,2013-04-01 05:01:00,
2013-04-01 01:02:00,31.7,20.9,29.71,NW,317,2.0,2.0,64,0.00,,OVC003,0.00,VWS V14.01,2013-04-01 05:02:00,
2013-04-01 01:03:00,31.7,20.9,29.71,NW,317,3.0,3.0,64,0.00,,OVC003,0.00,VWS V14.01,2013-04-01 05:03:00,
2013-04-01 01:04:00,31.7,20.9,29.71,NE,41,3.0,3.0,64,0.00,,OVC003,0.00,VWS V14.01,2013-04-01 05:04:00,
2013-04-01 01:05:00,31.6,20.8,29.71,NNE,14,4.0,4.0,64,0.00,,OVC003,0.00,VWS V14.01,2013-04-01 05:05:00,
2013-04-01 01:06:00,31.6,20.8,29.71,NNE,13,2.0,3.0,64,0.00,,OVC003,0.00,VWS V14.01,2013-04-01 05:06:00,
2013-04-01 01:07:00,31.5,20.7,29.71,NNE,25,2.0,3.0,64,0.00,,OVC003,0.00,VWS V14.01,2013-04-01 05:07:00,
2013-04-01 01:08:00,31.4,20.3,29.71,NNE,33,2.0,4.0,63,0.00,,OVC003,0.00,VWS V14.01,2013-04-01 05:08:00,
2013-04-01 01:09:00,31.4,20.3,29.71,NE,34,2.0,4.0,63,0.00,,OVC003,0.00,VWS V14.01,2013-04-01 05:09:00,
2013-04-01 01:10:00,31.3,20.2,29.71,NNE,33,3.0,4.0,63,0.00,,OVC003,0.00,VWS V14.01,2013-04-01 05:10:00,
2013-04-01 01:11:00,31.2,20.5,29.71,South,180,2.0,3.0,64,0.00,,OVC003,0.00,VWS V14.01,2013-04-01 05:11:00,
2013-04-01 01:12:00,31.1,20.4,29.71,NW,326,2.0,3.0,64,0.00,,OVC003,0.00,VWS V14.01,2013-04-01 05:12:00,
2013-04-01 01:13:00,31.1,20.4,29.71,NNW,332,3.0,3.0,64,0.00,,OVC003,0.00,VWS V14.01,2013-04-01 05:13:00,
2013-04-01 01:15:00,31.0,20.3,29.73,SSE,158,7.0,7.0,64,0.00,,OVC003,0.00,VWS V14.01,2013-04-01 05:15:00,
2013-04-01 01:16:00,30.9,20.2,29.73,NNE,31,4.0,5.0,64,0.00,,OVC003,0.00,VWS V14.01,2013-04-01 05:16:00,
2013-04-01 01:17:00,30.8,20.1,29.73,NNW,344,4.0,5.0,64,0.00,,OVC003,0.00,VWS V14.01,2013-04-01 05:17:00,
2013-04-01 01:18:00,30.7,20.0,29.73,NNW,343,4.0,5.0,64,0.00,,OVC003,0.00,VWS V14.01,2013-04-01 05:18:00,
2013-04-01 01:19:00,30.7,20.0,29.73,ESE,120,4.0,5.0,64,0.00,,OVC003,0.00,VWS V14.01,2013-04-01 05:19:00,
2013-04-01 01:20:00,30.6,19.9,29.73,NNE,17,5.0,5.0,64,0.00,,OVC003,0.00,VWS V14.01,2013-04-01 05:20:00,
2013-04-01 01:21:00,30.5,19.8,29.73,North,353,2.0,3.0,64,0.00,,OVC003,0.00,VWS V14.01,2013-04-01 05:21:00,
2013-04-01 01:22:00,30.5,19.8,29.73,North,353,2.0,3.0,64,0.00,,OVC003,0.00,VWS V14.01,2013-04-01 05:22:00,
2013-04-01 01:23:00,30.4,19.7,29.73,North,353,2.0,3.0,64,0.00,,OVC003,0.00,VWS V14.01,2013-04-01 05:23:00,
2013-04-01 01:24:00,30.4,19.7,29.73,North,353,2.0,3.0,64,0.00,,OVC003,0.00,VWS V14.01,2013-04-01 05:24:00,
2013-04-01 01:25:00,30.3,20.0,29.73,North,353,2.0,3.0,65,0.00,,OVC003,0.00,VWS V14.01,2013-04-01 05:25:00,
2013-04-01 01:26:00,30.3,20.0,29.73,North,353,2.0,0.0,65,0.00,,OVC003,0.00,VWS V14.01,2013-04-01 05:26:00,
2013-04-01 01:28:00,30.2,19.9,29.73,NE,43,4.0,4.0,65,0.00,,OVC003,0.00,VWS V14.01,2013-04-01 05:28:00,
2013-04-01 01:29:00,30.1,19.8,29.73,North,357,4.0,4.0,65,0.00,,OVC003,0.00,VWS V14.01,2013-04-01 05:29:00,
2013-04-01 01:30:00,30.1,19.8,29.73,North,357,3.0,3.0,65,0.00,,OVC003,0.00,VWS V14.01,2013-04-01 05:30:00,
2013-04-01 01:31:00,30.0,19.7,29.73,North,357,2.0,2.0,65,0.00,,OVC003,0.00,VWS V14.01,2013-04-01 05:31:00,
2013-04-01 01:32:00,30.0,19.3,29.73,NNE,19,2.0,3.0,64,0.00,,OVC003,0.00,VWS V14.01,2013-04-01 05:32:00,
2013-04-01 01:33:00,29.9,19.6,29.73,West,274,3.0,3.0,65,0.00,,OVC003,0.00,VWS V14.01,2013-04-01 05:33:00,
2013-04-01 01:34:00,29.9,19.6,29.73,West,274,3.0,3.0,65,0.00,,OVC003,0.00,VWS V14.01,2013-04-01 05:34:00,
2013-04-01 01:35:00,29.9,19.6,29.73,West,274,2.0,3.0,65,0.00,,OVC003,0.00,VWS V14.01,2013-04-01 05:35:00,
2013-04-01 01:37:00,29.8,19.5,29.73,NNE,24,3.0,4.0,65,0.00,,OVC003,0.00,VWS V14.01,2013-04-01 05:37:00,
2013-04-01 01:39:00,29.7,19.0,29.73,WSW,250,4.0,6.0,64,0.00,,OVC003,0.00,VWS V14.01,2013-04-01 05:39:00,
2013-04-01 01:40:00,29.7,19.0,29.73,WSW,251,4.0,6.0,64,0.00,,OVC003,0.00,VWS V14.01,2013-04-01 05:40:00,
2013-04-01 01:41:00,29.6,18.9,29.73,WNW,292,3.0,3.0,64,0.00,,OVC003,0.00,VWS V14.01,2013-04-01 05:41:00,
2013-04-01 01:42:00,29.6,18.6,29.73,NNE,32,2.0,3.0,63,0.00,,OVC003,0.00,VWS V14.01,2013-04-01 05:42:00,
2013-04-01 01:43:00,29.6,18.6,29.73,NNE,32,2.0,3.0,63,0.00,,OVC003,0.00,VWS V14.01,2013-04-01 05:43:00,
2013-04-01 01:44:00,29.6,18.6,29.74,NNW,336,6.0,6.0,63,0.00,,OVC003,0.00,VWS V14.01,2013-04-01 05:44:00,
2013-04-01 01:45:00,29.5,18.8,29.74,NNW,339,2.0,2.0,64,0.00,,OVC003,0.00,VWS V14.01,2013-04-01 05:45:00,
2013-04-01 01:46:00,29.5,18.8,29.74,ENE,64,3.0,3.0,64,0.00,,OVC003,0.00,VWS V14.01,2013-04-01 05:46:00,
2013-04-01 01:47:00,29.5,18.8,29.74,NNW,348,5.0,5.0,64,0.00,,OVC003,0.00,VWS V14.01,2013-04-01 05:47:00,
2013-04-01 01:48:00,29.4,18.4,29.74,ENE,78,3.0,3.0,63,0.00,,OVC003,0.00,VWS V14.01,2013-04-01 05:48:00,
2013-04-01 01:49:00,29.4,18.4,29.74,NE,45,2.0,3.0,63,0.00,,OVC003,0.00,VWS V14.01,2013-04-01 05:49:00,
2013-04-01 01:50:00,29.4,18.4,29.74,NE,45,4.0,4.0,63,0.00,,OVC003,0.00,VWS V14.01,2013-04-01 05:50:00,
2013-04-01 01:51:00,29.3,18.6,29.74,South,185,4.0,4.0,64,0.00,,OVC003,0.00,VWS V14.01,2013-04-01 05:51:00,
2013-04-01 01:52:00,29.3,18.3,29.74,South,185,2.0,4.0,63,0.00,,OVC003,0.00,VWS V14.01,2013-04-01 05:52:00,
2013-04-01 01:53:00,29.3,18.3,29.74,WNW,286,4.0,4.0,63,0.00,,OVC003,0.00,VWS V14.01,2013-04-01 05:53:00,
2013-04-01 01:55:00,29.3,18.6,29.74,NNW,348,2.0,4.0,64,0.00,,OVC003,0.00,VWS V14.01,2013-04-01 05:55:00,
2013-04-01 01:57:00,29.2,18.5,29.74,WSW,252,2.0,2.0,64,0.00,,OVC003,0.00,VWS V14.01,2013-04-01 05:57:00,
2013-04-01 01:58:00,29.2,18.5,29.74,West,261,4.0,4.0,64,0.00,,OVC003,0.00,VWS V14.01,2013-04-01 05:58:00,
2013-04-01 01:59:00,29.2,18.2,29.74,NE,35,2.0,3.0,63,0.00,,OVC003,0.00,VWS V14.01,2013-04-01 05:59:00,
2013-04-01 02:00:00,29.2,18.5,29.74,NE,35,2.0,0.0,64,0.00,,OVC003,0.00,VWS V14.01,2013-04-01 06:00:00,
2013-04-01 02:01:00,29.2,18.2,29.74,SSW,194,2.0,2.0,63,0.00,,OVC003,0.00,VWS V14.01,2013-04-01 06:01:00,
2013-04-01 02:02:00,29.2,18.5,29.74,SSW,194,2.0,2.0,64,0.00,,OVC003,0.00,VWS V14.01,2013-04-01 06:02:00,
2013-04-01 02:03:00,29.2,18.5,29.74,SSW,194,2.0,2.0,64,0.00,,OVC003,0.00,VWS V14.01,2013-04-01 06:03:00,
2013-04-01 02:04:00,29.1,18.5,29.74,SSW,192,5.0,5.0,64,0.00,,OVC003,0.00,VWS V14.01,2013-04-01 06:04:00,
2013-04-01 02:05:00,29.1,18.5,29.74,SSW,192,3.0,3.0,64,0.00,,OVC003,0.00,VWS V14.01,2013-04-01 06:05:00,
2013-04-01 02:06:00,29.0,18.4,29.74,South,191,2.0,2.0,64,0.00,,OVC003,0.00,VWS V14.01,2013-04-01 06:06:00,
2013-04-01 02:07:00,29.0,18.4,29.74,South,191,2.0,2.0,64,0.00,,OVC003,0.00,VWS V14.01,2013-04-01 06:07:00,
2013-04-01 02:08:00,29.0,18.4,29.74,SSW,192,2.0,2.0,64,0.00,,OVC003,0.00,VWS V14.01,2013-04-01 06:08:00,
2013-04-01 02:09:00,29.0,18.7,29.74,SSW,192,2.0,2.0,65,0.00,,OVC003,0.00,VWS V14.01,2013-04-01 06:09:00,
2013-04-01 02:10:00,29.0,18.7,29.74,SSW,192,2.0,2.0,65,0.00,,OVC003,0.00,VWS V14.01,2013-04-01 06:10:00,
2013-04-01 02:11:00,28.9,18.6,29.74,SSW,192,2.0,2.0,65,0.00,,OVC003,0.00,VWS V14.01,2013-04-01 06:11:00,
2013-04-01 02:12:00,28.9,18.6,29.74,South,191,4.0,4.0,65,0.00,,OVC003,0.00,VWS V14.01,2013-04-01 06:12:00,
2013-04-01 02:13:00,28.9,18.6,29.74,South,191,2.0,2.0,65,0.00,,OVC003,0.00,VWS V14.01,2013-04-01 06:13:00,
2013-04-01 02:14:00,28.9,18.6,29.75,North,2,4.0,4.0,65,0.00,,OVC003,0.00,VWS V14.01,2013-04-01 06:14:00,
2013-04-01 02:15:00,28.8,18.5,29.75,North,351,2.0,4.0,65,0.00,,OVC003,0.00,VWS V14.01,2013-04-01 06:15:00,
2013-04-01 02:16:00,28.8,18.5,29.75,North,350,2.0,4.0,65,0.00,,OVC003,0.00,VWS V14.01,2013-04-01 06:16:00,
2013-04-01 02:17:00,28.8,18.5,29.75,North,350,2.0,4.0,65,0.00,,OVC003,0.00,VWS V14.01,2013-04-01 06:17:00,
2013-04-01 02:18:00,28.8,18.5,29.75,North,351,2.0,4.0,65,0.00,,OVC003,0.00,VWS V14.01,2013-04-01 06:18:00,
2013-04-01 02:20:00,28.8,18.5,29.75,North,350,2.0,4.0,65,0.00,,OVC003,0.00,VWS V14.01,2013-04-01 06:20:00,
2013-04-01 02:21:00,28.8,18.5,29.75,North,351,2.0,0.0,65,0.00,,OVC003,0.00,VWS V14.01,2013-04-01 06:21:00,
2013-04-01 02:22:00,28.8,18.5,29.75,North,350,2.0,2.0,65,0.00,,OVC003,0.00,VWS V14.01,2013-04-01 06:22:00,
2013-04-01 02:23:00,28.8,18.5,29.75,North,351,3.0,3.0,65,0.00,,OVC003,0.00,VWS V14.01,2013-04-01 06:23:00,
2013-04-01 02:24:00,28.7,18.4,29.75,North,350,2.0,2.0,65,0.00,,OVC003,0.00,VWS V14.01,2013-04-01 06:24:00,
2013-04-01 02:25:00,28.7,18.4,29.75,North,350,2.0,2.0,65,0.00,,OVC003,0.00,VWS V14.01,2013-04-01 06:25:00,
2013-04-01 02:26:00,28.7,18.8,29.75,North,350,2.0,0.0,66,0.00,,OVC003,0.00,VWS V14.01,2013-04-01 06:26:00,
2013-04-01 02:27:00,28.7,18.8,29.75,North,351,2.0,0.0,66,0.00,,OVC003,0.00,VWS V14.01,2013-04-01 06:27:00,
2013-04-01 02:28:00,28.7,18.8,29.75,NNW,345,4.0,4.0,66,0.00,,OVC003,0.00,VWS V14.01,2013-04-01 06:28:00,
2013-04-01 02:29:00,28.6,18.3,29.76,North,2,2.0,2.0,65,0.00,,OVC003,0.00,VWS V14.01,2013-04-01 06:29:00,
2013-04-01 02:30:00,28.6,18.7,29.76,North,2,2.0,2.0,66,0.00,,OVC003,0.00,VWS V14.01,2013-04-01 06:30:00,
2013-04-01 02:31:00,28.6,18.7,29.76,SW,220,3.0,3.0,66,0.00,,OVC003,0.00,VWS V14.01,2013-04-01 06:31:00,
2013-04-01 02:32:00,28.6,18.7,29.76,West,268,9.0,10.0,66,0.00,,OVC003,0.00,VWS V14.01,2013-04-01 06:32:00,
2013-04-01 02:33:00,30.2,19.9,29.73,North,353,2.0,2.0,65,0.00,,OVC003,0.00,VWS V14.01,2013-04-01 06:33:00,
2013-04-01 02:34:00,28.6,18.3,29.76,WNW,294,4.0,10.0,65,0.00,,OVC003,0.00,VWS V14.01,2013-04-01 06:34:00,
2013-04-01 02:35:00,28.6,18.3,29.76,WNW,293,2.0,10.0,65,0.00,,OVC003,0.00,VWS V14.01,2013-04-01 06:35:00,
2013-04-01 02:36:00,28.6,18.3,29.76,WNW,293,2.0,2.0,65,0.00,,OVC003,0.00,VWS V14.01,2013-04-01 06:36:00,
2013-04-01 02:37:00,28.6,18.3,29.76,SSW,211,3.0,3.0,65,0.00,,OVC003,0.00,VWS V14.01,2013-04-01 06:37:00,
2013-04-01 02:38:00,28.6,18.3,29.76,NNW,332,4.0,4.0,65,0.00,,OVC003,0.00,VWS V14.01,2013-04-01 06:38:00,
2013-04-01 02:39:00,28.6,18.3,29.76,NNW,331,2.0,2.0,65,0.00,,OVC003,0.00,VWS V14.01,2013-04-01 06:39:00,
2013-04-01 02:40:00,28.6,18.3,29.76,NNW,332,2.0,2.0,65,0.00,,OVC003,0.00,VWS V14.01,2013-04-01 06:40:00,
2013-04-01 02:41:00,28.6,18.3,29.76,WNW,293,4.0,4.0,65,0.00,,OVC003,0.00,VWS V14.01,2013-04-01 06:41:00,
2013-04-01 02:42:00,29.8,19.5,29.73,NE,49,5.0,5.0,65,0.00,,OVC003,0.00,VWS V14.01,2013-04-01 06:42:00,
2013-04-01 02:43:00,28.6,18.3,29.76,WNW,293,4.0,4.0,65,0.00,,OVC003,0.00,VWS V14.01,2013-04-01 06:43:00,
2013-04-01 02:44:00,28.6,18.3,29.76,WNW,293,2.0,2.0,65,0.00,,OVC003,0.00,VWS V14.01,2013-04-01 06:44:00,
2013-04-01 02:45:00,28.6,18.3,29.76,West,274,2.0,2.0,65,0.00,,OVC003,0.00,VWS V14.01,2013-04-01 06:45:00,
2013-04-01 02:46:00,28.5,18.2,29.76,West,279,4.0,4.0,65,0.00,,OVC003,0.00,VWS V14.01,2013-04-01 06:46:00,
2013-04-01 02:47:00,28.5,17.9,29.76,NW,305,2.0,5.0,64,0.00,,OVC003,0.00,VWS V14.01,2013-04-01 06:47:00,
2013-04-01 02:48:00,28.5,17.9,29.76,NW,305,2.0,5.0,64,0.00,,OVC003,0.00,VWS V14.01,2013-04-01 06:48:00,
2013-04-01 02:49:00,28.5,17.9,29.76,NE,49,3.0,5.0,64,0.00,,OVC003,0.00,VWS V14.01,2013-04-01 06:49:00,
2013-04-01 02:50:00,28.5,17.9,29.76,West,259,5.0,5.0,64,0.00,,OVC003,0.00,VWS V14.01,2013-04-01 06:50:00,
2013-04-01 02:51:00,28.5,17.5,29.76,WNW,301,6.0,6.0,63,0.00,,OVC003,0.00,VWS V14.01,2013-04-01 06:51:00,
2013-04-01 02:52:00,28.4,17.4,29.76,NW,307,7.0,7.0,63,0.00,,OVC003,0.00,VWS V14.01,2013-04-01 06:52:00,
2013-04-01 02:53:00,28.4,17.4,29.76,East,101,2.0,6.0,63,0.00,,OVC003,0.00,VWS V14.01,2013-04-01 06:53:00,
2013-04-01 02:55:00,28.4,17.4,29.76,East,101,2.0,6.0,63,0.00,,OVC003,0.00,VWS V14.01,2013-04-01 06:55:00,
2013-04-01 02:56:00,28.5,17.1,29.76,NNE,16,5.0,5.0,62,0.00,,OVC003,0.00,VWS V14.01,2013-04-01 06:56:00,
2013-04-01 02:57:00,28.4,17.1,29.76,NNE,28,2.0,4.0,62,0.00,,OVC003,0.00,VWS V14.01,2013-04-01 06:57:00,
2013-04-01 02:58:00,28.4,17.1,29.76,NNE,29,4.0,4.0,62,0.00,,OVC003,0.00,VWS V14.01,2013-04-01 06:58:00,
2013-04-01 02:59:00,28.4,17.1,29.76,North,10,4.0,4.0,62,0.00,,OVC003,0.00,VWS V14.01,2013-04-01 06:59:00,
2013-04-01 03:00:00,28.4,17.1,29.76,North,11,2.0,4.0,62,0.00,,OVC003,0.00,VWS V14.01,2013-04-01 07:00:00,
2013-04-01 03:01:00,28.4,17.1,29.76,North,2,3.0,3.0,62,0.00,,OVC003,0.00,VWS V14.01,2013-04-01 07:01:00,
2013-04-01 03:02:00,28.4,17.1,29.76,North,2,4.0,4.0,62,0.00,,OVC003,0.00,VWS V14.01,2013-04-01 07:02:00,
2013-04-01 03:03:00,28.4,17.1,29.76,North,3,2.0,2.0,62,0.00,,OVC003,0.00,VWS V14.01,2013-04-01 07:03:00,
2013-04-01 03:04:00,28.4,17.1,29.76,NW,322,3.0,3.0,62,0.00,,OVC003,0.00,VWS V14.01,2013-04-01 07:04:00,
2013-04-01 03:05:00,28.4,17.1,29.76,NW,317,2.0,0.0,62,0.00,,OVC003,0.00,VWS V14.01,2013-04-01 07:05:00,
2013-04-01 03:06:00,28.4,17.1,29.76,NW,322,2.0,2.0,62,0.00,,OVC003,0.00,VWS V14.01,2013-04-01 07:06:00,
2013-04-01 03:07:00,28.3,17.0,29.76,NW,317,2.0,2.0,62,0.00,,OVC003,0.00,VWS V14.01,2013-04-01 07:07:00,
2013-04-01 03:08:00,28.3,17.0,29.76,WSW,249,2.0,3.0,62,0.00,,OVC003,0.00,VWS V14.01,2013-04-01 07:08:00,
2013-04-01 03:09:00,28.3,17.0,29.76,WSW,249,2.0,3.0,62,0.00,,OVC003,0.00,VWS V14.01,2013-04-01 07:09:00,
2013-04-01 03:10:00,28.3,17.0,29.76,WSW,249,2.0,3.0,62,0.00,,OVC003,0.00,VWS V14.01,2013-04-01 07:10:00,
2013-04-01 03:11:00,28.3,17.3,29.76,WSW,247,4.0,4.0,63,0.00,,OVC003,0.00,VWS V14.01,2013-04-01 07:11:00,
2013-04-01 03:12:00,28.2,17.2,29.76,WSW,247,2.0,2.0,63,0.00,,OVC003,0.00,VWS V14.01,2013-04-01 07:12:00,
2013-04-01 03:13:00,28.2,17.2,29.76,WSW,247,3.0,3.0,63,0.00,,OVC003,0.00,VWS V14.01,2013-04-01 07:13:00,
2013-04-01 03:14:00,28.2,17.2,29.77,WSW,247,2.0,2.0,63,0.00,,OVC003,0.00,VWS V14.01,2013-04-01 07:14:00,
2013-04-01 03:15:00,28.1,17.1,29.77,WSW,247,2.0,2.0,63,0.00,,OVC003,0.00,VWS V14.01,2013-04-01 07:15:00,
2013-04-01 03:16:00,28.1,17.1,29.77,WSW,247,2.0,0.0,63,0.00,,OVC003,0.00,VWS V14.01,2013-04-01 07:16:00,
2013-04-01 03:17:00,28.1,17.1,29.77,SW,226,3.0,3.0,63,0.00,,OVC003,0.00,VWS V14.01,2013-04-01 07:17:00,
2013-04-01 03:18:00,28.1,17.1,29.77,West,272,2.0,4.0,63,0.00,,OVC003,0.00,VWS V14.01,2013-04-01 07:18:00,
2013-04-01 03:19:00,28.1,17.1,29.77,West,272,3.0,4.0,63,0.00,,OVC003,0.00,VWS V14.01,2013-04-01 07:19:00,
2013-04-01 03:20:00,28.1,17.1,29.77,West,272,4.0,4.0,63,0.00,,OVC003,0.00,VWS V14.01,2013-04-01 07:20:00,
2013-04-01 03:21:00,28.0,17.0,29.77,NW,317,5.0,5.0,63,0.00,,OVC003,0.00,VWS V14.01,2013-04-01 07:21:00,
2013-04-01 03:22:00,28.0,17.0,29.77,NW,317,2.0,3.0,63,0.00,,OVC003,0.00,VWS V14.01,2013-04-01 07:22:00,
2013-04-01 03:23:00,28.0,17.0,29.77,SW,226,4.0,4.0,63,0.00,,OVC003,0.00,VWS V14.01,2013-04-01 07:23:00,
2013-04-01 03:24:00,28.0,17.0,29.77,West,270,2.0,3.0,63,0.00,,OVC003,0.00,VWS V14.01,2013-04-01 07:24:00,
2013-04-01 03:25:00,28.0,17.0,29.77,NNE,29,3.0,3.0,63,0.00,,OVC003,0.00,VWS V14.01,2013-04-01 07:25:00,
2013-04-01 03:26:00,28.0,17.4,29.77,WSW,251,4.0,4.0,64,0.00,,OVC003,0.00,VWS V14.01,2013-04-01 07:26:00,
2013-04-01 03:27:00,28.0,17.0,29.77,WNW,299,3.0,4.0,63,0.00,,OVC003,0.00,VWS V14.01,2013-04-01 07:27:00,
2013-04-01 03:28:00,28.0,17.4,29.77,NW,322,5.0,10.0,64,0.00,,OVC003,0.00,VWS V14.01,2013-04-01 07:28:00,
2013-04-01 03:29:00,28.0,17.0,29.78,NNE,18,4.0,10.0,63,0.00,,OVC003,0.00,VWS V14.01,2013-04-01 07:29:00,
2013-04-01 03:30:00,28.0,17.0,29.78,WSW,253,4.0,10.0,63,0.00,,OVC003,0.00,VWS V14.01,2013-04-01 07:30:00,
2013-04-01 03:31:00,28.0,17.0,29.78,SSW,211,3.0,5.0,63,0.00,,OVC003,0.00,VWS V14.01,2013-04-01 07:31:00,
2013-04-01 03:32:00,28.0,17.0,29.78,East,92,4.0,5.0,63,0.00,,OVC003,0.00,VWS V14.01,2013-04-01 07:32:00,
2013-04-01 03:33:00,28.0,17.4,29.78,WNW,293,2.0,5.0,64,0.00,,OVC003,0.00,VWS V14.01,2013-04-01 07:33:00,
2013-04-01 03:34:00,28.0,17.4,29.78,SW,228,3.0,5.0,64,0.00,,OVC003,0.00,VWS V14.01,2013-04-01 07:34:00,
2013-04-01 03:35:00,28.0,17.4,29.78,West,259,3.0,5.0,64,0.00,,OVC003,0.00,VWS V14.01,2013-04-01 07:35:00,
2013-04-01 03:36:00,28.0,17.0,29.78,SW,216,4.0,4.0,63,0.00,,OVC003,0.00,VWS V14.01,2013-04-01 07:36:00,
2013-04-01 03:37:00,28.0,17.0,29.78,West,276,3.0,7.0,63,0.00,,OVC003,0.00,VWS V14.01,2013-04-01 07:37:00,
2013-04-01 03:38:00,28.0,17.0,29.78,South,178,6.0,7.0,63,0.00,,OVC003,0.00,VWS V14.01,2013-04-01 07:38:00,
2013-04-01 03:39:00,28.0,17.0,29.78,NW,305,6.0,7.0,63,0.00,,OVC003,0.00,VWS V14.01,2013-04-01 07:39:00,
2013-04-01 03:40:00,28.0,17.0,29.78,SW,224,4.0,7.0,63,0.00,,OVC003,0.00,VWS V14.01,2013-04-01 07:40:00,
2013-04-01 03:41:00,28.0,17.0,29.78,WSW,249,8.0,8.0,63,0.00,,OVC003,0.00,VWS V14.01,2013-04-01 07:41:00,
2013-04-01 03:42:00,28.0,17.0,29.78,ENE,76,4.0,7.0,63,0.00,,OVC003,0.00,VWS V14.01,2013-04-01 07:42:00,
2013-04-01 03:43:00,28.0,17.0,29.78,West,277,2.0,7.0,63,0.00,,OVC003,0.00,VWS V14.01,2013-04-01 07:43:00,
2013-04-01 03:44:00,28.1,17.1,29.78,West,276,2.0,7.0,63,0.00,,OVC003,0.00,VWS V14.01,2013-04-01 07:44:00,
2013-04-01 03:45:00,28.1,17.1,29.78,NW,306,4.0,7.0,63,0.00,,OVC003,0.00,VWS V14.01,2013-04-01 07:45:00,
2013-04-01 03:46:00,28.1,17.1,29.78,NE,41,4.0,6.0,63,0.00,,OVC003,0.00,VWS V14.01,2013-04-01 07:46:00,
2013-04-01 03:47:00,28.1,17.1,29.78,NW,322,5.0,7.0,63,0.00,,OVC003,0.00,VWS V14.01,2013-04-01 07:47:00,
2013-04-01 03:48:00,28.1,17.1,29.78,NNW,342,5.0,12.0,63,0.00,,OVC003,0.00,VWS V14.01,2013-04-01 07:48:00,
2013-04-01 03:49:00,28.1,17.1,29.78,NW,322,5.0,12.0,63,0.00,,OVC003,0.00,VWS V14.01,2013-04-01 07:49:00,
2013-04-01 03:50:00,28.1,17.1,29.78,NW,312,5.0,12.0,63,0.00,,OVC003,0.00,VWS V14.01,2013-04-01 07:50:00,
2013-04-01 03:51:00,28.1,17.1,29.78,West,279,3.0,4.0,63,0.00,,OVC003,0.00,VWS V14.01,2013-04-01 07:51:00,
2013-04-01 03:52:00,28.1,17.1,29.78,West,280,2.0,4.0,63,0.00,,OVC003,0.00,VWS V14.01,2013-04-01 07:52:00,
2013-04-01 03:53:00,28.0,17.0,29.78,NE,43,3.0,5.0,63,0.00,,OVC003,0.00,VWS V14.01,2013-04-01 07:53:00,
2013-04-01 03:54:00,28.0,17.0,29.78,WSW,255,4.0,5.0,63,0.00,,OVC003,0.00,VWS V14.01,2013-04-01 07:54:00,
2013-04-01 03:55:00,28.0,17.0,29.78,SW,235,5.0,5.0,63,0.00,,OVC003,0.00,VWS V14.01,2013-04-01 07:55:00,
2013-04-01 03:57:00,28.0,17.4,29.78,NW,322,6.0,7.0,64,0.00,,OVC003,0.00,VWS V14.01,2013-04-01 07:57:00,
2013-04-01 03:58:00,28.0,17.0,29.78,West,272,3.0,7.0,63,0.00,,OVC003,0.00,VWS V14.01,2013-04-01 07:58:00,
2013-04-01 04:00:00,28.0,17.0,29.78,West,274,3.0,7.0,63,0.00,,OVC003,0.00,VWS V14.01,2013-04-01 08:00:00,
2013-04-01 04:01:00,28.0,17.0,29.78,WNW,295,2.0,6.0,63,0.00,,OVC003,0.00,VWS V14.01,2013-04-01 08:01:00,
2013-04-01 04:02:00,28.0,17.0,29.78,WNW,293,5.0,6.0,63,0.00,,OVC003,0.00,VWS V14.01,2013-04-01 08:02:00,
2013-04-01 04:03:00,28.0,17.0,29.78,NW,304,4.0,6.0,63,0.00,,OVC003,0.00,VWS V14.01,2013-04-01 08:03:00,
2013-04-01 04:04:00,28.0,17.0,29.78,WNW,286,4.0,6.0,63,0.00,,OVC003,0.00,VWS V14.01,2013-04-01 08:04:00,
2013-04-01 04:05:00,27.9,17.0,29.78,WNW,286,2.0,0.0,63,0.00,,OVC003,0.00,VWS V14.01,2013-04-01 08:05:00,
2013-04-01 04:06:00,27.9,17.0,29.78,WNW,286,3.0,3.0,63,0.00,,OVC003,0.00,VWS V14.01,2013-04-01 08:06:00,
2013-04-01 04:07:00,27.9,17.0,29.78,West,280,2.0,4.0,63,0.00,,OVC003,0.00,VWS V14.01,2013-04-01 08:07:00,
2013-04-01 04:08:00,27.9,17.0,29.78,West,280,2.0,4.0,63,0.00,,OVC003,0.00,VWS V14.01,2013-04-01 08:08:00,
2013-04-01 04:09:00,27.9,17.0,29.78,NW,317,4.0,4.0,63,0.00,,OVC003,0.00,VWS V14.01,2013-04-01 08:09:00,
2013-04-01 04:10:00,27.9,17.0,29.78,West,276,2.0,4.0,63,0.00,,OVC003,0.00,VWS V14.01,2013-04-01 08:10:00,
2013-04-01 04:11:00,27.9,17.0,29.78,West,276,2.0,2.0,63,0.00,,OVC003,0.00,VWS V14.01,2013-04-01 08:11:00,
2013-04-01 04:12:00,27.9,17.0,29.78,WSW,256,6.0,6.0,63,0.00,,OVC003,0.00,VWS V14.01,2013-04-01 08:12:00,
2013-04-01 04:13:00,27.9,17.0,29.78,WNW,282,2.0,5.0,63,0.00,,OVC003,0.00,VWS V14.01,2013-04-01 08:13:00,
2013-04-01 04:14:00,27.9,17.0,29.80,WNW,282,3.0,5.0,63,0.00,,OVC003,0.00,VWS V14.01,2013-04-01 08:14:00,
2013-04-01 04:15:00,27.9,17.0,29.80,WNW,282,2.0,5.0,63,0.00,,OVC003,0.00,VWS V14.01,2013-04-01 08:15:00,
2013-04-01 04:16:00,27.9,17.0,29.80,SSW,212,3.0,3.0,63,0.00,,OVC003,0.00,VWS V14.01,2013-04-01 08:16:00,
2013-04-01 04:17:00,27.9,17.0,29.80,NW,322,6.0,6.0,63,0.00,,OVC003,0.00,VWS V14.01,2013-04-01 08:17:00,
2013-04-01 04:18:00,27.8,16.9,29.80,South,186,4.0,5.0,63,0.00,,OVC003,0.00,VWS V14.01,2013-04-01 08:18:00,
2013-04-01 04:19:00,27.8,16.9,29.80,South,186,2.0,5.0,63,0.00,,OVC003,0.00,VWS V14.01,2013-04-01 08:19:00,
2013-04-01 04:20:00,27.8,16.9,29.80,South,186,3.0,5.0,63,0.00,,OVC003,0.00,VWS V14.01,2013-04-01 08:20:00,
2013-04-01 04:21:00,27.8,16.9,29.80,SE,145,4.0,4.0,63,0.00,,OVC003,0.00,VWS V14.01,2013-04-01 08:21:00,
2013-04-01 04:22:00,27.8,16.9,29.80,SSE,161,3.0,4.0,63,0.00,,OVC003,0.00,VWS V14.01,2013-04-01 08:22:00,
2013-04-01 04:23:00,27.8,16.9,29.80,NW,312,5.0,5.0,63,0.00,,OVC003,0.00,VWS V14.01,2013-04-01 08:23:00,
2013-04-01 04:24:00,27.8,17.2,29.80,NW,312,3.0,4.0,64,0.00,,OVC003,0.00,VWS V14.01,2013-04-01 08:24:00,
2013-04-01 04:25:00,27.8,16.9,29.80,NW,312,3.0,3.0,63,0.00,,OVC003,0.00,VWS V14.01,2013-04-01 08:25:00,
2013-04-01 04:26:00,27.8,16.9,29.80,NW,312,2.0,3.0,63,0.00,,OVC003,0.00,VWS V14.01,2013-04-01 08:26:00,
2013-04-01 04:27:00,27.8,17.2,29.80,South,180,4.0,4.0,64,0.00,,OVC003,0.00,VWS V14.01,2013-04-01 08:27:00,
2013-04-01 04:28:00,27.7,17.1,29.80,South,180,2.0,4.0,64,0.00,,OVC003,0.00,VWS V14.01,2013-04-01 08:28:00,
2013-04-01 04:29:00,27.7,17.1,29.80,NNW,348,2.0,4.0,64,0.00,,OVC003,0.00,VWS V14.01,2013-04-01 08:29:00,
2013-04-01 04:30:00,27.7,17.1,29.80,NNW,334,5.0,5.0,64,0.00,,OVC003,0.00,VWS V14.01,2013-04-01 08:30:00,
2013-04-01 04:31:00,27.7,17.1,29.80,WSW,243,4.0,4.0,64,0.00,,OVC003,0.00,VWS V14.01,2013-04-01 08:31:00,
2013-04-01 04:32:00,27.7,17.1,29.80,SSE,158,3.0,4.0,64,0.00,,OVC003,0.00,VWS V14.01,2013-04-01 08:32:00,
2013-04-01 04:33:00,27.7,17.1,29.80,SSE,157,2.0,4.0,64,0.00,,OVC003,0.00,VWS V14.01,2013-04-01 08:33:00,
2013-04-01 04:34:00,27.6,17.0,29.80,SSE,157,2.0,4.0,64,0.00,,OVC003,0.00,VWS V14.01,2013-04-01 08:34:00,
2013-04-01 04:35:00,27.6,17.0,29.80,SSE,157,2.0,0.0,64,0.00,,OVC003,0.00,VWS V14.01,2013-04-01 08:35:00,
2013-04-01 04:36:00,27.6,17.0,29.80,SSE,158,2.0,2.0,64,0.00,,OVC003,0.00,VWS V14.01,2013-04-01 08:36:00,
2013-04-01 04:37:00,27.6,17.0,29.80,SSE,158,2.0,2.0,64,0.00,,OVC003,0.00,VWS V14.01,2013-04-01 08:37:00,
2013-04-01 04:38:00,27.6,17.4,29.80,SSE,157,2.0,2.0,65,0.00,,OVC003,0.00,VWS V14.01,2013-04-01 08:38:00,
2013-04-01 04:39:00,27.6,17.4,29.80,SSE,157,2.0,2.0,65,0.00,,OVC003,0.00,VWS V14.01,2013-04-01 08:39:00,
2013-04-01 04:40:00,27.6,17.4,29.80,SSE,158,2.0,2.0,65,0.00,,OVC003,0.00,VWS V14.01,2013-04-01 08:40:00,
2013-04-01 04:41:00,27.5,17.3,29.80,SSE,158,4.0,4.0,65,0.00,,OVC003,0.00,VWS V14.01,2013-04-01 08:41:00,
2013-04-01 04:42:00,27.5,17.3,29.80,South,182,4.0,4.0,65,0.00,,OVC003,0.00,VWS V14.01,2013-04-01 08:42:00,
2013-04-01 04:43:00,27.5,17.3,29.80,WNW,297,2.0,4.0,65,0.00,,OVC003,0.00,VWS V14.01,2013-04-01 08:43:00,
2013-04-01 04:45:00,27.5,17.3,29.81,SSW,199,4.0,4.0,65,0.00,,OVC003,0.00,VWS V14.01,2013-04-01 08:45:00,
2013-04-01 04:46:00,27.4,17.2,29.81,SSW,198,2.0,2.0,65,0.00,,OVC003,0.00,VWS V14.01,2013-04-01 08:46:00,
2013-04-01 04:47:00,27.4,17.2,29.81,NNW,341,4.0,5.0,65,0.00,,OVC003,0.00,VWS V14.01,2013-04-01 08:47:00,
2013-04-01 04:48:00,27.4,17.2,29.81,WNW,298,5.0,5.0,65,0.00,,OVC003,0.00,VWS V14.01,2013-04-01 08:48:00,
2013-04-01 04:50:00,27.4,17.2,29.81,WNW,291,4.0,5.0,65,0.00,,OVC003,0.00,VWS V14.01,2013-04-01 08:50:00,
2013-04-01 04:51:00,27.4,17.2,29.81,WNW,291,2.0,2.0,65,0.00,,OVC003,0.00,VWS V14.01,2013-04-01 08:51:00,
2013-04-01 04:52:00,27.4,17.2,29.81,West,272,4.0,4.0,65,0.00,,OVC003,0.00,VWS V14.01,2013-04-01 08:52:00,
2013-04-01 04:53:00,27.4,17.2,29.81,West,272,2.0,4.0,65,0.00,,OVC003,0.00,VWS V14.01,2013-04-01 08:53:00,
2013-04-01 04:54:00,27.4,17.5,29.81,WNW,303,8.0,8.0,66,0.00,,OVC003,0.00,VWS V14.01,2013-04-01 08:54:00,
2013-04-01 04:55:00,27.4,17.2,29.81,South,174,5.0,6.0,65,0.00,,OVC003,0.00,VWS V14.01,2013-04-01 08:55:00,
2013-04-01 04:56:00,27.3,17.1,29.81,WSW,238,3.0,4.0,65,0.00,,OVC003,0.00,VWS V14.01,2013-04-01 08:56:00,
2013-04-01 04:57:00,27.3,17.1,29.81,ESE,107,5.0,5.0,65,0.00,,OVC003,0.00,VWS V14.01,2013-04-01 08:57:00,
2013-04-01 04:58:00,27.3,17.1,29.81,North,350,3.0,4.0,65,0.00,,OVC003,0.00,VWS V14.01,2013-04-01 08:58:00,
2013-04-01 04:59:00,27.3,17.1,29.82,WNW,301,4.0,4.0,65,0.00,,OVC003,0.00,VWS V14.01,2013-04-01 08:59:00,
2013-04-01 05:00:00,27.3,17.1,29.82,WNW,301,2.0,4.0,65,0.00,,OVC003,0.00,VWS V14.01,2013-04-01 09:00:00,
2013-04-01 05:01:00,27.3,17.1,29.82,NNW,332,3.0,3.0,65,0.00,,OVC003,0.00,VWS V14.01,2013-04-01 09:01:00,
2013-04-01 05:02:00,27.3,17.1,29.82,North,7,2.0,2.0,65,0.00,,OVC003,0.00,VWS V14.01,2013-04-01 09:02:00,
2013-04-01 05:03:00,27.3,17.5,29.82,North,8,3.0,3.0,66,0.00,,OVC003,0.00,VWS V14.01,2013-04-01 09:03:00,
2013-04-01 05:04:00,27.3,17.1,29.82,SW,221,4.0,4.0,65,0.00,,OVC003,0.00,VWS V14.01,2013-04-01 09:04:00,
2013-04-01 05:05:00,27.3,17.1,29.82,South,186,3.0,6.0,65,0.00,,OVC003,0.00,VWS V14.01,2013-04-01 09:05:00,
2013-04-01 05:06:00,27.3,17.1,29.82,NW,317,2.0,7.0,65,0.00,,OVC003,0.00,VWS V14.01,2013-04-01 09:06:00,
2013-04-01 05:07:00,27.3,17.1,29.82,NNW,338,5.0,7.0,65,0.00,,OVC003,0.00,VWS V14.01,2013-04-01 09:07:00,
2013-04-01 05:08:00,27.3,17.1,29.82,WSW,241,3.0,7.0,65,0.00,,OVC003,0.00,VWS V14.01,2013-04-01 09:08:00,
2013-04-01 05:09:00,27.3,17.1,29.82,SSW,198,3.0,7.0,65,0.00,,OVC003,0.00,VWS V14.01,2013-04-01 09:09:00,
2013-04-01 05:10:00,27.3,17.1,29.82,SSW,198,4.0,7.0,65,0.00,,OVC003,0.00,VWS V14.01,2013-04-01 09:10:00,
2013-04-01 05:11:00,27.3,17.1,29.82,WNW,290,5.0,5.0,65,0.00,,OVC003,0.00,VWS V14.01,2013-04-01 09:11:00,
2013-04-01 05:12:00,27.3,17.1,29.82,West,266,3.0,3.0,65,0.00,,OVC003,0.00,VWS V14.01,2013-04-01 09:12:00,
2013-04-01 05:13:00,27.3,17.1,29.82,SSE,157,4.0,4.0,65,0.00,,OVC003,0.00,VWS V14.01,2013-04-01 09:13:00,
2013-04-01 05:14:00,27.2,17.0,29.82,South,172,2.0,5.0,65,0.00,,OVC003,0.00,VWS V14.01,2013-04-01 09:14:00,
2013-04-01 05:15:00,27.3,17.1,29.82,SSW,203,5.0,5.0,65,0.00,,OVC003,0.00,VWS V14.01,2013-04-01 09:15:00,
2013-04-01 05:16:00,27.2,16.6,29.82,NW,307,4.0,4.0,64,0.00,,OVC003,0.00,VWS V14.01,2013-04-01 09:16:00,
2013-04-01 05:17:00,27.2,16.6,29.82,NNW,331,5.0,5.0,64,0.00,,OVC003,0.00,VWS V14.01,2013-04-01 09:17:00,
2013-04-01 05:18:00,27.2,16.6,29.82,West,279,3.0,5.0,64,0.00,,OVC003,0.00,VWS V14.01,2013-04-01 09:18:00,
2013-04-01 05:19:00,27.2,16.3,29.82,West,279,2.0,5.0,63,0.00,,OVC003,0.00,VWS V14.01,2013-04-01 09:19:00,
2013-04-01 05:20:00,27.2,16.3,29.82,West,279,4.0,5.0,63,0.00,,OVC003,0.00,VWS V14.01,2013-04-01 09:20:00,
2013-04-01 05:21:00,27.2,16.3,29.82,East,86,4.0,5.0,63,0.00,,OVC003,0.00,VWS V14.01,2013-04-01 09:21:00,
2013-04-01 05:22:00,27.2,15.9,29.82,WSW,257,3.0,5.0,62,0.00,,OVC003,0.00,VWS V14.01,2013-04-01 09:22:00,
2013-04-01 05:23:00,27.2,15.9,29.82,WSW,256,3.0,5.0,62,0.00,,OVC003,0.00,VWS V14.01,2013-04-01 09:23:00,
2013-04-01 05:24:00,27.2,15.9,29.82,NNW,330,5.0,5.0,62,0.00,,OVC003,0.00,VWS V14.01,2013-04-01 09:24:00,
2013-04-01 05:25:00,27.2,15.9,29.82,SW,224,2.0,3.0,62,0.00,,OVC003,0.00,VWS V14.01,2013-04-01 09:25:00,
2013-04-01 05:26:00,27.1,15.8,29.82,SW,224,2.0,3.0,62,0.00,,OVC003,0.00,VWS V14.01,2013-04-01 09:26:00,
2013-04-01 05:27:00,27.2,15.9,29.82,SSW,209,2.0,3.0,62,0.00,,OVC003,0.00,VWS V14.01,2013-04-01 09:27:00,
2013-04-01 05:28:00,27.2,15.6,29.82,SSW,209,2.0,3.0,61,0.00,,OVC003,0.00,VWS V14.01,2013-04-01 09:28:00,
2013-04-01 05:29:00,27.1,15.8,29.83,South,187,2.0,3.0,62,0.00,,OVC003,0.00,VWS V14.01,2013-04-01 09:29:00,
2013-04-01 05:30:00,27.1,15.8,29.83,South,188,2.0,3.0,62,0.00,,OVC003,0.00,VWS V14.01,2013-04-01 09:30:00,
2013-04-01 05:32:00,27.1,15.8,29.83,West,263,2.0,4.0,62,0.00,,OVC003,0.00,VWS V14.01,2013-04-01 09:32:00,
2013-04-01 05:33:00,27.1,15.8,29.83,West,263,2.0,4.0,62,0.00,,OVC003,0.00,VWS V14.01,2013-04-01 09:33:00,
2013-04-01 05:34:00,27.1,15.8,29.83,SW,234,2.0,4.0,62,0.00,,OVC003,0.00,VWS V14.01,2013-04-01 09:34:00,
2013-04-01 05:35:00,27.1,15.8,29.83,SW,234,2.0,4.0,62,0.00,,OVC003,0.00,VWS V14.01,2013-04-01 09:35:00,
2013-04-01 05:36:00,27.0,15.7,29.83,SW,234,2.0,0.0,62,0.00,,OVC003,0.00,VWS V14.01,2013-04-01 09:36:00,
2013-04-01 05:37:00,27.0,15.7,29.83,SW,234,2.0,0.0,62,0.00,,OVC003,0.00,VWS V14.01,2013-04-01 09:37:00,
2013-04-01 05:38:00,27.0,15.7,29.83,SW,234,2.0,0.0,62,0.00,,OVC003,0.00,VWS V14.01,2013-04-01 09:38:00,
2013-04-01 05:39:00,27.0,15.7,29.83,SW,234,2.0,2.0,62,0.00,,OVC003,0.00,VWS V14.01,2013-04-01 09:39:00,
2013-04-01 05:40:00,26.9,16.0,29.83,SW,234,2.0,2.0,63,0.00,,OVC003,0.00,VWS V14.01,2013-04-01 09:40:00,
2013-04-01 05:41:00,26.9,16.0,29.83,WSW,253,6.0,6.0,63,0.00,,OVC003,0.00,VWS V14.01,2013-04-01 09:41:00,
2013-04-01 05:42:00,26.9,16.0,29.83,WSW,254,5.0,5.0,63,0.00,,OVC003,0.00,VWS V14.01,2013-04-01 09:42:00,
2013-04-01 05:43:00,26.9,16.0,29.83,West,259,7.0,7.0,63,0.00,,OVC003,0.00,VWS V14.01,2013-04-01 09:43:00,
2013-04-01 05:44:00,26.9,16.0,29.83,WNW,297,2.0,5.0,63,0.00,,OVC003,0.00,VWS V14.01,2013-04-01 09:44:00,
2013-04-01 05:45:00,26.8,15.9,29.83,WNW,290,6.0,6.0,63,0.00,,OVC003,0.00,VWS V14.01,2013-04-01 09:45:00,
2013-04-01 05:46:00,26.8,16.3,29.83,WNW,290,3.0,4.0,64,0.00,,OVC003,0.00,VWS V14.01,2013-04-01 09:46:00,
2013-04-01 05:47:00,26.8,16.3,29.83,WSW,243,2.0,5.0,64,0.00,,OVC003,0.00,VWS V14.01,2013-04-01 09:47:00,
2013-04-01 05:48:00,26.8,16.3,29.83,WSW,243,2.0,5.0,64,0.00,,OVC003,0.00,VWS V14.01,2013-04-01 09:48:00,
2013-04-01 05:49:00,26.7,16.2,29.83,West,263,3.0,5.0,64,0.00,,OVC003,0.00,VWS V14.01,2013-04-01 09:49:00,
2013-04-01 05:50:00,26.8,16.3,29.83,SW,224,2.0,5.0,64,0.00,,OVC003,0.00,VWS V14.01,2013-04-01 09:50:00,
2013-04-01 05:51:00,26.7,16.5,29.83,WSW,241,3.0,3.0,65,0.00,,OVC003,0.00,VWS V14.01,2013-04-01 09:51:00,
2013-04-01 05:52:00,26.7,16.2,29.83,WSW,240,3.0,3.0,64,0.00,,OVC003,0.00,VWS V14.01,2013-04-01 09:52:00,
2013-04-01 05:53:00,26.7,16.2,29.83,WSW,241,2.0,2.0,64,0.00,,OVC003,0.00,VWS V14.01,2013-04-01 09:53:00,
2013-04-01 05:54:00,26.7,16.5,29.83,WSW,241,2.0,2.0,65,0.00,,OVC003,0.00,VWS V14.01,2013-04-01 09:54:00,
2013-04-01 05:55:00,26.7,16.5,29.83,SSW,209,6.0,6.0,65,0.00,,OVC003,0.00,VWS V14.01,2013-04-01 09:55:00,
2013-04-01 05:56:00,26.7,16.5,29.83,WNW,303,4.0,4.0,65,0.00,,OVC003,0.00,VWS V14.01,2013-04-01 09:56:00,
2013-04-01 05:57:00,26.7,16.5,29.83,WSW,237,4.0,4.0,65,0.00,,OVC003,0.00,VWS V14.01,2013-04-01 09:57:00,
2013-04-01 05:58:00,26.7,16.5,29.83,SSE,162,2.0,4.0,65,0.00,,OVC003,0.00,VWS V14.01,2013-04-01 09:58:00,
2013-04-01 05:59:00,26.7,16.5,29.84,West,265,2.0,4.0,65,0.00,,OVC003,0.00,VWS V14.01,2013-04-01 09:59:00,
2013-04-01 06:00:00,26.7,16.5,29.84,West,264,2.0,4.0,65,0.00,,OVC003,0.00,VWS V14.01,2013-04-01 10:00:00,
2013-04-01 06:01:00,26.7,16.5,29.84,West,264,2.0,0.0,65,0.00,,OVC003,0.00,VWS V14.01,2013-04-01 10:01:00,
2013-04-01 06:02:00,26.7,16.5,29.84,West,265,2.0,2.0,65,0.00,,OVC003,0.00,VWS V14.01,2013-04-01 10:02:00,
2013-04-01 06:03:00,26.6,16.4,29.84,West,265,2.0,2.0,65,0.00,,OVC003,0.00,VWS V14.01,2013-04-01 10:03:00,
2013-04-01 06:04:00,26.6,16.4,29.84,West,265,3.0,3.0,65,0.00,,OVC003,0.00,VWS V14.01,2013-04-01 10:04:00,
2013-04-01 06:05:00,26.6,16.4,29.84,West,264,2.0,2.0,65,0.00,,OVC003,0.00,VWS V14.01,2013-04-01 10:05:00,
2013-04-01 06:06:00,26.6,16.4,29.84,WSW,252,4.0,5.0,65,0.00,,OVC003,0.00,VWS V14.01,2013-04-01 10:06:00,
2013-04-01 06:07:00,26.6,16.4,29.84,WSW,253,2.0,5.0,65,0.00,,OVC003,0.00,VWS V14.01,2013-04-01 10:07:00,
2013-04-01 06:08:00,26.5,16.3,29.84,WSW,252,2.0,5.0,65,0.00,,OVC003,0.00,VWS V14.01,2013-04-01 10:08:00,
2013-04-01 06:09:00,26.5,16.3,29.84,WSW,251,7.0,7.0,65,0.00,,OVC003,0.00,VWS V14.01,2013-04-01 10:09:00,
2013-04-01 06:10:00,26.5,16.3,29.84,WSW,256,4.0,5.0,65,0.00,,OVC003,0.00,VWS V14.01,2013-04-01 10:10:00,
2013-04-01 06:11:00,26.5,16.3,29.84,WSW,256,3.0,3.0,65,0.00,,OVC003,0.00,VWS V14.01,2013-04-01 10:11:00,
2013-04-01 06:12:00,26.5,16.3,29.84,WSW,256,2.0,2.0,65,0.00,,OVC003,0.00,VWS V14.01,2013-04-01 10:12:00,
2013-04-01 06:13:00,26.4,16.2,29.84,SSE,151,5.0,5.0,65,0.00,,OVC003,0.00,VWS V14.01,2013-04-01 10:13:00,
2013-04-01 06:15:00,26.3,16.1,29.85,West,261,5.0,5.0,65,0.00,,OVC003,0.00,VWS V14.01,2013-04-01 10:15:00,
2013-04-01 06:16:00,26.3,16.5,29.85,West,276,3.0,3.0,66,0.00,,OVC003,0.00,VWS V14.01,2013-04-01 10:16:00,
2013-04-01 06:17:00,26.3,16.5,29.85,West,278,2.0,3.0,66,0.00,,OVC003,0.00,VWS V14.01,2013-04-01 10:17:00,
2013-04-01 06:19:00,26.3,16.5,29.85,NW,312,3.0,3.0,66,0.00,,OVC003,0.00,VWS V14.01,2013-04-01 10:19:00,
2013-04-01 06:20:00,26.3,16.1,29.85,WSW,257,4.0,4.0,65,0.00,,OVC003,0.00,VWS V14.01,2013-04-01 10:20:00,
2013-04-01 06:21:00,26.3,16.1,29.85,WSW,258,3.0,3.0,65,0.00,,OVC003,0.00,VWS V14.01,2013-04-01 10:21:00,
2013-04-01 06:22:00,26.3,16.1,29.85,SSW,211,3.0,4.0,65,0.00,,OVC003,0.00,VWS V14.01,2013-04-01 10:22:00,
2013-04-01 06:23:00,26.3,16.1,29.85,SW,220,3.0,4.0,65,0.00,,OVC003,0.00,VWS V14.01,2013-04-01 10:23:00,
2013-04-01 06:24:00,26.3,16.1,29.85,SW,220,3.0,4.0,65,0.00,,OVC003,0.00,VWS V14.01,2013-04-01 10:24:00,
2013-04-01 06:25:00,26.3,16.5,29.85,SW,220,4.0,4.0,66,0.00,,OVC003,0.00,VWS V14.01,2013-04-01 10:25:00,
2013-04-01 06:26:00,26.3,16.5,29.85,SW,220,2.0,2.0,66,0.00,,OVC003,0.00,VWS V14.01,2013-04-01 10:26:00,
2013-04-01 06:27:00,26.3,16.5,29.85,SW,220,2.0,2.0,66,0.00,,OVC003,0.00,VWS V14.01,2013-04-01 10:27:00,
2013-04-01 06:28:00,26.3,16.5,29.85,SW,220,2.0,2.0,66,0.00,,OVC003,0.00,VWS V14.01,2013-04-01 10:28:00,
2013-04-01 06:29:00,26.3,16.5,29.85,South,175,2.0,2.0,66,0.00,,OVC003,0.00,VWS V14.01,2013-04-01 10:29:00,
2013-04-01 06:30:00,26.3,16.5,29.85,South,174,3.0,3.0,66,0.00,,OVC003,0.00,VWS V14.01,2013-04-01 10:30:00,
2013-04-01 06:31:00,26.2,16.4,29.85,South,174,2.0,2.0,66,0.00,,OVC003,0.00,VWS V14.01,2013-04-01 10:31:00,
2013-04-01 06:32:00,26.2,16.4,29.85,West,267,3.0,3.0,66,0.00,,OVC003,0.00,VWS V14.01,2013-04-01 10:32:00,
2013-04-01 06:33:00,26.2,16.8,29.85,SW,226,2.0,4.0,67,0.00,,OVC003,0.00,VWS V14.01,2013-04-01 10:33:00,
2013-04-01 06:34:00,26.2,16.8,29.85,SW,226,2.0,4.0,67,0.00,,OVC003,0.00,VWS V14.01,2013-04-01 10:34:00,
2013-04-01 06:35:00,26.2,16.8,29.85,SW,226,2.0,2.0,67,0.00,,OVC003,0.00,VWS V14.01,2013-04-01 10:35:00,
2013-04-01 06:36:00,26.2,16.8,29.85,SW,226,5.0,5.0,67,0.00,,OVC003,0.00,VWS V14.01,2013-04-01 10:36:00,
2013-04-01 06:37:00,26.2,16.8,29.85,West,274,4.0,4.0,67,0.00,,OVC003,0.00,VWS V14.01,2013-04-01 10:37:00,
2013-04-01 06:38:00,26.2,16.8,29.85,West,274,2.0,3.0,67,0.00,,OVC003,0.00,VWS V14.01,2013-04-01 10:38:00,
2013-04-01 06:39:00,26.2,16.8,29.85,WSW,257,2.0,3.0,67,0.00,,OVC003,0.00,VWS V14.01,2013-04-01 10:39:00,
2013-04-01 06:40:00,26.2,17.1,29.85,WSW,257,2.0,3.0,68,0.00,,OVC003,0.00,VWS V14.01,2013-04-01 10:40:00,
2013-04-01 06:41:00,26.2,17.1,29.85,WSW,257,2.0,3.0,68,0.00,,OVC003,0.00,VWS V14.01,2013-04-01 10:41:00,
2013-04-01 06:42:00,26.2,17.1,29.85,West,280,2.0,3.0,68,0.00,,OVC003,0.00,VWS V14.01,2013-04-01 10:42:00,
2013-04-01 06:43:00,26.2,17.1,29.85,WSW,249,4.0,4.0,68,0.00,,OVC003,0.00,VWS V14.01,2013-04-01 10:43:00,
2013-04-01 06:44:00,26.2,17.1,29.86,South,186,4.0,4.0,68,0.00,,OVC003,0.00,VWS V14.01,2013-04-01 10:44:00,
2013-04-01 06:45:00,26.2,17.1,29.86,NNW,346,4.0,4.0,68,0.00,,OVC003,0.00,VWS V14.01,2013-04-01 10:45:00,
2013-04-01 06:46:00,26.2,17.1,29.86,WNW,293,3.0,3.0,68,0.00,,OVC003,0.00,VWS V14.01,2013-04-01 10:46:00,
2013-04-01 06:47:00,26.2,17.1,29.86,WNW,293,2.0,3.0,68,0.00,,OVC003,0.00,VWS V14.01,2013-04-01 10:47:00,
2013-04-01 06:48:00,26.2,17.1,29.86,WNW,284,5.0,5.0,68,0.00,,OVC003,0.00,VWS V14.01,2013-04-01 10:48:00,
2013-04-01 06:49:00,26.2,17.1,29.86,West,263,8.0,8.0,68,0.00,,OVC003,0.00,VWS V14.01,2013-04-01 10:49:00,
2013-04-01 06:50:00,26.2,17.1,29.86,WNW,297,4.0,8.0,68,0.00,,OVC003,0.00,VWS V14.01,2013-04-01 10:50:00,
2013-04-01 06:51:00,26.2,16.8,29.86,West,263,2.0,3.0,67,0.00,,OVC003,0.00,VWS V14.01,2013-04-01 10:51:00,
2013-04-01 06:52:00,26.2,17.1,29.86,NNW,337,5.0,5.0,68,0.00,,OVC003,0.00,VWS V14.01,2013-04-01 10:52:00,
2013-04-01 06:55:00,26.3,16.9,29.86,NW,304,8.0,8.0,67,0.00,,OVC003,0.00,VWS V14.01,2013-04-01 10:55:00,
2013-04-01 06:56:00,26.3,16.9,29.86,WNW,290,4.0,6.0,67,0.00,,OVC003,0.00,VWS V14.01,2013-04-01 10:56:00,
2013-04-01 07:00:00,26.3,16.9,29.87,WNW,285,3.0,6.0,67,0.00,,OVC003,0.00,VWS V14.01,2013-04-01 11:00:00,
2013-04-01 07:05:00,26.4,16.9,29.87,NNW,335,6.0,6.0,67,0.00,,OVC003,0.00,VWS V14.01,2013-04-01 11:05:00,
2013-04-01 07:06:00,26.5,16.7,29.87,WNW,302,5.0,5.0,66,0.00,,OVC003,0.00,VWS V14.01,2013-04-01 11:06:00,
2013-04-01 07:09:00,26.5,16.7,29.87,SW,236,6.0,7.0,66,0.00,,OVC003,0.00,VWS V14.01,2013-04-01 11:09:00,
2013-04-01 07:10:00,26.5,16.7,29.87,NW,317,6.0,7.0,66,0.00,,OVC003,0.00,VWS V14.01,2013-04-01 11:10:00,
2013-04-01 07:11:00,26.6,16.4,29.87,NW,312,2.0,4.0,65,0.00,,OVC003,0.00,VWS V14.01,2013-04-01 11:11:00,
2013-04-01 07:12:00,26.6,16.4,29.87,WSW,245,6.0,10.0,65,0.00,,OVC003,0.00,VWS V14.01,2013-04-01 11:12:00,
2013-04-01 07:13:00,26.6,16.1,29.87,NW,306,6.0,10.0,64,0.00,,OVC003,0.00,VWS V14.01,2013-04-01 11:13:00,
2013-04-01 07:15:00,26.7,16.2,29.88,NW,306,2.0,10.0,64,0.00,,OVC003,0.00,VWS V14.01,2013-04-01 11:15:00,
2013-04-01 07:16:00,26.8,16.3,29.88,West,267,7.0,7.0,64,0.00,,OVC003,0.00,VWS V14.01,2013-04-01 11:16:00,
2013-04-01 07:17:00,26.8,15.9,29.88,SSE,151,3.0,5.0,63,0.00,,OVC003,0.00,VWS V14.01,2013-04-01 11:17:00,
2013-04-01 07:19:00,26.8,15.9,29.88,NNW,347,6.0,6.0,63,0.00,,OVC003,0.00,VWS V14.01,2013-04-01 11:19:00,
2013-04-01 07:20:00,26.8,15.9,29.88,NW,312,4.0,5.0,63,0.00,,OVC003,0.00,VWS V14.01,2013-04-01 11:20:00,
2013-04-01 07:21:00,26.9,16.0,29.88,SW,216,3.0,3.0,63,0.00,,OVC003,0.00,VWS V14.01,2013-04-01 11:21:00,
2013-04-01 07:22:00,26.9,16.0,29.88,WSW,237,3.0,5.0,63,0.00,,OVC003,0.00,VWS V14.01,2013-04-01 11:22:00,
2013-04-01 07:23:00,26.9,16.0,29.88,WSW,238,4.0,5.0,63,0.00,,OVC003,0.00,VWS V14.01,2013-04-01 11:23:00,
2013-04-01 07:24:00,27.0,16.1,29.88,WSW,238,2.0,5.0,63,0.00,,OVC003,0.00,VWS V14.01,2013-04-01 11:24:00,
2013-04-01 07:25:00,27.0,16.1,29.88,South,176,7.0,7.0,63,0.00,,OVC003,0.00,VWS V14.01,2013-04-01 11:25:00,
2013-04-01 07:26:00,27.0,16.5,29.88,WNW,292,5.0,5.0,64,0.00,,OVC003,0.00,VWS V14.01,2013-04-01 11:26:00,
2013-04-01 07:27:00,27.1,16.6,29.88,NNW,327,3.0,5.0,64,0.00,,OVC003,0.00,VWS V14.01,2013-04-01 11:27:00,
2013-04-01 07:28:00,27.1,16.2,29.88,WSW,238,2.0,5.0,63,0.00,,OVC003,0.00,VWS V14.01,2013-04-01 11:28:00,
2013-04-01 07:29:00,27.1,16.2,29.88,ESE,116,3.0,5.0,63,0.00,,OVC003,0.00,VWS V14.01,2013-04-01 11:29:00,
2013-04-01 07:30:00,27.2,16.3,29.88,WSW,241,5.0,5.0,63,0.00,,OVC003,0.00,VWS V14.01,2013-04-01 11:30:00,
2013-04-01 07:31:00,27.2,15.9,29.88,NW,312,5.0,5.0,62,0.00,,OVC003,0.00,VWS V14.01,2013-04-01 11:31:00,
2013-04-01 07:32:00,27.2,15.9,29.88,WSW,248,3.0,6.0,62,0.00,,OVC003,0.00,VWS V14.01,2013-04-01 11:32:00,
2013-04-01 07:33:00,27.3,16.0,29.88,NNW,332,4.0,6.0,62,0.00,,OVC003,0.00,VWS V14.01,2013-04-01 11:33:00,
2013-04-01 07:34:00,27.3,16.0,29.88,ENE,66,4.0,6.0,62,0.00,,OVC003,0.00,VWS V14.01,2013-04-01 11:34:00,
2013-04-01 07:35:00,27.3,16.4,29.88,WSW,253,8.0,8.0,63,0.00,,OVC003,0.00,VWS V14.01,2013-04-01 11:35:00,
2013-04-01 07:36:00,27.4,16.5,29.88,NW,317,2.0,6.0,63,0.00,,OVC003,0.00,VWS V14.01,2013-04-01 11:36:00,
2013-04-01 07:37:00,27.5,16.6,29.88,SSE,157,6.0,6.0,63,0.00,,OVC003,0.00,VWS V14.01,2013-04-01 11:37:00,
2013-04-01 07:38:00,27.6,16.7,29.88,North,1,3.0,6.0,63,0.00,,OVC003,0.00,VWS V14.01,2013-04-01 11:38:00,
2013-04-01 07:39:00,27.6,16.3,29.88,NNE,20,4.0,6.0,62,0.00,,OVC003,0.00,VWS V14.01,2013-04-01 11:39:00,
2013-04-01 07:40:00,27.7,16.4,29.88,NNE,20,4.0,4.0,62,0.00,,OVC003,0.00,VWS V14.01,2013-04-01 11:40:00,
2013-04-01 07:41:00,27.7,16.4,29.88,NNW,335,3.0,3.0,62,0.00,,OVC003,0.00,VWS V14.01,2013-04-01 11:41:00,
2013-04-01 07:42:00,27.8,16.5,29.88,NNW,334,3.0,4.0,62,0.00,,OVC003,0.00,VWS V14.01,2013-04-01 11:42:00,
2013-04-01 07:43:00,27.8,16.5,29.88,NNW,345,4.0,4.0,62,0.00,,OVC003,0.00,VWS V14.01,2013-04-01 11:43:00,
2013-04-01 07:44:00,27.9,16.6,29.88,NNW,345,2.0,4.0,62,0.00,,OVC003,0.00,VWS V14.01,2013-04-01 11:44:00,
2013-04-01 07:45:00,27.9,16.6,29.88,ESE,122,6.0,6.0,62,0.00,,OVC003,0.00,VWS V14.01,2013-04-01 11:45:00,
2013-04-01 07:46:00,27.9,16.2,29.88,North,359,3.0,9.0,61,0.00,,OVC003,0.00,VWS V14.01,2013-04-01 11:46:00,
2013-04-01 07:47:00,27.9,16.2,29.88,ENE,64,2.0,9.0,61,0.00,,OVC003,0.00,VWS V14.01,2013-04-01 11:47:00,
2013-04-01 07:48:00,27.9,16.2,29.88,ESE,105,3.0,9.0,61,0.00,,OVC003,0.00,VWS V14.01,2013-04-01 11:48:00,
2013-04-01 07:49:00,27.9,15.8,29.88,NNW,345,7.0,9.0,60,0.00,,OVC003,0.00,VWS V14.01,2013-04-01 11:49:00,
2013-04-01 07:50:00,27.9,15.8,29.88,NNW,342,2.0,9.0,60,0.00,,OVC003,0.00,VWS V14.01,2013-04-01 11:50:00,
2013-04-01 07:51:00,27.9,15.4,29.88,North,6,5.0,5.0,59,0.00,,OVC003,0.00,VWS V14.01,2013-04-01 11:51:00,
2013-04-01 07:52:00,27.9,15.8,29.88,NNW,327,3.0,4.0,60,0.00,,OVC003,0.00,VWS V14.01,2013-04-01 11:52:00,
2013-04-01 07:53:00,28.0,15.9,29.88,NNE,18,3.0,4.0,60,0.00,,OVC003,0.00,VWS V14.01,2013-04-01 11:53:00,
2013-04-01 07:54:00,28.0,15.9,29.88,NW,322,2.0,4.0,60,0.00,,OVC003,0.00,VWS V14.01,2013-04-01 11:54:00,
2013-04-01 07:55:00,28.1,16.0,29.88,NW,317,5.0,5.0,60,0.00,,OVC003,0.00,VWS V14.01,2013-04-01 11:55:00,
2013-04-01 07:56:00,26.2,16.8,29.86,West,263,5.0,5.0,67,0.00,,OVC003,0.00,VWS V14.01,2013-04-01 11:56:00,
2013-04-01 07:57:00,28.2,16.1,29.88,SW,214,5.0,7.0,60,0.00,,OVC003,0.00,VWS V14.01,2013-04-01 11:57:00,
2013-04-01 07:58:00,28.2,16.1,29.88,WNW,299,4.0,7.0,60,0.00,,OVC003,0.00,VWS V14.01,2013-04-01 11:58:00,
2013-04-01 07:59:00,28.2,16.1,29.89,WNW,299,2.0,7.0,60,0.00,,OVC003,0.00,VWS V14.01,2013-04-01 11:59:00,
2013-04-01 08:00:00,28.2,16.1,29.89,WNW,299,2.0,7.0,60,0.00,,OVC003,0.00,VWS V14.01,2013-04-01 12:00:00,
2013-04-01 08:01:00,28.2,15.7,29.89,WSW,238,2.0,3.0,59,0.00,,OVC003,0.00,VWS V14.01,2013-04-01 12:01:00,
2013-04-01 08:02:00,28.3,16.2,29.89,WNW,301,4.0,4.0,60,0.00,,OVC003,0.00,VWS V14.01,2013-04-01 12:02:00,
2013-04-01 08:03:00,26.3,16.9,29.86,SW,236,4.0,6.0,67,0.00,,OVC003,0.00,VWS V14.01,2013-04-01 12:03:00,
2013-04-01 08:04:00,28.4,15.9,29.89,SSW,196,6.0,7.0,59,0.00,,OVC003,0.00,VWS V14.01,2013-04-01 12:04:00,
2013-04-01 08:05:00,28.4,15.9,29.89,SSW,204,6.0,11.0,59,0.00,,OVC003,0.00,VWS V14.01,2013-04-01 12:05:00,
2013-04-01 08:06:00,28.4,15.5,29.89,WNW,282,5.0,6.0,58,0.00,,OVC003,0.00,VWS V14.01,2013-04-01 12:06:00,
2013-04-01 08:07:00,28.4,15.5,29.89,WNW,303,6.0,9.0,58,0.00,,OVC003,0.00,VWS V14.01,2013-04-01 12:07:00,
2013-04-01 08:08:00,26.4,16.9,29.87,WNW,284,3.0,3.0,67,0.00,,OVC003,0.00,VWS V14.01,2013-04-01 12:08:00,
2013-04-01 08:09:00,28.4,15.5,29.89,WNW,282,5.0,9.0,58,0.00,,OVC003,0.00,VWS V14.01,2013-04-01 12:09:00,
2013-04-01 08:10:00,28.4,15.5,29.89,WNW,292,6.0,9.0,58,0.00,,OVC003,0.00,VWS V14.01,2013-04-01 12:10:00,
2013-04-01 08:11:00,28.4,15.5,29.89,SSW,210,7.0,10.0,58,0.00,,OVC003,0.00,VWS V14.01,2013-04-01 12:11:00,
2013-04-01 08:12:00,28.4,15.5,29.89,WNW,295,5.0,10.0,58,0.00,,OVC003,0.00,VWS V14.01,2013-04-01 12:12:00,
2013-04-01 08:13:00,26.5,16.7,29.87,WNW,282,3.0,4.0,66,0.00,,OVC003,0.00,VWS V14.01,2013-04-01 12:13:00,
2013-04-01 08:14:00,28.4,15.5,29.89,West,274,2.0,10.0,58,0.00,,OVC003,0.00,VWS V14.01,2013-04-01 12:14:00,
2013-04-01 08:15:00,28.4,15.5,29.89,West,274,4.0,10.0,58,0.00,,OVC003,0.00,VWS V14.01,2013-04-01 12:15:00,
2013-04-01 08:16:00,28.5,15.6,29.89,NW,304,4.0,5.0,58,0.00,,OVC003,0.00,VWS V14.01,2013-04-01 12:16:00,
2013-04-01 08:17:00,28.5,15.6,29.89,ENE,59,3.0,5.0,58,0.00,,OVC003,0.00,VWS V14.01,2013-04-01 12:17:00,
2013-04-01 08:18:00,28.6,15.7,29.89,NE,49,2.0,5.0,58,0.00,,OVC003,0.00,VWS V14.01,2013-04-01 12:18:00,
2013-04-01 08:20:00,28.6,16.1,29.89,ESE,113,4.0,5.0,59,0.00,,OVC003,0.00,VWS V14.01,2013-04-01 12:20:00,
2013-04-01 08:21:00,28.7,15.8,29.89,ESE,113,4.0,4.0,58,0.00,,OVC003,0.00,VWS V14.01,2013-04-01 12:21:00,
2013-04-01 08:22:00,28.8,15.9,29.89,NNW,345,4.0,4.0,58,0.00,,OVC003,0.00,VWS V14.01,2013-04-01 12:22:00,
2013-04-01 08:23:00,28.8,15.9,29.89,West,263,3.0,6.0,58,0.00,,OVC003,0.00,VWS V14.01,2013-04-01 12:23:00,
2013-04-01 08:24:00,28.8,15.5,29.89,NW,317,4.0,6.0,57,0.00,,OVC003,0.00,VWS V14.01,2013-04-01 12:24:00,
2013-04-01 08:25:00,28.8,15.5,29.89,North,349,7.0,7.0,57,0.00,,OVC003,0.00,VWS V14.01,2013-04-01 12:25:00,
2013-04-01 08:26:00,28.8,15.5,29.89,ENE,70,4.0,7.0,57,0.00,,OVC003,0.00,VWS V14.01,2013-04-01 12:26:00,
2013-04-01 08:27:00,28.8,15.5,29.89,NW,312,5.0,7.0,57,0.00,,OVC003,0.00,VWS V14.01,2013-04-01 12:27:00,
2013-04-01 08:28:00,28.8,15.5,29.89,NNW,335,5.0,7.0,57,0.00,,OVC003,0.00,VWS V14.01,2013-04-01 12:28:00,
2013-04-01 08:29:00,28.8,15.1,29.89,SSE,162,2.0,7.0,56,0.00,,OVC003,0.00,VWS V14.01,2013-04-01 12:29:00,
2013-04-01 08:30:00,28.8,15.1,29.89,WNW,298,7.0,7.0,56,0.00,,OVC003,0.00,VWS V14.01,2013-04-01 12:30:00,
2013-04-01 08:31:00,28.7,15.0,29.89,SW,233,4.0,5.0,56,0.00,,OVC003,0.00,VWS V14.01,2013-04-01 12:31:00,
2013-04-01 08:32:00,28.7,15.4,29.89,West,274,9.0,11.0,57,0.00,,OVC003,0.00,VWS V14.01,2013-04-01 12:32:00,
2013-04-01 08:33:00,28.7,15.4,29.89,SSW,197,8.0,11.0,57,0.00,,OVC003,0.00,VWS V14.01,2013-04-01 12:33:00,
2013-04-01 08:34:00,28.7,15.4,29.89,NNW,344,4.0,11.0,57,0.00,,OVC003,0.00,VWS V14.01,2013-04-01 12:34:00,
2013-04-01 08:35:00,28.6,15.3,29.89,North,6,5.0,11.0,57,0.00,,OVC003,0.00,VWS V14.01,2013-04-01 12:35:00,
2013-04-01 08:36:00,28.6,15.3,29.89,West,276,4.0,5.0,57,0.00,,OVC003,0.00,VWS V14.01,2013-04-01 12:36:00,
2013-04-01 08:37:00,28.5,14.8,29.89,NW,307,4.0,7.0,56,0.00,,OVC003,0.00,VWS V14.01,2013-04-01 12:37:00,
2013-04-01 08:38:00,28.5,15.2,29.89,WSW,238,6.0,7.0,57,0.00,,OVC003,0.00,VWS V14.01,2013-04-01 12:38:00,
2013-04-01 08:39:00,28.5,15.2,29.89,NNE,23,4.0,7.0,57,0.00,,OVC003,0.00,VWS V14.01,2013-04-01 12:39:00,
2013-04-01 08:40:00,28.5,15.2,29.89,NW,312,2.0,7.0,57,0.00,,OVC003,0.00,VWS V14.01,2013-04-01 12:40:00,
2013-04-01 08:41:00,28.6,15.3,29.89,NW,322,4.0,6.0,57,0.00,,OVC003,0.00,VWS V14.01,2013-04-01 12:41:00,
2013-04-01 08:42:00,28.6,14.9,29.89,SSW,207,3.0,6.0,56,0.00,,OVC003,0.00,VWS V14.01,2013-04-01 12:42:00,
2013-04-01 08:43:00,28.6,14.9,29.89,SW,234,3.0,6.0,56,0.00,,OVC003,0.00,VWS V14.01,2013-04-01 12:43:00,
2013-04-01 08:44:00,28.6,14.9,29.90,NNW,334,6.0,6.0,56,0.00,,OVC003,0.00,VWS V14.01,2013-04-01 12:44:00,
2013-04-01 08:45:00,28.7,15.0,29.90,SW,218,4.0,6.0,56,0.00,,OVC003,0.00,VWS V14.01,2013-04-01 12:45:00,
2013-04-01 08:46:00,28.7,15.0,29.90,South,190,4.0,7.0,56,0.00,,OVC003,0.00,VWS V14.01,2013-04-01 12:46:00,
2013-04-01 08:47:00,28.7,14.6,29.90,NNW,341,6.0,7.0,55,0.00,,OVC003,0.00,VWS V14.01,2013-04-01 12:47:00,
2013-04-01 08:48:00,28.7,14.6,29.90,SW,226,4.0,7.0,55,0.00,,OVC003,0.00,VWS V14.01,2013-04-01 12:48:00,
2013-04-01 08:49:00,28.8,15.1,29.90,SW,224,5.0,7.0,56,0.00,,OVC003,0.00,VWS V14.01,2013-04-01 12:49:00,
2013-04-01 08:50:00,28.8,15.1,29.90,WSW,258,2.0,7.0,56,0.00,,OVC003,0.00,VWS V14.01,2013-04-01 12:50:00,
2013-04-01 08:51:00,28.8,14.7,29.90,WSW,240,4.0,4.0,55,0.00,,OVC003,0.00,VWS V14.01,2013-04-01 12:51:00,
2013-04-01 08:52:00,28.9,14.8,29.90,NNE,26,2.0,4.0,55,0.00,,OVC003,0.00,VWS V14.01,2013-04-01 12:52:00,
2013-04-01 08:53:00,28.9,14.4,29.90,NNE,31,6.0,10.0,54,0.00,,OVC003,0.00,VWS V14.01,2013-04-01 12:53:00,
2013-04-01 08:54:00,28.9,13.9,29.90,WNW,287,3.0,10.0,53,0.00,,OVC003,0.00,VWS V14.01,2013-04-01 12:54:00,
2013-04-01 08:55:00,28.9,13.9,29.90,WNW,288,2.0,10.0,53,0.00,,OVC003,0.00,VWS V14.01,2013-04-01 12:55:00,
2013-04-01 08:56:00,29.0,14.0,29.90,West,271,3.0,7.0,53,0.00,,OVC003,0.00,VWS V14.01,2013-04-01 12:56:00,
2013-04-01 08:57:00,29.0,14.4,29.90,West,280,2.0,7.0,54,0.00,,OVC003,0.00,VWS V14.01,2013-04-01 12:57:00,
2013-04-01 08:58:00,29.0,14.0,29.90,North,3,6.0,7.0,53,0.00,,OVC003,0.00,VWS V14.01,2013-04-01 12:58:00,
2013-04-01 08:59:00,29.1,14.5,29.90,North,357,6.0,7.0,54,0.00,,OVC003,0.00,VWS V14.01,2013-04-01 12:59:00,
2013-04-01 09:00:00,29.2,14.2,29.90,NNW,341,6.0,6.0,53,0.00,,OVC003,0.00,VWS V14.01,2013-04-01 13:00:00,
2013-04-01 09:01:00,29.2,14.2,29.90,North,353,4.0,6.0,53,0.00,,OVC003,0.00,VWS V14.01,2013-04-01 13:01:00,
2013-04-01 09:02:00,29.3,14.7,29.90,NNW,347,2.0,6.0,54,0.00,,OVC003,0.00,VWS V14.01,2013-04-01 13:02:00,
2013-04-01 09:03:00,29.4,14.8,29.90,NW,322,3.0,6.0,54,0.00,,OVC003,0.00,VWS V14.01,2013-04-01 13:03:00,
2013-04-01 09:04:00,29.5,14.9,29.90,ESE,105,3.0,6.0,54,0.00,,OVC003,0.00,VWS V14.01,2013-04-01 13:04:00,
2013-04-01 09:05:00,29.5,14.9,29.90,NW,306,6.0,6.0,54,0.00,,OVC003,0.00,VWS V14.01,2013-04-01 13:05:00,
2013-04-01 09:06:00,29.6,15.0,29.90,South,178,3.0,4.0,54,0.00,,OVC003,0.00,VWS V14.01,2013-04-01 13:06:00,
2013-04-01 09:07:00,29.7,14.7,29.90,SW,234,3.0,4.0,53,0.00,,OVC003,0.00,VWS V14.01,2013-04-01 13:07:00,
2013-04-01 09:08:00,29.8,14.8,29.90,NNE,12,3.0,4.0,53,0.00,,OVC003,0.00,VWS V14.01,2013-04-01 13:08:00,
2013-04-01 09:09:00,29.9,14.9,29.90,ESE,121,3.0,4.0,53,0.00,,OVC003,0.00,VWS V14.01,2013-04-01 13:09:00,
2013-04-01 09:10:00,30.0,15.0,29.90,ESE,121,2.0,4.0,53,0.00,,OVC003,0.00,VWS V14.01,2013-04-01 13:10:00,
2013-04-01 09:11:00,30.1,15.1,29.90,SSW,203,7.0,7.0,53,0.00,,OVC003,0.00,VWS V14.01,2013-04-01 13:11:00,
2013-04-01 09:12:00,30.2,15.1,29.90,North,359,9.0,9.0,53,0.00,,OVC003,0.00,VWS V14.01,2013-04-01 13:12:00,
2013-04-01 09:13:00,30.3,14.8,29.90,East,86,3.0,7.0,52,0.00,,OVC003,0.00,VWS V14.01,2013-04-01 13:13:00,
2013-04-01 09:14:00,30.4,14.9,29.90,ENE,62,11.0,11.0,52,0.00,,OVC003,0.00,VWS V14.01,2013-04-01 13:14:00,
2013-04-01 09:15:00,30.4,14.9,29.91,West,274,4.0,9.0,52,0.00,,OVC003,0.00,VWS V14.01,2013-04-01 13:15:00,
2013-04-01 09:17:00,30.5,15.4,29.91,NW,312,6.0,6.0,53,0.00,,OVC003,0.00,VWS V14.01,2013-04-01 13:17:00,
2013-04-01 09:18:00,30.4,15.3,29.91,SW,222,13.0,13.0,53,0.00,,OVC003,0.00,VWS V14.01,2013-04-01 13:18:00,
2013-04-01 09:19:00,30.4,15.3,29.91,WNW,283,5.0,11.0,53,0.00,,OVC003,0.00,VWS V14.01,2013-04-01 13:19:00,
2013-04-01 09:20:00,30.3,15.7,29.91,WSW,241,4.0,11.0,54,0.00,,OVC003,0.00,VWS V14.01,2013-04-01 13:20:00,
2013-04-01 09:21:00,30.2,15.6,29.91,South,190,9.0,9.0,54,0.00,,OVC003,0.00,VWS V14.01,2013-04-01 13:21:00,
2013-04-01 09:22:00,30.1,15.1,29.91,West,278,4.0,7.0,53,0.00,,OVC003,0.00,VWS V14.01,2013-04-01 13:22:00,
2013-04-01 09:23:00,29.9,15.3,29.91,NW,312,3.0,8.0,54,0.00,,OVC003,0.00,VWS V14.01,2013-04-01 13:23:00,
2013-04-01 09:24:00,29.8,15.2,29.91,WNW,303,4.0,8.0,54,0.00,,OVC003,0.00,VWS V14.01,2013-04-01 13:24:00,
2013-04-01 09:25:00,29.8,15.2,29.91,SSW,204,3.0,3.0,54,0.00,,OVC003,0.00,VWS V14.01,2013-04-01 13:25:00,
2013-04-01 09:26:00,29.6,15.0,29.91,WSW,247,2.0,4.0,54,0.00,,OVC003,0.00,VWS V14.01,2013-04-01 13:26:00,
2013-04-01 09:27:00,29.6,15.0,29.91,NW,312,7.0,7.0,54,0.00,,OVC003,0.00,VWS V14.01,2013-04-01 13:27:00,
2013-04-01 09:28:00,29.6,15.0,29.91,SSE,157,4.0,5.0,54,0.00,,OVC003,0.00,VWS V14.01,2013-04-01 13:28:00,
2013-04-01 09:29:00,29.6,15.4,29.91,NNW,346,2.0,5.0,55,0.00,,OVC003,0.00,VWS V14.01,2013-04-01 13:29:00,
2013-04-01 09:30:00,29.7,15.5,29.91,North,351,4.0,5.0,55,0.00,,OVC003,0.00,VWS V14.01,2013-04-01 13:30:00,
2013-04-01 09:31:00,29.7,15.5,29.91,North,8,5.0,6.0,55,0.00,,OVC003,0.00,VWS V14.01,2013-04-01 13:31:00,
2013-04-01 09:32:00,29.7,15.1,29.91,WSW,238,5.0,6.0,54,0.00,,OVC003,0.00,VWS V14.01,2013-04-01 13:32:00,
2013-04-01 09:33:00,29.7,15.1,29.91,NNW,341,4.0,6.0,54,0.00,,OVC003,0.00,VWS V14.01,2013-04-01 13:33:00,
2013-04-01 09:34:00,29.7,15.1,29.91,SSW,201,4.0,6.0,54,0.00,,OVC003,0.00,VWS V14.01,2013-04-01 13:34:00,
2013-04-01 09:35:00,29.8,15.2,29.91,WSW,255,6.0,6.0,54,0.00,,OVC003,0.00,VWS V14.01,2013-04-01 13:35:00,
2013-04-01 09:36:00,29.8,15.2,29.91,WNW,299,3.0,4.0,54,0.00,,OVC003,0.00,VWS V14.01,2013-04-01 13:36:00,
2013-04-01 09:37:00,29.9,14.9,29.91,NW,317,7.0,9.0,53,0.00,,OVC003,0.00,VWS V14.01,2013-04-01 13:37:00,
2013-04-01 09:38:00,29.9,14.9,29.91,North,3,8.0,9.0,53,0.00,,OVC003,0.00,VWS V14.01,2013-04-01 13:38:00,
2013-04-01 09:39:00,29.9,14.4,29.91,NW,312,4.0,9.0,52,0.00,,OVC003,0.00,VWS V14.01,2013-04-01 13:39:00,
2013-04-01 09:40:00,29.9,14.4,29.91,NW,322,3.0,9.0,52,0.00,,OVC003,0.00,VWS V14.01,2013-04-01 13:40:00,
2013-04-01 09:41:00,29.9,14.4,29.91,NW,322,2.0,3.0,52,0.00,,OVC003,0.00,VWS V14.01,2013-04-01 13:41:00,
2013-04-01 09:42:00,30.0,15.0,29.91,NNW,339,2.0,3.0,53,0.00,,OVC003,0.00,VWS V14.01,2013-04-01 13:42:00,
2013-04-01 09:43:00,30.1,15.1,29.91,West,279,6.0,6.0,53,0.00,,OVC003,0.00,VWS V14.01,2013-04-01 13:43:00,
2013-04-01 09:44:00,30.2,15.1,29.91,East,95,7.0,7.0,53,0.00,,OVC003,0.00,VWS V14.01,2013-04-01 13:44:00,
2013-04-01 09:45:00,30.3,15.2,29.91,NNE,23,6.0,6.0,53,0.00,,OVC003,0.00,VWS V14.01,2013-04-01 13:45:00,
2013-04-01 09:46:00,30.4,14.9,29.91,WSW,256,7.0,9.0,52,0.00,,OVC003,0.00,VWS V14.01,2013-04-01 13:46:00,
2013-04-01 09:47:00,30.5,15.0,29.91,NE,37,4.0,13.0,52,0.00,,OVC003,0.00,VWS V14.01,2013-04-01 13:47:00,
2013-04-01 09:48:00,30.5,14.5,29.91,SW,229,10.0,13.0,51,0.00,,OVC003,0.00,VWS V14.01,2013-04-01 13:48:00,
2013-04-01 09:49:00,30.5,15.0,29.91,WSW,253,3.0,13.0,52,0.00,,OVC003,0.00,VWS V14.01,2013-04-01 13:49:00,
2013-04-01 09:50:00,30.5,15.0,29.91,WNW,301,8.0,13.0,52,0.00,,OVC003,0.00,VWS V14.01,2013-04-01 13:50:00,
2013-04-01 09:51:00,30.6,14.6,29.91,WSW,258,4.0,6.0,51,0.00,,OVC003,0.00,VWS V14.01,2013-04-01 13:51:00,
2013-04-01 09:52:00,30.6,14.6,29.91,WNW,299,5.0,6.0,51,0.00,,OVC003,0.00,VWS V14.01,2013-04-01 13:52:00,
2013-04-01 09:53:00,30.6,14.6,29.91,NW,317,2.0,6.0,51,0.00,,OVC003,0.00,VWS V14.01,2013-04-01 13:53:00,
2013-04-01 09:54:00,30.6,15.1,29.91,NNE,26,2.0,6.0,52,0.00,,OVC003,0.00,VWS V14.01,2013-04-01 13:54:00,
2013-04-01 09:55:00,30.7,15.6,29.91,SW,230,7.0,10.0,53,0.00,,OVC003,0.00,VWS V14.01,2013-04-01 13:55:00,
2013-04-01 09:56:00,30.8,15.7,29.91,SW,225,4.0,5.0,53,0.00,,OVC003,0.00,VWS V14.01,2013-04-01 13:56:00,
2013-04-01 09:57:00,30.9,15.4,29.91,West,277,2.0,5.0,52,0.00,,OVC003,0.00,VWS V14.01,2013-04-01 13:57:00,
2013-04-01 09:58:00,31.0,15.9,29.91,NNW,333,4.0,5.0,53,0.00,,OVC003,0.00,VWS V14.01,2013-04-01 13:58:00,
2013-04-01 09:59:00,31.0,15.9,29.92,WSW,258,8.0,10.0,53,0.00,,OVC003,0.00,VWS V14.01,2013-04-01 13:59:00,
2013-04-01 10:00:00,30.9,15.4,29.92,SW,236,12.0,12.0,52,0.00,,OVC003,0.00,VWS V14.01,2013-04-01 14:00:00,
2013-04-01 10:01:00,30.7,15.6,29.92,WSW,255,3.0,10.0,53,0.00,,OVC003,0.00,VWS V14.01,2013-04-01 14:01:00,
2013-04-01 10:02:00,30.5,15.4,29.92,SW,230,6.0,10.0,53,0.00,,OVC003,0.00,VWS V14.01,2013-04-01 14:02:00,
2013-04-01 10:03:00,30.5,15.9,29.92,SSW,203,9.0,10.0,54,0.00,,OVC003,0.00,VWS V14.01,2013-04-01 14:03:00,
2013-04-01 10:04:00,30.3,15.7,29.92,SSW,203,4.0,10.0,54,0.00,,OVC003,0.00,VWS V14.01,2013-04-01 14:04:00,
2013-04-01 10:05:00,30.3,16.1,29.92,SSW,203,3.0,10.0,55,0.00,,OVC003,0.00,VWS V14.01,2013-04-01 14:05:00,
2013-04-01 10:06:00,30.2,16.0,29.92,WSW,248,6.0,7.0,55,0.00,,OVC003,0.00,VWS V14.01,2013-04-01 14:06:00,
2013-04-01 10:07:00,30.1,15.9,29.92,WNW,282,7.0,7.0,55,0.00,,OVC003,0.00,VWS V14.01,2013-04-01 14:07:00,
2013-04-01 10:08:00,30.0,15.8,29.92,SSW,203,6.0,7.0,55,0.00,,OVC003,0.00,VWS V14.01,2013-04-01 14:08:00,
2013-04-01 10:09:00,29.9,15.7,29.92,NW,305,6.0,7.0,55,0.00,,OVC003,0.00,VWS V14.01,2013-04-01 14:09:00,
2013-04-01 10:10:00,29.9,16.1,29.92,NNW,346,5.0,7.0,56,0.00,,OVC003,0.00,VWS V14.01,2013-04-01 14:10:00,
2013-04-01 10:11:00,29.9,15.7,29.92,WNW,282,8.0,9.0,55,0.00,,OVC003,0.00,VWS V14.01,2013-04-01 14:11:00,
2013-04-01 10:12:00,29.8,15.6,29.92,West,268,8.0,9.0,55,0.00,,OVC003,0.00,VWS V14.01,2013-04-01 14:12:00,
2013-04-01 10:13:00,29.8,15.2,29.92,SW,224,12.0,12.0,54,0.00,,OVC003,0.00,VWS V14.01,2013-04-01 14:13:00,
2013-04-01 10:14:00,29.8,15.2,29.92,NW,305,7.0,12.0,54,0.00,,OVC003,0.00,VWS V14.01,2013-04-01 14:14:00,
2013-04-01 10:15:00,29.8,14.8,29.92,WNW,294,7.0,12.0,53,0.00,,OVC003,0.00,VWS V14.01,2013-04-01 14:15:00,
2013-04-01 10:16:00,29.8,14.8,29.92,WNW,302,4.0,8.0,53,0.00,,OVC003,0.00,VWS V14.01,2013-04-01 14:16:00,
2013-04-01 10:17:00,29.9,14.9,29.92,WNW,301,4.0,8.0,53,0.00,,OVC003,0.00,VWS V14.01,2013-04-01 14:17:00,
2013-04-01 10:18:00,29.9,14.9,29.92,East,85,4.0,9.0,53,0.00,,OVC003,0.00,VWS V14.01,2013-04-01 14:18:00,
2013-04-01 10:19:00,29.9,14.9,29.92,WSW,249,2.0,9.0,53,0.00,,OVC003,0.00,VWS V14.01,2013-04-01 14:19:00,
2013-04-01 10:20:00,29.9,14.9,29.92,SW,219,6.0,9.0,53,0.00,,OVC003,0.00,VWS V14.01,2013-04-01 14:20:00,
2013-04-01 10:21:00,29.9,14.9,29.92,WNW,302,3.0,9.0,53,0.00,,OVC003,0.00,VWS V14.01,2013-04-01 14:21:00,
2013-04-01 10:22:00,29.9,14.9,29.92,South,186,2.0,9.0,53,0.00,,OVC003,0.00,VWS V14.01,2013-04-01 14:22:00,
2013-04-01 10:23:00,29.9,14.9,29.92,West,275,5.0,9.0,53,0.00,,OVC003,0.00,VWS V14.01,2013-04-01 14:23:00,
2013-04-01 10:24:00,30.0,14.5,29.92,SSE,157,4.0,9.0,52,0.00,,OVC003,0.00,VWS V14.01,2013-04-01 14:24:00,
2013-04-01 10:25:00,30.0,14.5,29.92,WSW,249,6.0,9.0,52,0.00,,OVC003,0.00,VWS V14.01,2013-04-01 14:25:00,
2013-04-01 10:27:00,30.1,14.2,29.92,NNW,335,5.0,5.0,51,0.00,,OVC003,0.00,VWS V14.01,2013-04-01 14:27:00,
2013-04-01 10:29:00,30.1,14.2,29.93,NW,317,5.0,7.0,51,0.00,,OVC003,0.00,VWS V14.01,2013-04-01 14:29:00,
2013-04-01 10:30:00,30.1,14.2,29.93,WNW,292,8.0,10.0,51,0.00,,OVC003,0.00,VWS V14.01,2013-04-01 14:30:00,
2013-04-01 10:31:00,30.1,14.2,29.93,WNW,296,4.0,7.0,51,0.00,,OVC003,0.00,VWS V14.01,2013-04-01 14:31:00,
2013-04-01 10:32:00,30.0,14.1,29.93,WSW,241,7.0,7.0,51,0.00,,OVC003,0.00,VWS V14.01,2013-04-01 14:32:00,
2013-04-01 10:33:00,30.0,14.1,29.93,SW,236,3.0,7.0,51,0.00,,OVC003,0.00,VWS V14.01,2013-04-01 14:33:00,
2013-04-01 10:34:00,30.0,14.1,29.93,WNW,286,5.0,7.0,51,0.00,,OVC003,0.00,VWS V14.01,2013-04-01 14:34:00,
2013-04-01 10:35:00,30.0,14.1,29.93,WNW,282,7.0,11.0,51,0.00,,OVC003,0.00,VWS V14.01,2013-04-01 14:35:00,
2013-04-01 10:36:00,30.0,13.6,29.93,West,261,6.0,9.0,50,0.00,,OVC003,0.00,VWS V14.01,2013-04-01 14:36:00,
2013-04-01 10:37:00,30.0,13.2,29.93,SW,225,4.0,9.0,49,0.00,,OVC003,0.00,VWS V14.01,2013-04-01 14:37:00,
2013-04-01 10:38:00,30.0,13.2,29.93,NW,317,4.0,9.0,49,0.00,,OVC003,0.00,VWS V14.01,2013-04-01 14:38:00,
2013-04-01 10:39:00,30.1,13.3,29.93,WNW,299,5.0,9.0,49,0.00,,OVC003,0.00,VWS V14.01,2013-04-01 14:39:00,
2013-04-01 10:40:00,30.1,13.3,29.93,WSW,246,6.0,9.0,49,0.00,,OVC003,0.00,VWS V14.01,2013-04-01 14:40:00,
2013-04-01 10:41:00,30.2,13.4,29.93,SW,228,9.0,9.0,49,0.00,,OVC003,0.00,VWS V14.01,2013-04-01 14:41:00,
2013-04-01 10:42:00,30.3,13.9,29.93,SW,233,8.0,8.0,50,0.00,,OVC003,0.00,VWS V14.01,2013-04-01 14:42:00,
2013-04-01 10:43:00,30.3,13.9,29.93,NW,312,5.0,7.0,50,0.00,,OVC003,0.00,VWS V14.01,2013-04-01 14:43:00,
2013-04-01 10:44:00,30.5,14.1,29.93,SW,234,5.0,7.0,50,0.00,,OVC003,0.00,VWS V14.01,2013-04-01 14:44:00,
2013-04-01 10:45:00,30.5,14.1,29.93,WNW,286,8.0,8.0,50,0.00,,OVC003,0.00,VWS V14.01,2013-04-01 14:45:00,
2013-04-01 10:46:00,30.6,14.2,29.93,WNW,294,2.0,7.0,50,0.00,,OVC003,0.00,VWS V14.01,2013-04-01 14:46:00,
2013-04-01 10:47:00,30.6,14.2,29.93,NNE,17,3.0,7.0,50,0.00,,OVC003,0.00,VWS V14.01,2013-04-01 14:47:00,
2013-04-01 10:48:00,30.7,13.8,29.93,SE,130,2.0,7.0,49,0.00,,OVC003,0.00,VWS V14.01,2013-04-01 14:48:00,
2013-04-01 10:50:00,30.8,14.4,29.93,NW,307,7.0,7.0,50,0.00,,OVC003,0.00,VWS V14.01,2013-04-01 14:50:00,
2013-04-01 10:51:00,30.8,14.4,29.93,NNE,17,5.0,5.0,50,0.00,,OVC003,0.00,VWS V14.01,2013-04-01 14:51:00,
2013-04-01 10:52:00,30.8,14.4,29.93,ESE,103,4.0,6.0,50,0.00,,OVC003,0.00,VWS V14.01,2013-04-01 14:52:00,
2013-04-01 10:53:00,30.8,14.4,29.93,ESE,103,2.0,6.0,50,0.00,,OVC003,0.00,VWS V14.01,2013-04-01 14:53:00,
2013-04-01 10:54:00,30.9,14.5,29.93,East,97,2.0,6.0,50,0.00,,OVC003,0.00,VWS V14.01,2013-04-01 14:54:00,
2013-04-01 10:55:00,30.9,14.5,29.93,SE,146,3.0,6.0,50,0.00,,OVC003,0.00,VWS V14.01,2013-04-01 14:55:00,
2013-04-01 10:56:00,30.8,13.9,29.93,NW,322,5.0,6.0,49,0.00,,OVC003,0.00,VWS V14.01,2013-04-01 14:56:00,
2013-04-01 10:57:00,30.8,13.9,29.93,NW,322,4.0,6.0,49,0.00,,OVC003,0.00,VWS V14.01,2013-04-01 14:57:00,
2013-04-01 10:58:00,30.7,14.3,29.93,NW,317,2.0,6.0,50,0.00,,OVC003,0.00,VWS V14.01,2013-04-01 14:58:00,
2013-04-01 10:59:00,30.8,14.8,29.93,NNE,21,5.0,6.0,51,0.00,,OVC003,0.00,VWS V14.01,2013-04-01 14:59:00,
2013-04-01 11:00:00,30.8,14.4,29.94,NNE,21,2.0,6.0,50,0.00,,OVC003,0.00,VWS V14.01,2013-04-01 15:00:00,
2013-04-01 11:01:00,30.8,14.4,29.94,NNE,21,2.0,2.0,50,0.00,,OVC003,0.00,VWS V14.01,2013-04-01 15:01:00,
2013-04-01 11:02:00,30.9,14.5,29.94,SW,230,4.0,4.0,50,0.00,,OVC003,0.00,VWS V14.01,2013-04-01 15:02:00,
2013-04-01 11:03:00,31.0,15.0,29.94,North,351,2.0,5.0,51,0.00,,OVC003,0.00,VWS V14.01,2013-04-01 15:03:00,
2013-04-01 11:04:00,31.0,14.6,29.94,West,276,4.0,5.0,50,0.00,,OVC003,0.00,VWS V14.01,2013-04-01 15:04:00,
2013-04-01 11:05:00,31.0,14.6,29.94,West,276,3.0,5.0,50,0.00,,OVC003,0.00,VWS V14.01,2013-04-01 15:05:00,
2013-04-01 11:06:00,31.0,15.0,29.94,WNW,297,5.0,5.0,51,0.00,,OVC003,0.00,VWS V14.01,2013-04-01 15:06:00,
2013-04-01 11:07:00,31.0,14.6,29.94,WNW,287,5.0,5.0,50,0.00,,OVC003,0.00,VWS V14.01,2013-04-01 15:07:00,
2013-04-01 11:08:00,31.0,14.1,29.94,WSW,248,13.0,13.0,49,0.00,,OVC003,0.00,VWS V14.01,2013-04-01 15:08:00,
2013-04-01 11:09:00,31.0,14.1,29.94,WNW,291,3.0,11.0,49,0.00,,OVC003,0.00,VWS V14.01,2013-04-01 15:09:00,
2013-04-01 11:10:00,31.0,14.6,29.94,SSE,167,7.0,11.0,50,0.00,,OVC003,0.00,VWS V14.01,2013-04-01 15:10:00,
2013-04-01 11:11:00,31.0,14.1,29.94,North,7,4.0,5.0,49,0.00,,OVC003,0.00,VWS V14.01,2013-04-01 15:11:00,
2013-04-01 11:12:00,31.0,14.1,29.94,SE,133,5.0,5.0,49,0.00,,OVC003,0.00,VWS V14.01,2013-04-01 15:12:00,
2013-04-01 11:13:00,31.0,14.1,29.94,NW,317,5.0,5.0,49,0.00,,OVC003,0.00,VWS V14.01,2013-04-01 15:13:00,
2013-04-01 11:14:00,31.1,14.2,29.94,South,189,5.0,5.0,49,0.00,,OVC003,0.00,VWS V14.01,2013-04-01 15:14:00,
2013-04-01 11:15:00,31.1,13.7,29.94,WSW,237,4.0,7.0,48,0.00,,OVC003,0.00,VWS V14.01,2013-04-01 15:15:00,
2013-04-01 11:16:00,31.1,13.7,29.94,NE,35,9.0,9.0,48,0.00,,OVC003,0.00,VWS V14.01,2013-04-01 15:16:00,
2013-04-01 11:17:00,31.1,14.2,29.94,West,262,7.0,7.0,49,0.00,,OVC003,0.00,VWS V14.01,2013-04-01 15:17:00,
2013-04-01 11:18:00,31.1,13.7,29.94,WNW,282,4.0,7.0,48,0.00,,OVC003,0.00,VWS V14.01,2013-04-01 15:18:00,
2013-04-01 11:19:00,31.1,13.7,29.94,WNW,282,3.0,7.0,48,0.00,,OVC003,0.00,VWS V14.01,2013-04-01 15:19:00,
2013-04-01 11:20:00,31.2,13.8,29.94,WNW,282,2.0,7.0,48,0.00,,OVC003,0.00,VWS V14.01,2013-04-01 15:20:00,
2013-04-01 11:21:00,31.3,14.4,29.94,WSW,247,6.0,10.0,49,0.00,,OVC003,0.00,VWS V14.01,2013-04-01 15:21:00,
2013-04-01 11:22:00,31.3,14.4,29.94,NW,307,4.0,10.0,49,0.00,,OVC003,0.00,VWS V14.01,2013-04-01 15:22:00,
2013-04-01 11:23:00,31.3,13.9,29.94,WNW,287,4.0,10.0,48,0.00,,OVC003,0.00,VWS V14.01,2013-04-01 15:23:00,
2013-04-01 11:24:00,31.2,13.8,29.94,West,272,5.0,10.0,48,0.00,,OVC003,0.00,VWS V14.01,2013-04-01 15:24:00,
2013-04-01 11:25:00,31.2,13.8,29.94,South,191,4.0,10.0,48,0.00,,OVC003,0.00,VWS V14.01,2013-04-01 15:25:00,
2013-04-01 11:26:00,31.1,13.7,29.94,WSW,256,7.0,7.0,48,0.00,,OVC003,0.00,VWS V14.01,2013-04-01 15:26:00,
2013-04-01 11:27:00,31.1,14.2,29.94,South,175,4.0,5.0,49,0.00,,OVC003,0.00,VWS V14.01,2013-04-01 15:27:00,
2013-04-01 11:28:00,31.1,14.2,29.94,South,175,2.0,5.0,49,0.00,,OVC003,0.00,VWS V14.01,2013-04-01 15:28:00,
2013-04-01 11:30:00,31.2,14.7,29.94,SW,230,5.0,5.0,50,0.00,,OVC003,0.00,VWS V14.01,2013-04-01 15:30:00,
2013-04-01 11:31:00,31.4,14.5,29.94,West,266,5.0,5.0,49,0.00,,OVC003,0.00,VWS V14.01,2013-04-01 15:31:00,
2013-04-01 11:32:00,30.1,14.6,29.92,SSW,199,4.0,5.0,52,0.00,,OVC003,0.00,VWS V14.01,2013-04-01 15:32:00,
2013-04-01 11:33:00,31.5,14.1,29.94,WNW,296,8.0,10.0,48,0.00,,OVC003,0.00,VWS V14.01,2013-04-01 15:33:00,
2013-04-01 11:35:00,31.4,14.0,29.94,NW,317,5.0,10.0,48,0.00,,OVC003,0.00,VWS V14.01,2013-04-01 15:35:00,
2013-04-01 11:36:00,31.3,14.4,29.94,WSW,257,3.0,4.0,49,0.00,,OVC003,0.00,VWS V14.01,2013-04-01 15:36:00,
2013-04-01 11:37:00,31.3,14.4,29.94,West,264,5.0,5.0,49,0.00,,OVC003,0.00,VWS V14.01,2013-04-01 15:37:00,
2013-04-01 11:38:00,31.3,14.4,29.94,North,8,3.0,5.0,49,0.00,,OVC003,0.00,VWS V14.01,2013-04-01 15:38:00,
2013-04-01 11:39:00,31.3,14.4,29.94,NNW,335,4.0,5.0,49,0.00,,OVC003,0.00,VWS V14.01,2013-04-01 15:39:00,
2013-04-01 11:40:00,31.2,14.3,29.94,South,184,5.0,5.0,49,0.00,,OVC003,0.00,VWS V14.01,2013-04-01 15:40:00,
2013-04-01 11:41:00,31.2,14.3,29.94,ENE,66,6.0,11.0,49,0.00,,OVC003,0.00,VWS V14.01,2013-04-01 15:41:00,
2013-04-01 11:42:00,31.2,14.7,29.94,West,273,8.0,11.0,50,0.00,,OVC003,0.00,VWS V14.01,2013-04-01 15:42:00,
2013-04-01 11:43:00,31.3,14.8,29.94,NNW,334,4.0,11.0,50,0.00,,OVC003,0.00,VWS V14.01,2013-04-01 15:43:00,
2013-04-01 11:44:00,31.4,14.5,29.95,WNW,285,4.0,11.0,49,0.00,,OVC003,0.00,VWS V14.01,2013-04-01 15:44:00,
2013-04-01 11:45:00,31.4,14.5,29.95,WSW,243,7.0,9.0,49,0.00,,OVC003,0.00,VWS V14.01,2013-04-01 15:45:00,
2013-04-01 11:46:00,31.5,14.6,29.95,SW,235,7.0,9.0,49,0.00,,OVC003,0.00,VWS V14.01,2013-04-01 15:46:00,
2013-04-01 11:47:00,31.5,15.0,29.95,NNW,329,8.0,9.0,50,0.00,,OVC003,0.00,VWS V14.01,2013-04-01 15:47:00,
2013-04-01 11:48:00,31.5,14.6,29.95,WNW,293,5.0,9.0,49,0.00,,OVC003,0.00,VWS V14.01,2013-04-01 15:48:00,
2013-04-01 11:49:00,31.5,14.6,29.95,SW,230,7.0,9.0,49,0.00,,OVC003,0.00,VWS V14.01,2013-04-01 15:49:00,
2013-04-01 11:50:00,31.6,14.6,29.95,WNW,301,12.0,12.0,49,0.00,,OVC003,0.00,VWS V14.01,2013-04-01 15:50:00,
2013-04-01 11:51:00,31.6,14.6,29.95,WSW,239,8.0,10.0,49,0.00,,OVC003,0.00,VWS V14.01,2013-04-01 15:51:00,
2013-04-01 11:52:00,31.6,14.2,29.95,SSW,195,6.0,11.0,48,0.00,,OVC003,0.00,VWS V14.01,2013-04-01 15:52:00,
2013-04-01 11:53:00,31.6,13.7,29.95,West,259,9.0,11.0,47,0.00,,OVC003,0.00,VWS V14.01,2013-04-01 15:53:00,
2013-04-01 11:54:00,31.7,14.3,29.95,NW,312,4.0,11.0,48,0.00,,OVC003,0.00,VWS V14.01,2013-04-01 15:54:00,
2013-04-01 11:55:00,31.7,14.3,29.95,NE,39,5.0,11.0,48,0.00,,OVC003,0.00,VWS V14.01,2013-04-01 15:55:00,
2013-04-01 11:56:00,31.9,14.0,29.95,SSE,159,4.0,8.0,47,0.00,,OVC003,0.00,VWS V14.01,2013-04-01 15:56:00,
2013-04-01 11:57:00,31.9,13.5,29.95,West,277,4.0,8.0,46,0.00,,OVC003,0.00,VWS V14.01,2013-04-01 15:57:00,
2013-04-01 11:58:00,31.8,12.9,29.95,West,260,10.0,10.0,45,0.00,,OVC003,0.00,VWS V14.01,2013-04-01 15:58:00,
2013-04-01 11:59:00,31.8,12.9,29.95,WNW,300,3.0,8.0,45,0.00,,OVC003,0.00,VWS V14.01,2013-04-01 15:59:00,
2013-04-01 12:00:00,31.7,12.8,29.95,East,91,3.0,8.0,45,0.00,,OVC003,0.00,VWS V14.01,2013-04-01 16:00:00,
2013-04-01 12:01:00,31.7,12.8,29.95,NW,317,6.0,9.0,45,0.00,,OVC003,0.00,VWS V14.01,2013-04-01 16:01:00,
2013-04-01 12:02:00,31.7,13.3,29.95,WSW,248,3.0,9.0,46,0.00,,OVC003,0.00,VWS V14.01,2013-04-01 16:02:00,
2013-04-01 12:03:00,31.6,13.2,29.95,WSW,252,4.0,9.0,46,0.00,,OVC003,0.00,VWS V14.01,2013-04-01 16:03:00,
2013-04-01 12:04:00,31.6,13.2,29.95,ENE,70,3.0,9.0,46,0.00,,OVC003,0.00,VWS V14.01,2013-04-01 16:04:00,
2013-04-01 12:05:00,31.6,13.2,29.95,WNW,301,4.0,9.0,46,0.00,,OVC003,0.00,VWS V14.01,2013-04-01 16:05:00,
2013-04-01 12:06:00,31.6,13.2,29.95,SSW,203,9.0,12.0,46,0.00,,OVC003,0.00,VWS V14.01,2013-04-01 16:06:00,
2013-04-01 12:07:00,31.7,12.8,29.95,NW,307,7.0,12.0,45,0.00,,OVC003,0.00,VWS V14.01,2013-04-01 16:07:00,
2013-04-01 12:08:00,31.6,12.7,29.95,SW,226,4.0,12.0,45,0.00,,OVC003,0.00,VWS V14.01,2013-04-01 16:08:00,
2013-04-01 12:10:00,31.6,12.7,29.95,North,349,6.0,12.0,45,0.00,,OVC003,0.00,VWS V14.01,2013-04-01 16:10:00,
2013-04-01 12:11:00,31.6,13.2,29.95,WSW,241,3.0,4.0,46,0.00,,OVC003,0.00,VWS V14.01,2013-04-01 16:11:00,
2013-04-01 12:12:00,31.6,13.2,29.95,SW,232,5.0,5.0,46,0.00,,OVC003,0.00,VWS V14.01,2013-04-01 16:12:00,
2013-04-01 12:13:00,31.6,12.7,29.95,WSW,251,6.0,9.0,45,0.00,,OVC003,0.00,VWS V14.01,2013-04-01 16:13:00,
2013-04-01 12:14:00,31.6,12.7,29.95,WNW,301,4.0,9.0,45,0.00,,OVC003,0.00,VWS V14.01,2013-04-01 16:14:00,
2013-04-01 12:15:00,31.5,12.6,29.95,WNW,287,8.0,12.0,45,0.00,,OVC003,0.00,VWS V14.01,2013-04-01 16:15:00,
2013-04-01 12:16:00,31.5,12.6,29.95,WNW,300,5.0,6.0,45,0.00,,OVC003,0.00,VWS V14.01,2013-04-01 16:16:00,
2013-04-01 12:17:00,31.4,12.5,29.95,SW,236,5.0,6.0,45,0.00,,OVC003,0.00,VWS V14.01,2013-04-01 16:17:00,
2013-04-01 12:18:00,31.5,12.6,29.95,West,263,3.0,8.0,45,0.00,,OVC003,0.00,VWS V14.01,2013-04-01 16:18:00,
2013-04-01 12:19:00,31.5,13.1,29.95,West,263,2.0,8.0,46,0.00,,OVC003,0.00,VWS V14.01,2013-04-01 16:19:00,
2013-04-01 12:20:00,31.5,13.1,29.95,NNE,20,4.0,8.0,46,0.00,,OVC003,0.00,VWS V14.01,2013-04-01 16:20:00,
2013-04-01 12:21:00,31.7,13.3,29.95,WNW,298,6.0,6.0,46,0.00,,OVC003,0.00,VWS V14.01,2013-04-01 16:21:00,
2013-04-01 12:22:00,31.8,13.4,29.95,SW,218,5.0,5.0,46,0.00,,OVC003,0.00,VWS V14.01,2013-04-01 16:22:00,
2013-04-01 12:23:00,31.9,12.5,29.95,West,276,3.0,5.0,44,0.00,,OVC003,0.00,VWS V14.01,2013-04-01 16:23:00,
2013-04-01 12:24:00,31.9,12.5,29.95,SW,229,7.0,7.0,44,0.00,,OVC003,0.00,VWS V14.01,2013-04-01 16:24:00,
2013-04-01 12:25:00,31.9,12.5,29.95,SW,228,7.0,7.0,44,0.00,,OVC003,0.00,VWS V14.01,2013-04-01 16:25:00,
2013-04-01 12:26:00,31.9,13.0,29.95,West,261,5.0,6.0,45,0.00,,OVC003,0.00,VWS V14.01,2013-04-01 16:26:00,
2013-04-01 12:27:00,31.9,13.0,29.95,NNW,346,7.0,9.0,45,0.00,,OVC003,0.00,VWS V14.01,2013-04-01 16:27:00,
2013-04-01 12:28:00,31.9,13.0,29.95,NNE,16,2.0,9.0,45,0.00,,OVC003,0.00,VWS V14.01,2013-04-01 16:28:00,
2013-04-01 12:29:00,32.0,12.6,29.95,North,353,11.0,11.0,44,0.00,,OVC003,0.00,VWS V14.01,2013-04-01 16:29:00,
2013-04-01 12:30:00,32.1,12.7,29.95,NW,312,12.0,15.0,44,0.00,,OVC003,0.00,VWS V14.01,2013-04-01 16:30:00,
2013-04-01 12:31:00,32.2,12.2,29.95,SW,224,6.0,13.0,43,0.00,,OVC003,0.00,VWS V14.01,2013-04-01 16:31:00,
2013-04-01 12:32:00,32.1,12.1,29.95,SW,231,4.0,13.0,43,0.00,,OVC003,0.00,VWS V14.01,2013-04-01 16:32:00,
2013-04-01 12:33:00,32.1,12.1,29.95,SW,217,8.0,13.0,43,0.00,,OVC003,0.00,VWS V14.01,2013-04-01 16:33:00,
2013-04-01 12:34:00,32.0,12.6,29.95,SSW,213,11.0,13.0,44,0.00,,OVC003,0.00,VWS V14.01,2013-04-01 16:34:00,
2013-04-01 12:35:00,32.0,12.6,29.95,SW,232,3.0,13.0,44,0.00,,OVC003,0.00,VWS V14.01,2013-04-01 16:35:00,
2013-04-01 12:36:00,31.9,12.5,29.95,West,278,2.0,5.0,44,0.00,,OVC003,0.00,VWS V14.01,2013-04-01 16:36:00,
2013-04-01 12:37:00,31.9,12.5,29.95,West,263,11.0,11.0,44,0.00,,OVC003,0.00,VWS V14.01,2013-04-01 16:37:00,
2013-04-01 12:38:00,31.9,12.0,29.95,SW,218,6.0,9.0,43,0.00,,OVC003,0.00,VWS V14.01,2013-04-01 16:38:00,
2013-04-01 12:39:00,31.9,12.0,29.95,South,190,9.0,10.0,43,0.00,,OVC003,0.00,VWS V14.01,2013-04-01 16:39:00,
2013-04-01 12:40:00,31.9,12.0,29.95,WNW,290,3.0,10.0,43,0.00,,OVC003,0.00,VWS V14.01,2013-04-01 16:40:00,
2013-04-01 12:41:00,32.2,12.2,29.95,WSW,244,12.0,17.0,43,0.00,,OVC003,0.00,VWS V14.01,2013-04-01 16:41:00,
2013-04-01 12:42:00,32.3,12.3,29.95,WSW,245,7.0,17.0,43,0.00,,OVC003,0.00,VWS V14.01,2013-04-01 16:42:00,
2013-04-01 12:43:00,32.3,11.8,29.95,SW,219,5.0,17.0,42,0.00,,OVC003,0.00,VWS V14.01,2013-04-01 16:43:00,
2013-04-01 12:44:00,32.4,12.4,29.95,WNW,284,8.0,17.0,43,0.00,,OVC003,0.00,VWS V14.01,2013-04-01 16:44:00,
2013-04-01 12:45:00,32.4,12.4,29.95,SSW,210,10.0,17.0,43,0.00,,OVC003,0.00,VWS V14.01,2013-04-01 16:45:00,
2013-04-01 12:46:00,32.4,11.9,29.95,NW,312,6.0,10.0,42,0.00,,OVC003,0.00,VWS V14.01,2013-04-01 16:46:00,
2013-04-01 12:47:00,32.4,12.4,29.95,NNW,328,6.0,10.0,43,0.00,,OVC003,0.00,VWS V14.01,2013-04-01 16:47:00,
2013-04-01 12:48:00,32.4,12.4,29.95,SSW,212,7.0,10.0,43,0.00,,OVC003,0.00,VWS V14.01,2013-04-01 16:48:00,
2013-04-01 12:50:00,32.4,12.4,29.95,WSW,257,4.0,10.0,43,0.00,,OVC003,0.00,VWS V14.01,2013-04-01 16:50:00,
2013-04-01 12:51:00,32.3,12.8,29.95,NNE,32,2.0,5.0,44,0.00,,OVC003,0.00,VWS V14.01,2013-04-01 16:51:00,
2013-04-01 12:52:00,32.3,12.8,29.95,WNW,293,5.0,5.0,44,0.00,,OVC003,0.00,VWS V14.01,2013-04-01 16:52:00,
2013-04-01 12:54:00,32.2,13.3,29.95,North,1,5.0,5.0,45,0.00,,OVC003,0.00,VWS V14.01,2013-04-01 16:54:00,
2013-04-01 12:55:00,32.1,13.2,29.95,WNW,302,6.0,10.0,45,0.00,,OVC003,0.00,VWS V14.01,2013-04-01 16:55:00,
2013-04-01 12:56:00,32.0,13.1,29.95,NNE,26,5.0,5.0,45,0.00,,OVC003,0.00,VWS V14.01,2013-04-01 16:56:00,
2013-04-01 12:57:00,32.0,13.6,29.95,North,354,5.0,6.0,46,0.00,,OVC003,0.00,VWS V14.01,2013-04-01 16:57:00,
2013-04-01 12:58:00,31.9,13.0,29.95,West,278,4.0,10.0,45,0.00,,OVC003,0.00,VWS V14.01,2013-04-01 16:58:00,
2013-04-01 12:59:00,31.9,13.0,29.95,WNW,302,2.0,10.0,45,0.00,,OVC003,0.00,VWS V14.01,2013-04-01 16:59:00,
2013-04-01 13:00:00,31.8,13.4,29.96,SE,141,3.0,10.0,46,0.00,,OVC003,0.00,VWS V14.01,2013-04-01 17:00:00,
2013-04-01 13:01:00,31.7,12.8,29.96,West,259,3.0,4.0,45,0.00,,OVC003,0.00,VWS V14.01,2013-04-01 17:01:00,
2013-04-01 13:02:00,31.7,12.8,29.96,ENE,76,3.0,5.0,45,0.00,,OVC003,0.00,VWS V14.01,2013-04-01 17:02:00,
2013-04-01 13:03:00,31.6,12.7,29.96,NW,306,5.0,5.0,45,0.00,,OVC003,0.00,VWS V14.01,2013-04-01 17:03:00,
2013-04-01 13:04:00,31.5,12.6,29.96,NNE,12,5.0,5.0,45,0.00,,OVC003,0.00,VWS V14.01,2013-04-01 17:04:00,
2013-04-01 13:05:00,31.5,12.6,29.96,WSW,248,6.0,6.0,45,0.00,,OVC003,0.00,VWS V14.01,2013-04-01 17:05:00,
2013-04-01 13:06:00,31.5,12.6,29.96,SW,219,8.0,8.0,45,0.00,,OVC003,0.00,VWS V14.01,2013-04-01 17:06:00,
2013-04-01 13:07:00,31.5,12.6,29.96,SW,230,8.0,8.0,45,0.00,,OVC003,0.00,VWS V14.01,2013-04-01 17:07:00,
2013-04-01 13:08:00,31.5,12.6,29.96,South,171,2.0,8.0,45,0.00,,OVC003,0.00,VWS V14.01,2013-04-01 17:08:00,
2013-04-01 13:09:00,31.5,13.1,29.96,WNW,301,7.0,8.0,46,0.00,,OVC003,0.00,VWS V14.01,2013-04-01 17:09:00,
2013-04-01 13:10:00,31.5,13.1,29.96,ENE,76,3.0,8.0,46,0.00,,OVC003,0.00,VWS V14.01,2013-04-01 17:10:00,
2013-04-01 13:11:00,31.6,12.7,29.96,ENE,66,2.0,3.0,45,0.00,,OVC003,0.00,VWS V14.01,2013-04-01 17:11:00,
2013-04-01 13:12:00,31.8,12.9,29.96,ESE,110,4.0,4.0,45,0.00,,OVC003,0.00,VWS V14.01,2013-04-01 17:12:00,
2013-04-01 13:13:00,31.9,13.0,29.96,NW,307,5.0,5.0,45,0.00,,OVC003,0.00,VWS V14.01,2013-04-01 17:13:00,
2013-04-01 13:14:00,32.0,13.6,29.96,ESE,107,5.0,9.0,46,0.00,,OVC003,0.00,VWS V14.01,2013-04-01 17:14:00,
2013-04-01 13:15:00,32.0,12.6,29.96,ESE,102,4.0,9.0,44,0.00,,OVC003,0.00,VWS V14.01,2013-04-01 17:15:00,
2013-04-01 13:16:00,32.1,12.7,29.96,SW,224,5.0,6.0,44,0.00,,OVC003,0.00,VWS V14.01,2013-04-01 17:16:00,
2013-04-01 13:17:00,32.1,12.7,29.96,SW,226,4.0,7.0,44,0.00,,OVC003,0.00,VWS V14.01,2013-04-01 17:17:00,
2013-04-01 13:18:00,32.1,12.7,29.96,SW,214,2.0,7.0,44,0.00,,OVC003,0.00,VWS V14.01,2013-04-01 17:18:00,
2013-04-01 13:19:00,32.1,12.7,29.96,NNE,26,6.0,9.0,44,0.00,,OVC003,0.00,VWS V14.01,2013-04-01 17:19:00,
2013-04-01 13:20:00,32.2,12.8,29.96,NE,54,5.0,9.0,44,0.00,,OVC003,0.00,VWS V14.01,2013-04-01 17:20:00,
2013-04-01 13:21:00,32.2,12.8,29.96,SSW,199,3.0,4.0,44,0.00,,OVC003,0.00,VWS V14.01,2013-04-01 17:21:00,
2013-04-01 13:22:00,32.3,13.4,29.96,SW,227,7.0,7.0,45,0.00,,OVC003,0.00,VWS V14.01,2013-04-01 17:22:00,
2013-04-01 13:23:00,32.3,13.4,29.96,SW,227,2.0,5.0,45,0.00,,OVC003,0.00,VWS V14.01,2013-04-01 17:23:00,
2013-04-01 13:24:00,32.3,13.4,29.96,ESE,122,7.0,7.0,45,0.00,,OVC003,0.00,VWS V14.01,2013-04-01 17:24:00,
2013-04-01 13:25:00,32.4,13.9,29.96,SSW,207,6.0,6.0,46,0.00,,OVC003,0.00,VWS V14.01,2013-04-01 17:25:00,
2013-04-01 13:26:00,32.3,13.9,29.96,East,85,7.0,7.0,46,0.00,,OVC003,0.00,VWS V14.01,2013-04-01 17:26:00,
2013-04-01 13:27:00,32.2,12.8,29.96,West,265,4.0,10.0,44,0.00,,OVC003,0.00,VWS V14.01,2013-04-01 17:27:00,
2013-04-01 13:28:00,32.0,12.6,29.96,West,266,8.0,10.0,44,0.00,,OVC003,0.00,VWS V14.01,2013-04-01 17:28:00,
2013-04-01 13:29:00,32.0,12.6,29.97,WNW,292,6.0,10.0,44,0.00,,OVC003,0.00,VWS V14.01,2013-04-01 17:29:00,
2013-04-01 13:30:00,31.9,12.5,29.97,West,269,5.0,10.0,44,0.00,,OVC003,0.00,VWS V14.01,2013-04-01 17:30:00,
2013-04-01 13:31:00,31.9,13.5,29.97,West,262,6.0,7.0,46,0.00,,OVC003,0.00,VWS V14.01,2013-04-01 17:31:00,
2013-04-01 13:32:00,32.0,13.6,29.97,NNE,16,8.0,8.0,46,0.00,,OVC003,0.00,VWS V14.01,2013-04-01 17:32:00,
2013-04-01 13:33:00,32.0,13.1,29.97,NW,307,6.0,7.0,45,0.00,,OVC003,0.00,VWS V14.01,2013-04-01 17:33:00,
2013-04-01 13:34:00,32.0,12.6,29.97,SW,236,5.0,7.0,44,0.00,,OVC003,0.00,VWS V14.01,2013-04-01 17:34:00,
2013-04-01 13:35:00,32.0,12.6,29.97,SW,235,3.0,7.0,44,0.00,,OVC003,0.00,VWS V14.01,2013-04-01 17:35:00,
2013-04-01 13:36:00,32.0,12.6,29.97,West,268,7.0,8.0,44,0.00,,OVC003,0.00,VWS V14.01,2013-04-01 17:36:00,
2013-04-01 13:37:00,32.1,12.7,29.97,North,6,4.0,10.0,44,0.00,,OVC003,0.00,VWS V14.01,2013-04-01 17:37:00,
2013-04-01 13:38:00,32.1,12.7,29.97,West,274,16.0,16.0,44,0.00,,OVC003,0.00,VWS V14.01,2013-04-01 17:38:00,
2013-04-01 13:39:00,32.2,12.8,29.97,WNW,303,4.0,14.0,44,0.00,,OVC003,0.00,VWS V14.01,2013-04-01 17:39:00,
2013-04-01 13:40:00,32.2,12.2,29.97,SW,214,3.0,14.0,43,0.00,,OVC003,0.00,VWS V14.01,2013-04-01 17:40:00,
2013-04-01 13:41:00,32.2,11.7,29.97,SSW,211,8.0,10.0,42,0.00,,OVC003,0.00,VWS V14.01,2013-04-01 17:41:00,
2013-04-01 13:42:00,32.2,11.7,29.97,WSW,241,8.0,11.0,42,0.00,,OVC003,0.00,VWS V14.01,2013-04-01 17:42:00,
2013-04-01 13:43:00,32.2,11.7,29.97,South,185,7.0,11.0,42,0.00,,OVC003,0.00,VWS V14.01,2013-04-01 17:43:00,
2013-04-01 13:44:00,32.1,11.6,29.97,West,273,8.0,12.0,42,0.00,,OVC003,0.00,VWS V14.01,2013-04-01 17:44:00,
2013-04-01 13:45:00,32.1,11.6,29.97,NNE,18,5.0,5.0,42,0.00,,OVC003,0.00,VWS V14.01,2013-04-01 17:45:00,
2013-04-01 13:46:00,32.0,11.5,29.97,WSW,243,6.0,17.0,42,0.00,,OVC003,0.00,VWS V14.01,2013-04-01 17:46:00,
2013-04-01 13:47:00,31.9,12.0,29.97,West,260,5.0,17.0,43,0.00,,OVC003,0.00,VWS V14.01,2013-04-01 17:47:00,
2013-04-01 13:48:00,31.9,12.0,29.97,West,271,4.0,17.0,43,0.00,,OVC003,0.00,VWS V14.01,2013-04-01 17:48:00,
2013-04-01 13:49:00,31.9,12.0,29.97,WSW,239,3.0,17.0,43,0.00,,OVC003,0.00,VWS V14.01,2013-04-01 17:49:00,
2013-04-01 13:50:00,31.9,12.5,29.97,West,260,6.0,17.0,44,0.00,,OVC003,0.00,VWS V14.01,2013-04-01 17:50:00,
2013-04-01 13:51:00,32.0,12.1,29.97,SW,214,3.0,13.0,43,0.00,,OVC003,0.00,VWS V14.01,2013-04-01 17:51:00,
2013-04-01 13:52:00,32.0,12.6,29.97,SSW,211,5.0,13.0,44,0.00,,OVC003,0.00,VWS V14.01,2013-04-01 17:52:00,
2013-04-01 13:53:00,32.1,12.7,29.97,West,263,6.0,13.0,44,0.00,,OVC003,0.00,VWS V14.01,2013-04-01 17:53:00,
2013-04-01 13:54:00,32.1,12.1,29.97,West,270,8.0,13.0,43,0.00,,OVC003,0.00,VWS V14.01,2013-04-01 17:54:00,
2013-04-01 13:55:00,32.1,12.7,29.97,SW,234,6.0,13.0,44,0.00,,OVC003,0.00,VWS V14.01,2013-04-01 17:55:00,
2013-04-01 13:56:00,32.0,12.1,29.97,WNW,293,5.0,10.0,43,0.00,,OVC003,0.00,VWS V14.01,2013-04-01 17:56:00,
2013-04-01 13:57:00,31.9,12.0,29.97,North,352,5.0,10.0,43,0.00,,OVC003,0.00,VWS V14.01,2013-04-01 17:57:00,
2013-04-01 13:58:00,31.8,11.9,29.97,SSW,208,3.0,10.0,43,0.00,,OVC003,0.00,VWS V14.01,2013-04-01 17:58:00,
2013-04-01 13:59:00,31.7,11.8,29.97,NW,312,7.0,10.0,43,0.00,,OVC003,0.00,VWS V14.01,2013-04-01 17:59:00,
2013-04-01 14:00:00,31.7,11.8,29.97,West,278,6.0,10.0,43,0.00,,OVC003,0.00,VWS V14.01,2013-04-01 18:00:00,
2013-04-01 14:01:00,31.6,11.7,29.97,West,263,5.0,7.0,43,0.00,,OVC003,0.00,VWS V14.01,2013-04-01 18:01:00,
2013-04-01 14:02:00,31.6,12.2,29.97,WNW,302,6.0,7.0,44,0.00,,OVC003,0.00,VWS V14.01,2013-04-01 18:02:00,
2013-04-01 14:03:00,31.6,11.7,29.97,North,3,3.0,7.0,43,0.00,,OVC003,0.00,VWS V14.01,2013-04-01 18:03:00,
2013-04-01 14:04:00,31.5,11.6,29.97,North,6,6.0,7.0,43,0.00,,OVC003,0.00,VWS V14.01,2013-04-01 18:04:00,
2013-04-01 14:05:00,31.5,11.6,29.97,North,6,5.0,7.0,43,0.00,,OVC003,0.00,VWS V14.01,2013-04-01 18:05:00,
2013-04-01 14:06:00,31.5,12.1,29.97,WNW,295,3.0,3.0,44,0.00,,OVC003,0.00,VWS V14.01,2013-04-01 18:06:00,
2013-04-01 14:07:00,31.6,12.7,29.97,WSW,247,14.0,14.0,45,0.00,,OVC003,0.00,VWS V14.01,2013-04-01 18:07:00,
2013-04-01 14:08:00,31.6,12.2,29.97,West,278,5.0,12.0,44,0.00,,OVC003,0.00,VWS V14.01,2013-04-01 18:08:00,
2013-04-01 14:10:00,31.6,12.2,29.97,West,274,7.0,12.0,44,0.00,,OVC003,0.00,VWS V14.01,2013-04-01 18:10:00,
2013-04-01 14:11:00,31.5,12.1,29.97,SW,222,4.0,6.0,44,0.00,,OVC003,0.00,VWS V14.01,2013-04-01 18:11:00,
2013-04-01 14:12:00,31.5,12.1,29.97,WSW,247,5.0,6.0,44,0.00,,OVC003,0.00,VWS V14.01,2013-04-01 18:12:00,
2013-04-01 14:13:00,31.5,12.1,29.97,NW,326,3.0,6.0,44,0.00,,OVC003,0.00,VWS V14.01,2013-04-01 18:13:00,
2013-04-01 14:14:00,31.5,12.1,29.97,WNW,287,2.0,6.0,44,0.00,,OVC003,0.00,VWS V14.01,2013-04-01 18:14:00,
2013-04-01 14:15:00,31.5,12.1,29.98,SW,217,4.0,6.0,44,0.00,,OVC003,0.00,VWS V14.01,2013-04-01 18:15:00,
2013-04-01 14:16:00,31.5,12.1,29.98,WNW,284,3.0,3.0,44,0.00,,OVC003,0.00,VWS V14.01,2013-04-01 18:16:00,
2013-04-01 14:17:00,31.5,12.1,29.98,SW,224,5.0,6.0,44,0.00,,OVC003,0.00,VWS V14.01,2013-04-01 18:17:00,
2013-04-01 14:18:00,31.5,12.1,29.98,NNW,347,5.0,6.0,44,0.00,,OVC003,0.00,VWS V14.01,2013-04-01 18:18:00,
2013-04-01 14:19:00,31.5,12.1,29.98,SSE,168,4.0,12.0,44,0.00,,OVC003,0.00,VWS V14.01,2013-04-01 18:19:00,
2013-04-01 14:20:00,31.5,12.1,29.98,WNW,293,4.0,12.0,44,0.00,,OVC003,0.00,VWS V14.01,2013-04-01 18:20:00,
2013-04-01 14:21:00,31.5,12.1,29.98,NE,37,4.0,4.0,44,0.00,,OVC003,0.00,VWS V14.01,2013-04-01 18:21:00,
2013-04-01 14:22:00,31.5,12.6,29.98,NE,37,3.0,4.0,45,0.00,,OVC003,0.00,VWS V14.01,2013-04-01 18:22:00,
2013-04-01 14:23:00,31.6,13.2,29.98,West,270,3.0,4.0,46,0.00,,OVC003,0.00,VWS V14.01,2013-04-01 18:23:00,
2013-04-01 14:24:00,31.7,13.3,29.98,WNW,286,6.0,6.0,46,0.00,,OVC003,0.00,VWS V14.01,2013-04-01 18:24:00,
2013-04-01 14:25:00,31.7,12.8,29.98,SW,222,5.0,5.0,45,0.00,,OVC003,0.00,VWS V14.01,2013-04-01 18:25:00,
2013-04-01 14:26:00,31.9,13.0,29.98,SW,227,4.0,4.0,45,0.00,,OVC003,0.00,VWS V14.01,2013-04-01 18:26:00,
2013-04-01 14:27:00,31.9,12.5,29.98,WNW,294,5.0,7.0,44,0.00,,OVC003,0.00,VWS V14.01,2013-04-01 18:27:00,
2013-04-01 14:28:00,31.9,13.0,29.98,WNW,294,3.0,7.0,45,0.00,,OVC003,0.00,VWS V14.01,2013-04-01 18:28:00,
2013-04-01 14:29:00,32.0,13.1,29.98,South,183,2.0,7.0,45,0.00,,OVC003,0.00,VWS V14.01,2013-04-01 18:29:00,
2013-04-01 14:30:00,32.0,13.1,29.98,North,359,7.0,7.0,45,0.00,,OVC003,0.00,VWS V14.01,2013-04-01 18:30:00,
2013-04-01 14:31:00,32.0,12.6,29.98,ENE,62,2.0,5.0,44,0.00,,OVC003,0.00,VWS V14.01,2013-04-01 18:31:00,
2013-04-01 14:32:00,32.0,13.1,29.98,SSE,161,2.0,5.0,45,0.00,,OVC003,0.00,VWS V14.01,2013-04-01 18:32:00,
2013-04-01 14:33:00,32.1,13.2,29.98,SSE,152,2.0,5.0,45,0.00,,OVC003,0.00,VWS V14.01,2013-04-01 18:33:00,
2013-04-01 14:34:00,32.2,13.3,29.98,ENE,72,2.0,5.0,45,0.00,,OVC003,0.00,VWS V14.01,2013-04-01 18:34:00,
2013-04-01 14:35:00,32.2,13.3,29.98,ENE,74,3.0,5.0,45,0.00,,OVC003,0.00,VWS V14.01,2013-04-01 18:35:00,
2013-04-01 14:36:00,32.4,13.9,29.98,East,79,2.0,2.0,46,0.00,,OVC003,0.00,VWS V14.01,2013-04-01 18:36:00,
2013-04-01 14:37:00,32.5,13.5,29.98,SW,224,5.0,5.0,45,0.00,,OVC003,0.00,VWS V14.01,2013-04-01 18:37:00,
2013-04-01 14:38:00,32.5,13.0,29.98,WNW,293,2.0,6.0,44,0.00,,OVC003,0.00,VWS V14.01,2013-04-01 18:38:00,
2013-04-01 14:39:00,32.4,12.9,29.98,West,269,4.0,9.0,44,0.00,,OVC003,0.00,VWS V14.01,2013-04-01 18:39:00,
2013-04-01 14:40:00,32.4,12.9,29.98,WSW,240,7.0,9.0,44,0.00,,OVC003,0.00,VWS V14.01,2013-04-01 18:40:00,
2013-04-01 14:41:00,32.2,12.2,29.98,West,262,6.0,10.0,43,0.00,,OVC003,0.00,VWS V14.01,2013-04-01 18:41:00,
2013-04-01 14:42:00,32.2,12.2,29.98,WSW,253,12.0,13.0,43,0.00,,OVC003,0.00,VWS V14.01,2013-04-01 18:42:00,
2013-04-01 14:43:00,32.2,12.2,29.98,SSW,206,8.0,13.0,43,0.00,,OVC003,0.00,VWS V14.01,2013-04-01 18:43:00,
2013-04-01 14:44:00,32.2,12.2,29.98,ENE,62,5.0,13.0,43,0.00,,OVC003,0.00,VWS V14.01,2013-04-01 18:44:00,
2013-04-01 14:45:00,32.2,12.2,29.98,WNW,285,7.0,15.0,43,0.00,,OVC003,0.00,VWS V14.01,2013-04-01 18:45:00,
2013-04-01 14:46:00,32.2,12.2,29.98,South,184,12.0,12.0,43,0.00,,OVC003,0.00,VWS V14.01,2013-04-01 18:46:00,
2013-04-01 14:47:00,32.3,12.3,29.98,ENE,64,4.0,10.0,43,0.00,,OVC003,0.00,VWS V14.01,2013-04-01 18:47:00,
2013-04-01 14:48:00,32.3,12.3,29.98,North,358,3.0,10.0,43,0.00,,OVC003,0.00,VWS V14.01,2013-04-01 18:48:00,
2013-04-01 14:49:00,32.3,12.3,29.98,SW,230,4.0,10.0,43,0.00,,OVC003,0.00,VWS V14.01,2013-04-01 18:49:00,
2013-04-01 14:50:00,32.3,12.3,29.98,West,273,5.0,10.0,43,0.00,,OVC003,0.00,VWS V14.01,2013-04-01 18:50:00,
2013-04-01 14:51:00,32.4,13.4,29.98,SW,214,10.0,10.0,45,0.00,,OVC003,0.00,VWS V14.01,2013-04-01 18:51:00,
2013-04-01 14:52:00,32.5,13.0,29.98,NNE,13,6.0,8.0,44,0.00,,OVC003,0.00,VWS V14.01,2013-04-01 18:52:00,
2013-04-01 14:53:00,32.5,13.0,29.98,NNW,339,5.0,10.0,44,0.00,,OVC003,0.00,VWS V14.01,2013-04-01 18:53:00,
2013-04-01 14:54:00,32.5,12.5,29.98,North,1,4.0,10.0,43,0.00,,OVC003,0.00,VWS V14.01,2013-04-01 18:54:00,
2013-04-01 14:55:00,32.4,12.4,29.98,North,351,2.0,10.0,43,0.00,,OVC003,0.00,VWS V14.01,2013-04-01 18:55:00,
2013-04-01 14:56:00,32.2,12.2,29.98,ENE,60,3.0,3.0,43,0.00,,OVC003,0.00,VWS V14.01,2013-04-01 18:56:00,
2013-04-01 14:57:00,32.2,12.8,29.98,NNW,345,5.0,5.0,44,0.00,,OVC003,0.00,VWS V14.01,2013-04-01 18:57:00,
2013-04-01 14:58:00,32.3,13.4,29.98,SSW,194,6.0,6.0,45,0.00,,OVC003,0.00,VWS V14.01,2013-04-01 18:58:00,
2013-04-01 14:59:00,32.3,13.4,29.98,SSW,194,6.0,6.0,45,0.00,,OVC003,0.00,VWS V14.01,2013-04-01 18:59:00,
2013-04-01 15:00:00,32.2,12.2,29.98,North,351,6.0,6.0,43,0.00,,OVC003,0.00,VWS V14.01,2013-04-01 19:00:00,
2013-04-01 15:01:00,32.2,13.3,29.98,NE,47,7.0,7.0,45,0.00,,OVC003,0.00,VWS V14.01,2013-04-01 19:01:00,
2013-04-01 15:02:00,32.3,13.4,29.98,North,0,2.0,7.0,45,0.00,,OVC003,0.00,VWS V14.01,2013-04-01 19:02:00,
2013-04-01 15:03:00,32.3,13.4,29.98,North,359,2.0,7.0,45,0.00,,OVC003,0.00,VWS V14.01,2013-04-01 19:03:00,
2013-04-01 15:04:00,32.4,13.9,29.98,WNW,301,5.0,7.0,46,0.00,,OVC003,0.00,VWS V14.01,2013-04-01 19:04:00,
2013-04-01 15:05:00,32.5,13.0,29.98,NE,37,6.0,6.0,44,0.00,,OVC003,0.00,VWS V14.01,2013-04-01 19:05:00,
2013-04-01 15:06:00,32.5,13.5,29.98,NNE,16,2.0,6.0,45,0.00,,OVC003,0.00,VWS V14.01,2013-04-01 19:06:00,
2013-04-01 15:07:00,32.6,13.6,29.98,NNE,17,3.0,6.0,45,0.00,,OVC003,0.00,VWS V14.01,2013-04-01 19:07:00,
2013-04-01 15:08:00,32.8,13.8,29.98,West,280,2.0,6.0,45,0.00,,OVC003,0.00,VWS V14.01,2013-04-01 19:08:00,
2013-04-01 15:09:00,32.8,13.3,29.98,NNE,19,4.0,7.0,44,0.00,,OVC003,0.00,VWS V14.01,2013-04-01 19:09:00,
2013-04-01 15:10:00,32.8,12.8,29.98,North,6,3.0,7.0,43,0.00,,OVC003,0.00,VWS V14.01,2013-04-01 19:10:00,
2013-04-01 15:11:00,32.7,12.7,29.98,West,260,5.0,5.0,43,0.00,,OVC003,0.00,VWS V14.01,2013-04-01 19:11:00,
2013-04-01 15:12:00,32.6,12.6,29.98,NW,306,5.0,5.0,43,0.00,,OVC003,0.00,VWS V14.01,2013-04-01 19:12:00,
2013-04-01 15:13:00,32.5,12.5,29.98,WNW,300,4.0,7.0,43,0.00,,OVC003,0.00,VWS V14.01,2013-04-01 19:13:00,
2013-04-01 15:15:00,32.4,12.9,29.98,NW,326,5.0,7.0,44,0.00,,OVC003,0.00,VWS V14.01,2013-04-01 19:15:00,
2013-04-01 15:16:00,32.1,13.2,29.98,NNE,32,8.0,11.0,45,0.00,,OVC003,0.00,VWS V14.01,2013-04-01 19:16:00,
2013-04-01 15:17:00,32.0,13.1,29.98,WNW,283,6.0,11.0,45,0.00,,OVC003,0.00,VWS V14.01,2013-04-01 19:17:00,
2013-04-01 15:18:00,31.9,13.0,29.98,West,277,4.0,11.0,45,0.00,,OVC003,0.00,VWS V14.01,2013-04-01 19:18:00,
2013-04-01 15:19:00,31.8,12.9,29.98,SSE,148,2.0,11.0,45,0.00,,OVC003,0.00,VWS V14.01,2013-04-01 19:19:00,
2013-04-01 15:20:00,31.7,12.8,29.98,WSW,243,3.0,11.0,45,0.00,,OVC003,0.00,VWS V14.01,2013-04-01 19:20:00,
2013-04-01 15:21:00,31.6,13.2,29.98,ENE,67,3.0,5.0,46,0.00,,OVC003,0.00,VWS V14.01,2013-04-01 19:21:00,
2013-04-01 15:23:00,31.6,13.7,29.98,ENE,68,5.0,5.0,47,0.00,,OVC003,0.00,VWS V14.01,2013-04-01 19:23:00,
2013-04-01 15:24:00,31.6,13.7,29.98,SSE,168,3.0,7.0,47,0.00,,OVC003,0.00,VWS V14.01,2013-04-01 19:24:00,
2013-04-01 15:25:00,31.5,13.1,29.98,NE,52,14.0,14.0,46,0.00,,OVC003,0.00,VWS V14.01,2013-04-01 19:25:00,
2013-04-01 15:26:00,31.4,13.0,29.98,NW,317,4.0,12.0,46,0.00,,OVC003,0.00,VWS V14.01,2013-04-01 19:26:00,
2013-04-01 15:27:00,31.4,13.5,29.98,WSW,256,5.0,12.0,47,0.00,,OVC003,0.00,VWS V14.01,2013-04-01 19:27:00,
2013-04-01 15:28:00,31.4,13.5,29.98,NNW,330,3.0,12.0,47,0.00,,OVC003,0.00,VWS V14.01,2013-04-01 19:28:00,
2013-04-01 15:29:00,31.5,14.1,29.99,SW,222,5.0,12.0,48,0.00,,OVC003,0.00,VWS V14.01,2013-04-01 19:29:00,
2013-04-01 15:30:00,31.6,14.2,29.99,West,272,8.0,8.0,48,0.00,,OVC003,0.00,VWS V14.01,2013-04-01 19:30:00,
2013-04-01 15:31:00,31.8,14.4,29.99,NNW,330,4.0,6.0,48,0.00,,OVC003,0.00,VWS V14.01,2013-04-01 19:31:00,
2013-04-01 15:32:00,32.0,14.1,29.99,NNE,14,5.0,6.0,47,0.00,,OVC003,0.00,VWS V14.01,2013-04-01 19:32:00,
2013-04-01 15:33:00,32.1,13.7,29.99,WSW,247,8.0,8.0,46,0.00,,OVC003,0.00,VWS V14.01,2013-04-01 19:33:00,
2013-04-01 15:34:00,32.1,13.7,29.99,WNW,298,4.0,6.0,46,0.00,,OVC003,0.00,VWS V14.01,2013-04-01 19:34:00,
2013-04-01 15:35:00,32.1,14.2,29.99,NE,51,5.0,5.0,47,0.00,,OVC003,0.00,VWS V14.01,2013-04-01 19:35:00,
2013-04-01 15:36:00,32.0,13.6,29.99,NW,322,3.0,5.0,46,0.00,,OVC003,0.00,VWS V14.01,2013-04-01 19:36:00,
2013-04-01 15:37:00,32.0,13.6,29.99,NW,326,4.0,5.0,46,0.00,,OVC003,0.00,VWS V14.01,2013-04-01 19:37:00,
2013-04-01 15:38:00,31.9,13.5,29.99,NW,317,4.0,5.0,46,0.00,,OVC003,0.00,VWS V14.01,2013-04-01 19:38:00,
2013-04-01 15:39:00,31.9,13.5,29.99,SSE,150,4.0,5.0,46,0.00,,OVC003,0.00,VWS V14.01,2013-04-01 19:39:00,
2013-04-01 15:40:00,31.8,13.4,29.99,NE,34,2.0,5.0,46,0.00,,OVC003,0.00,VWS V14.01,2013-04-01 19:40:00,
2013-04-01 15:41:00,31.7,12.8,29.99,WNW,295,8.0,8.0,45,0.00,,OVC003,0.00,VWS V14.01,2013-04-01 19:41:00,
2013-04-01 15:42:00,31.6,12.7,29.99,WSW,248,4.0,6.0,45,0.00,,OVC003,0.00,VWS V14.01,2013-04-01 19:42:00,
2013-04-01 15:43:00,31.6,13.7,29.99,West,270,5.0,6.0,47,0.00,,OVC003,0.00,VWS V14.01,2013-04-01 19:43:00,
2013-04-01 15:44:00,31.6,13.2,29.99,West,270,2.0,6.0,46,0.00,,OVC003,0.00,VWS V14.01,2013-04-01 19:44:00,
2013-04-01 15:45:00,31.6,13.2,29.99,NE,45,2.0,6.0,46,0.00,,OVC003,0.00,VWS V14.01,2013-04-01 19:45:00,
2013-04-01 15:46:00,31.7,13.3,29.99,WNW,282,5.0,5.0,46,0.00,,OVC003,0.00,VWS V14.01,2013-04-01 19:46:00,
2013-04-01 15:47:00,31.8,13.4,29.99,NW,326,5.0,8.0,46,0.00,,OVC003,0.00,VWS V14.01,2013-04-01 19:47:00,
2013-04-01 15:48:00,31.9,13.5,29.99,WSW,247,4.0,8.0,46,0.00,,OVC003,0.00,VWS V14.01,2013-04-01 19:48:00,
2013-04-01 15:49:00,32.0,13.6,29.99,WSW,253,12.0,13.0,46,0.00,,OVC003,0.00,VWS V14.01,2013-04-01 19:49:00,
2013-04-01 15:50:00,32.0,13.6,29.99,WNW,290,5.0,13.0,46,0.00,,OVC003,0.00,VWS V14.01,2013-04-01 19:50:00,
2013-04-01 15:51:00,32.2,14.2,29.99,SW,220,2.0,6.0,47,0.00,,OVC003,0.00,VWS V14.01,2013-04-01 19:51:00,
2013-04-01 15:52:00,32.3,14.3,29.99,NW,307,6.0,6.0,47,0.00,,OVC003,0.00,VWS V14.01,2013-04-01 19:52:00,
2013-04-01 15:53:00,32.4,14.9,29.99,West,274,5.0,6.0,48,0.00,,OVC003,0.00,VWS V14.01,2013-04-01 19:53:00,
2013-04-01 15:54:00,32.5,14.5,29.99,NW,306,2.0,6.0,47,0.00,,OVC003,0.00,VWS V14.01,2013-04-01 19:54:00,
2013-04-01 15:55:00,32.5,14.5,29.99,WNW,287,5.0,6.0,47,0.00,,OVC003,0.00,VWS V14.01,2013-04-01 19:55:00,
2013-04-01 15:56:00,32.4,13.9,29.99,NE,55,6.0,6.0,46,0.00,,OVC003,0.00,VWS V14.01,2013-04-01 19:56:00,
2013-04-01 15:57:00,32.3,13.9,29.99,NNW,338,3.0,6.0,46,0.00,,OVC003,0.00,VWS V14.01,2013-04-01 19:57:00,
2013-04-01 15:58:00,32.3,14.3,29.99,WNW,295,4.0,6.0,47,0.00,,OVC003,0.00,VWS V14.01,2013-04-01 19:58:00,
2013-04-01 15:59:00,32.2,13.8,29.99,WNW,295,4.0,6.0,46,0.00,,OVC003,0.00,VWS V14.01,2013-04-01 19:59:00,
2013-04-01 16:00:00,32.2,13.8,29.99,WNW,295,3.0,6.0,46,0.00,,OVC003,0.00,VWS V14.01,2013-04-01 20:00:00,
2013-04-01 16:01:00,32.1,13.7,29.99,North,357,4.0,5.0,46,0.00,,OVC003,0.00,VWS V14.01,2013-04-01 20:01:00,
2013-04-01 16:02:00,32.0,13.6,29.99,NE,52,3.0,5.0,46,0.00,,OVC003,0.00,VWS V14.01,2013-04-01 20:02:00,
2013-04-01 16:03:00,32.0,13.6,29.99,SSE,153,5.0,5.0,46,0.00,,OVC003,0.00,VWS V14.01,2013-04-01 20:03:00,
2013-04-01 16:04:00,31.9,13.5,29.99,NW,307,2.0,5.0,46,0.00,,OVC003,0.00,VWS V14.01,2013-04-01 20:04:00,
2013-04-01 16:05:00,32.0,13.6,29.99,NW,307,3.0,5.0,46,0.00,,OVC003,0.00,VWS V14.01,2013-04-01 20:05:00,
2013-04-01 16:06:00,32.1,14.2,29.99,NW,307,2.0,2.0,47,0.00,,OVC003,0.00,VWS V14.01,2013-04-01 20:06:00,
2013-04-01 16:07:00,32.2,14.2,29.99,SE,129,3.0,4.0,47,0.00,,OVC003,0.00,VWS V14.01,2013-04-01 20:07:00,
2013-04-01 16:08:00,32.3,13.9,29.99,NE,39,6.0,6.0,46,0.00,,OVC003,0.00,VWS V14.01,2013-04-01 20:08:00,
2013-04-01 16:09:00,32.3,13.4,29.99,SSE,168,3.0,6.0,45,0.00,,OVC003,0.00,VWS V14.01,2013-04-01 20:09:00,
2013-04-01 16:10:00,32.3,13.4,29.99,SE,128,2.0,6.0,45,0.00,,OVC003,0.00,VWS V14.01,2013-04-01 20:10:00,
2013-04-01 16:11:00,32.2,13.8,29.99,NNW,332,3.0,4.0,46,0.00,,OVC003,0.00,VWS V14.01,2013-04-01 20:11:00,
2013-04-01 16:13:00,32.1,12.7,29.99,SSE,153,3.0,14.0,44,0.00,,OVC003,0.00,VWS V14.01,2013-04-01 20:13:00,
2013-04-01 16:14:00,32.0,12.6,29.99,WSW,252,7.0,14.0,44,0.00,,OVC003,0.00,VWS V14.01,2013-04-01 20:14:00,
2013-04-01 16:15:00,32.0,12.6,29.99,NW,317,3.0,14.0,44,0.00,,OVC003,0.00,VWS V14.01,2013-04-01 20:15:00,
2013-04-01 16:16:00,31.9,12.5,29.99,West,271,10.0,10.0,44,0.00,,OVC003,0.00,VWS V14.01,2013-04-01 20:16:00,
2013-04-01 16:17:00,31.9,12.5,29.99,WNW,292,2.0,9.0,44,0.00,,OVC003,0.00,VWS V14.01,2013-04-01 20:17:00,
2013-04-01 16:18:00,31.8,12.4,29.99,NW,317,5.0,11.0,44,0.00,,OVC003,0.00,VWS V14.01,2013-04-01 20:18:00,
2013-04-01 16:19:00,31.7,12.3,29.99,WSW,238,3.0,11.0,44,0.00,,OVC003,0.00,VWS V14.01,2013-04-01 20:19:00,
2013-04-01 16:20:00,31.7,12.8,29.99,WSW,238,2.0,11.0,45,0.00,,OVC003,0.00,VWS V14.01,2013-04-01 20:20:00,
2013-04-01 16:21:00,31.6,12.7,29.99,WNW,288,3.0,7.0,45,0.00,,OVC003,0.00,VWS V14.01,2013-04-01 20:21:00,
2013-04-01 16:22:00,31.5,13.1,29.99,NNE,20,4.0,7.0,46,0.00,,OVC003,0.00,VWS V14.01,2013-04-01 20:22:00,
2013-04-01 16:23:00,31.4,13.0,29.99,West,266,4.0,7.0,46,0.00,,OVC003,0.00,VWS V14.01,2013-04-01 20:23:00,
2013-04-01 16:24:00,31.4,13.0,29.99,West,280,2.0,7.0,46,0.00,,OVC003,0.00,VWS V14.01,2013-04-01 20:24:00,
2013-04-01 16:25:00,31.4,13.0,29.99,NNW,335,2.0,7.0,46,0.00,,OVC003,0.00,VWS V14.01,2013-04-01 20:25:00,
2013-04-01 16:26:00,31.3,12.9,29.99,WSW,249,7.0,7.0,46,0.00,,OVC003,0.00,VWS V14.01,2013-04-01 20:26:00,
2013-04-01 16:27:00,31.2,12.8,29.99,SSW,193,10.0,10.0,46,0.00,,OVC003,0.00,VWS V14.01,2013-04-01 20:27:00,
2013-04-01 16:28:00,31.1,12.8,29.99,WSW,243,2.0,8.0,46,0.00,,OVC003,0.00,VWS V14.01,2013-04-01 20:28:00,
2013-04-01 16:29:00,31.0,12.7,29.99,ESE,122,3.0,8.0,46,0.00,,OVC003,0.00,VWS V14.01,2013-04-01 20:29:00,
2013-04-01 16:30:00,31.0,12.7,29.99,ENE,58,5.0,8.0,46,0.00,,OVC003,0.00,VWS V14.01,2013-04-01 20:30:00,
2013-04-01 16:31:00,31.0,12.7,29.99,SE,132,3.0,3.0,46,0.00,,OVC003,0.00,VWS V14.01,2013-04-01 20:31:00,
2013-04-01 16:32:00,31.0,13.1,29.99,North,8,4.0,4.0,47,0.00,,OVC003,0.00,VWS V14.01,2013-04-01 20:32:00,
2013-04-01 16:33:00,31.0,13.1,29.99,NNE,13,6.0,6.0,47,0.00,,OVC003,0.00,VWS V14.01,2013-04-01 20:33:00,
2013-04-01 16:34:00,31.0,13.1,29.99,WSW,256,2.0,4.0,47,0.00,,OVC003,0.00,VWS V14.01,2013-04-01 20:34:00,
2013-04-01 16:35:00,31.0,13.1,29.99,NE,35,7.0,7.0,47,0.00,,OVC003,0.00,VWS V14.01,2013-04-01 20:35:00,
2013-04-01 16:36:00,31.0,12.7,29.99,NNW,339,4.0,7.0,46,0.00,,OVC003,0.00,VWS V14.01,2013-04-01 20:36:00,
2013-04-01 16:37:00,30.9,12.6,29.99,West,279,2.0,7.0,46,0.00,,OVC003,0.00,VWS V14.01,2013-04-01 20:37:00,
2013-04-01 16:38:00,31.0,13.1,29.99,West,279,2.0,7.0,47,0.00,,OVC003,0.00,VWS V14.01,2013-04-01 20:38:00,
2013-04-01 16:39:00,31.0,13.1,29.99,West,279,2.0,7.0,47,0.00,,OVC003,0.00,VWS V14.01,2013-04-01 20:39:00,
2013-04-01 16:40:00,31.0,13.1,29.99,West,279,2.0,2.0,47,0.00,,OVC003,0.00,VWS V14.01,2013-04-01 20:40:00,
2013-04-01 16:41:00,31.0,13.1,29.99,West,279,2.0,2.0,47,0.00,,OVC003,0.00,VWS V14.01,2013-04-01 20:41:00,
2013-04-01 16:42:00,31.0,13.1,29.99,NE,35,4.0,4.0,47,0.00,,OVC003,0.00,VWS V14.01,2013-04-01 20:42:00,
2013-04-01 16:43:00,31.0,13.1,29.99,NW,317,2.0,3.0,47,0.00,,OVC003,0.00,VWS V14.01,2013-04-01 20:43:00,
2013-04-01 16:44:00,31.1,12.8,29.99,West,260,4.0,4.0,46,0.00,,OVC003,0.00,VWS V14.01,2013-04-01 20:44:00,
2013-04-01 16:45:00,31.1,12.8,29.99,West,261,2.0,4.0,46,0.00,,OVC003,0.00,VWS V14.01,2013-04-01 20:45:00,
2013-04-01 16:46:00,31.2,13.3,29.99,West,260,2.0,2.0,47,0.00,,OVC003,0.00,VWS V14.01,2013-04-01 20:46:00,
2013-04-01 16:47:00,31.4,13.5,29.99,North,1,4.0,5.0,47,0.00,,OVC003,0.00,VWS V14.01,2013-04-01 20:47:00,
2013-04-01 16:48:00,31.5,13.1,29.99,North,358,3.0,5.0,46,0.00,,OVC003,0.00,VWS V14.01,2013-04-01 20:48:00,
2013-04-01 16:50:00,31.6,12.7,29.99,West,280,4.0,6.0,45,0.00,,OVC003,0.00,VWS V14.01,2013-04-01 20:50:00,
2013-04-01 16:51:00,31.7,12.3,29.99,NE,51,3.0,5.0,44,0.00,,OVC003,0.00,VWS V14.01,2013-04-01 20:51:00,
2013-04-01 16:52:00,31.7,12.3,29.99,SW,220,11.0,11.0,44,0.00,,OVC003,0.00,VWS V14.01,2013-04-01 20:52:00,
2013-04-01 16:53:00,31.8,12.4,29.99,North,353,5.0,10.0,44,0.00,,OVC003,0.00,VWS V14.01,2013-04-01 20:53:00,
2013-04-01 16:54:00,31.8,12.4,29.99,NNW,336,4.0,10.0,44,0.00,,OVC003,0.00,VWS V14.01,2013-04-01 20:54:00,
2013-04-01 16:55:00,31.8,12.4,29.99,NNW,337,4.0,10.0,44,0.00,,OVC003,0.00,VWS V14.01,2013-04-01 20:55:00,
2013-04-01 16:56:00,31.8,12.4,29.99,East,97,2.0,3.0,44,0.00,,OVC003,0.00,VWS V14.01,2013-04-01 20:56:00,
2013-04-01 16:57:00,31.8,12.4,29.99,WNW,282,7.0,10.0,44,0.00,,OVC003,0.00,VWS V14.01,2013-04-01 20:57:00,
2013-04-01 16:58:00,31.8,12.4,29.99,NNW,335,4.0,10.0,44,0.00,,OVC003,0.00,VWS V14.01,2013-04-01 20:58:00,
2013-04-01 16:59:00,31.7,12.3,30.00,NW,307,3.0,10.0,44,0.00,,OVC003,0.00,VWS V14.01,2013-04-01 20:59:00,
2013-04-01 17:00:00,31.7,12.8,30.00,NW,307,3.0,10.0,45,0.00,,OVC003,0.00,VWS V14.01,2013-04-01 21:00:00,
2013-04-01 17:01:00,31.7,13.3,30.00,NW,307,2.0,2.0,46,0.00,,OVC003,0.00,VWS V14.01,2013-04-01 21:01:00,
2013-04-01 17:02:00,31.7,13.3,30.00,NE,49,7.0,7.0,46,0.00,,OVC003,0.00,VWS V14.01,2013-04-01 21:02:00,
2013-04-01 17:03:00,31.6,13.2,30.00,North,353,4.0,8.0,46,0.00,,OVC003,0.00,VWS V14.01,2013-04-01 21:03:00,
2013-04-01 17:04:00,31.6,12.7,30.00,SSW,211,5.0,8.0,45,0.00,,OVC003,0.00,VWS V14.01,2013-04-01 21:04:00,
2013-04-01 17:05:00,31.5,13.1,30.00,SSW,213,4.0,8.0,46,0.00,,OVC003,0.00,VWS V14.01,2013-04-01 21:05:00,
2013-04-01 17:06:00,31.5,13.1,30.00,SSW,212,3.0,3.0,46,0.00,,OVC003,0.00,VWS V14.01,2013-04-01 21:06:00,
2013-04-01 17:07:00,31.5,13.1,30.00,SW,220,12.0,12.0,46,0.00,,OVC003,0.00,VWS V14.01,2013-04-01 21:07:00,
2013-04-01 17:08:00,31.5,13.1,30.00,WNW,295,3.0,10.0,46,0.00,,OVC003,0.00,VWS V14.01,2013-04-01 21:08:00,
2013-04-01 17:09:00,31.5,13.1,30.00,WNW,294,2.0,10.0,46,0.00,,OVC003,0.00,VWS V14.01,2013-04-01 21:09:00,
2013-04-01 17:10:00,31.6,13.2,30.00,WNW,283,3.0,10.0,46,0.00,,OVC003,0.00,VWS V14.01,2013-04-01 21:10:00,
2013-04-01 17:11:00,31.6,13.2,30.00,West,276,6.0,11.0,46,0.00,,OVC003,0.00,VWS V14.01,2013-04-01 21:11:00,
2013-04-01 17:12:00,31.6,13.2,30.00,SSW,210,3.0,11.0,46,0.00,,OVC003,0.00,VWS V14.01,2013-04-01 21:12:00,
2013-04-01 17:13:00,31.7,13.3,30.00,WSW,256,6.0,11.0,46,0.00,,OVC003,0.00,VWS V14.01,2013-04-01 21:13:00,
2013-04-01 17:14:00,31.7,13.3,30.00,WNW,299,4.0,11.0,46,0.00,,OVC003,0.00,VWS V14.01,2013-04-01 21:14:00,
2013-04-01 17:15:00,31.7,13.3,30.00,South,169,6.0,11.0,46,0.00,,OVC003,0.00,VWS V14.01,2013-04-01 21:15:00,
2013-04-01 17:16:00,31.7,13.3,30.00,WSW,256,11.0,11.0,46,0.00,,OVC003,0.00,VWS V14.01,2013-04-01 21:16:00,
2013-04-01 17:17:00,31.7,13.3,30.00,West,279,2.0,9.0,46,0.00,,OVC003,0.00,VWS V14.01,2013-04-01 21:17:00,
2013-04-01 17:18:00,32.2,13.8,29.99,West,278,12.0,12.0,46,0.00,,OVC003,0.00,VWS V14.01,2013-04-01 21:18:00,
2013-04-01 17:19:00,31.7,13.8,30.00,NW,317,5.0,9.0,47,0.00,,OVC003,0.00,VWS V14.01,2013-04-01 21:19:00,
2013-04-01 17:20:00,31.7,13.8,30.00,NW,322,2.0,9.0,47,0.00,,OVC003,0.00,VWS V14.01,2013-04-01 21:20:00,
2013-04-01 17:21:00,31.7,13.8,30.00,West,276,3.0,3.0,47,0.00,,OVC003,0.00,VWS V14.01,2013-04-01 21:21:00,
2013-04-01 17:22:00,31.6,13.7,30.00,SSE,151,4.0,6.0,47,0.00,,OVC003,0.00,VWS V14.01,2013-04-01 21:22:00,
2013-04-01 17:23:00,31.6,13.2,30.00,NW,317,6.0,7.0,46,0.00,,OVC003,0.00,VWS V14.01,2013-04-01 21:23:00,
2013-04-01 17:24:00,31.5,13.1,30.00,NW,317,5.0,7.0,46,0.00,,OVC003,0.00,VWS V14.01,2013-04-01 21:24:00,
2013-04-01 17:25:00,31.5,13.1,30.00,WSW,241,9.0,9.0,46,0.00,,OVC003,0.00,VWS V14.01,2013-04-01 21:25:00,
2013-04-01 17:26:00,31.4,13.0,30.00,WNW,301,4.0,7.0,46,0.00,,OVC003,0.00,VWS V14.01,2013-04-01 21:26:00,
2013-04-01 17:27:00,31.3,12.9,30.00,SSW,207,5.0,7.0,46,0.00,,OVC003,0.00,VWS V14.01,2013-04-01 21:27:00,
2013-04-01 17:28:00,31.2,12.8,30.00,WNW,285,4.0,7.0,46,0.00,,OVC003,0.00,VWS V14.01,2013-04-01 21:28:00,
2013-04-01 17:30:00,31.1,12.8,30.00,WNW,285,2.0,7.0,46,0.00,,OVC003,0.00,VWS V14.01,2013-04-01 21:30:00,
2013-04-01 17:31:00,31.0,12.7,30.00,NNE,28,5.0,6.0,46,0.00,,OVC003,0.00,VWS V14.01,2013-04-01 21:31:00,
2013-04-01 17:32:00,31.0,13.1,30.00,WNW,298,2.0,6.0,47,0.00,,OVC003,0.00,VWS V14.01,2013-04-01 21:32:00,
2013-04-01 17:33:00,30.9,13.1,30.00,WNW,299,2.0,6.0,47,0.00,,OVC003,0.00,VWS V14.01,2013-04-01 21:33:00,
2013-04-01 17:34:00,30.9,13.1,30.00,West,262,4.0,6.0,47,0.00,,OVC003,0.00,VWS V14.01,2013-04-01 21:34:00,
2013-04-01 17:35:00,30.9,13.1,30.00,NW,317,2.0,6.0,47,0.00,,OVC003,0.00,VWS V14.01,2013-04-01 21:35:00,
2013-04-01 17:36:00,30.8,13.0,30.00,SW,233,6.0,6.0,47,0.00,,OVC003,0.00,VWS V14.01,2013-04-01 21:36:00,
2013-04-01 17:37:00,30.8,13.0,30.00,SSW,205,3.0,10.0,47,0.00,,OVC003,0.00,VWS V14.01,2013-04-01 21:37:00,
2013-04-01 17:38:00,30.8,13.0,30.00,SSW,205,2.0,10.0,47,0.00,,OVC003,0.00,VWS V14.01,2013-04-01 21:38:00,
2013-04-01 17:39:00,30.8,13.4,30.00,SSW,205,2.0,10.0,48,0.00,,OVC003,0.00,VWS V14.01,2013-04-01 21:39:00,
2013-04-01 17:40:00,30.8,13.4,30.00,SSW,205,2.0,10.0,48,0.00,,OVC003,0.00,VWS V14.01,2013-04-01 21:40:00,
2013-04-01 17:41:00,30.8,13.4,30.00,North,8,6.0,6.0,48,0.00,,OVC003,0.00,VWS V14.01,2013-04-01 21:41:00,
2013-04-01 17:42:00,30.7,13.4,30.00,North,1,3.0,7.0,48,0.00,,OVC003,0.00,VWS V14.01,2013-04-01 21:42:00,
2013-04-01 17:43:00,30.7,13.4,30.00,SW,226,5.0,7.0,48,0.00,,OVC003,0.00,VWS V14.01,2013-04-01 21:43:00,
2013-04-01 17:44:00,30.6,13.3,30.00,SW,229,2.0,7.0,48,0.00,,OVC003,0.00,VWS V14.01,2013-04-01 21:44:00,
2013-04-01 17:45:00,30.6,13.3,30.00,WNW,302,3.0,7.0,48,0.00,,OVC003,0.00,VWS V14.01,2013-04-01 21:45:00,
2013-04-01 17:46:00,30.6,13.3,30.00,WSW,248,2.0,6.0,48,0.00,,OVC003,0.00,VWS V14.01,2013-04-01 21:46:00,
2013-04-01 17:47:00,30.6,13.3,30.00,WSW,248,2.0,6.0,48,0.00,,OVC003,0.00,VWS V14.01,2013-04-01 21:47:00,
2013-04-01 17:48:00,30.5,13.2,30.00,SE,145,3.0,6.0,48,0.00,,OVC003,0.00,VWS V14.01,2013-04-01 21:48:00,
2013-04-01 17:49:00,30.5,13.6,30.00,NW,317,5.0,9.0,49,0.00,,OVC003,0.00,VWS V14.01,2013-04-01 21:49:00,
2013-04-01 17:50:00,30.5,13.6,30.00,WNW,291,5.0,9.0,49,0.00,,OVC003,0.00,VWS V14.01,2013-04-01 21:50:00,
2013-04-01 17:51:00,30.5,13.6,30.00,WSW,255,2.0,4.0,49,0.00,,OVC003,0.00,VWS V14.01,2013-04-01 21:51:00,
2013-04-01 17:52:00,30.5,13.6,30.00,SSW,207,2.0,6.0,49,0.00,,OVC003,0.00,VWS V14.01,2013-04-01 21:52:00,
2013-04-01 17:53:00,30.5,14.1,30.00,SW,220,3.0,6.0,50,0.00,,OVC003,0.00,VWS V14.01,2013-04-01 21:53:00,
2013-04-01 17:54:00,30.5,14.1,30.00,SSE,164,3.0,6.0,50,0.00,,OVC003,0.00,VWS V14.01,2013-04-01 21:54:00,
2013-04-01 17:55:00,30.5,14.1,30.00,NNW,331,2.0,6.0,50,0.00,,OVC003,0.00,VWS V14.01,2013-04-01 21:55:00,
2013-04-01 17:56:00,30.5,14.1,30.00,NE,49,3.0,3.0,50,0.00,,OVC003,0.00,VWS V14.01,2013-04-01 21:56:00,
2013-04-01 17:57:00,30.5,14.1,30.00,NW,322,3.0,3.0,50,0.00,,OVC003,0.00,VWS V14.01,2013-04-01 21:57:00,
2013-04-01 17:58:00,30.5,14.5,30.00,NW,326,2.0,3.0,51,0.00,,OVC003,0.00,VWS V14.01,2013-04-01 21:58:00,
2013-04-01 17:59:00,30.5,14.5,30.01,East,80,2.0,3.0,51,0.00,,OVC003,0.00,VWS V14.01,2013-04-01 21:59:00,
2013-04-01 18:00:00,30.5,14.5,30.01,West,268,2.0,3.0,51,0.00,,OVC003,0.00,VWS V14.01,2013-04-01 22:00:00,
2013-04-01 18:01:00,30.5,14.5,30.01,West,268,4.0,4.0,51,0.00,,OVC003,0.00,VWS V14.01,2013-04-01 22:01:00,
2013-04-01 18:02:00,30.5,14.5,30.01,West,268,3.0,3.0,51,0.00,,OVC003,0.00,VWS V14.01,2013-04-01 22:02:00,
2013-04-01 18:03:00,30.5,14.5,30.01,East,80,3.0,3.0,51,0.00,,OVC003,0.00,VWS V14.01,2013-04-01 22:03:00,
2013-04-01 18:04:00,30.4,14.4,30.01,NE,49,4.0,4.0,51,0.00,,OVC003,0.00,VWS V14.01,2013-04-01 22:04:00,
2013-04-01 18:05:00,30.4,14.4,30.01,NW,317,2.0,3.0,51,0.00,,OVC003,0.00,VWS V14.01,2013-04-01 22:05:00,
2013-04-01 18:06:00,30.4,14.9,30.01,NW,317,2.0,2.0,52,0.00,,OVC003,0.00,VWS V14.01,2013-04-01 22:06:00,
2013-04-01 18:07:00,30.3,14.8,30.01,NW,317,2.0,2.0,52,0.00,,OVC003,0.00,VWS V14.01,2013-04-01 22:07:00,
2013-04-01 18:08:00,30.3,14.8,30.01,NW,317,3.0,3.0,52,0.00,,OVC003,0.00,VWS V14.01,2013-04-01 22:08:00,
2013-04-01 18:09:00,30.3,14.8,30.01,SSW,211,2.0,2.0,52,0.00,,OVC003,0.00,VWS V14.01,2013-04-01 22:09:00,
2013-04-01 18:10:00,30.3,14.8,30.01,SSW,211,4.0,4.0,52,0.00,,OVC003,0.00,VWS V14.01,2013-04-01 22:10:00,
2013-04-01 18:11:00,30.3,14.8,30.01,SSW,211,2.0,2.0,52,0.00,,OVC003,0.00,VWS V14.01,2013-04-01 22:11:00,
2013-04-01 18:12:00,30.3,14.8,30.01,SW,227,4.0,4.0,52,0.00,,OVC003,0.00,VWS V14.01,2013-04-01 22:12:00,
2013-04-01 18:13:00,30.3,15.2,30.01,SW,232,4.0,4.0,53,0.00,,OVC003,0.00,VWS V14.01,2013-04-01 22:13:00,
2013-04-01 18:14:00,30.3,15.2,30.01,NE,44,5.0,5.0,53,0.00,,OVC003,0.00,VWS V14.01,2013-04-01 22:14:00,
2013-04-01 18:15:00,30.3,15.2,30.01,NE,44,4.0,4.0,53,0.00,,OVC003,0.00,VWS V14.01,2013-04-01 22:15:00,
2013-04-01 18:16:00,30.2,16.0,30.01,NW,307,4.0,4.0,55,0.00,,OVC003,0.00,VWS V14.01,2013-04-01 22:16:00,
2013-04-01 18:17:00,30.2,16.0,30.01,NNW,343,4.0,4.0,55,0.00,,OVC003,0.00,VWS V14.01,2013-04-01 22:17:00,
2013-04-01 18:18:00,30.1,15.9,30.01,SSE,163,3.0,4.0,55,0.00,,OVC003,0.00,VWS V14.01,2013-04-01 22:18:00,
2013-04-01 18:19:00,30.1,16.3,30.01,SSE,163,2.0,4.0,56,0.00,,OVC003,0.00,VWS V14.01,2013-04-01 22:19:00,
2013-04-01 18:20:00,30.1,16.3,30.01,SSE,163,2.0,4.0,56,0.00,,OVC003,0.00,VWS V14.01,2013-04-01 22:20:00,
2013-04-01 18:21:00,29.9,16.5,30.01,NW,322,5.0,5.0,57,0.00,,OVC003,0.00,VWS V14.01,2013-04-01 22:21:00,
2013-04-01 18:22:00,29.8,16.8,30.01,North,351,4.0,7.0,58,0.00,,OVC003,0.00,VWS V14.01,2013-04-01 22:22:00,
2013-04-01 18:23:00,29.7,17.1,30.01,NE,36,6.0,7.0,59,0.00,,OVC003,0.00,VWS V14.01,2013-04-01 22:23:00,
2013-04-01 18:24:00,29.6,17.0,30.01,NNE,25,2.0,7.0,59,0.00,,OVC003,0.00,VWS V14.01,2013-04-01 22:24:00,
2013-04-01 18:25:00,29.6,17.0,30.01,NNE,23,2.0,7.0,59,0.00,,OVC003,0.00,VWS V14.01,2013-04-01 22:25:00,
2013-04-01 18:26:00,29.5,17.3,30.01,NNE,31,5.0,5.0,60,0.00,,OVC003,0.00,VWS V14.01,2013-04-01 22:26:00,
2013-04-01 18:27:00,29.4,17.2,30.01,NE,35,2.0,4.0,60,0.00,,OVC003,0.00,VWS V14.01,2013-04-01 22:27:00,
2013-04-01 18:28:00,29.4,17.6,30.01,NNW,333,2.0,4.0,61,0.00,,OVC003,0.00,VWS V14.01,2013-04-01 22:28:00,
2013-04-01 18:29:00,29.3,17.5,30.02,NNE,21,5.0,5.0,61,0.00,,OVC003,0.00,VWS V14.01,2013-04-01 22:29:00,
2013-04-01 18:30:00,29.3,17.5,30.02,NNE,21,4.0,4.0,61,0.00,,OVC003,0.00,VWS V14.01,2013-04-01 22:30:00,
2013-04-01 18:31:00,29.3,17.9,30.02,NE,45,3.0,3.0,62,0.00,,OVC003,0.00,VWS V14.01,2013-04-01 22:31:00,
2013-04-01 18:32:00,29.2,17.8,30.02,NE,44,2.0,2.0,62,0.00,,OVC003,0.00,VWS V14.01,2013-04-01 22:32:00,
2013-04-01 18:33:00,29.2,17.8,30.02,SSE,163,4.0,4.0,62,0.00,,OVC003,0.00,VWS V14.01,2013-04-01 22:33:00,
2013-04-01 18:35:00,29.1,18.1,30.02,West,260,5.0,5.0,63,0.00,,OVC003,0.00,VWS V14.01,2013-04-01 22:35:00,
2013-04-01 18:36:00,29.0,18.0,30.02,West,260,3.0,3.0,63,0.00,,OVC003,0.00,VWS V14.01,2013-04-01 22:36:00,
2013-04-01 18:37:00,29.0,18.4,30.02,West,260,2.0,3.0,64,0.00,,OVC003,0.00,VWS V14.01,2013-04-01 22:37:00,
2013-04-01 18:38:00,29.0,18.4,30.02,West,260,2.0,3.0,64,0.00,,OVC003,0.00,VWS V14.01,2013-04-01 22:38:00,
2013-04-01 18:39:00,28.9,18.3,30.02,West,260,2.0,3.0,64,0.00,,OVC003,0.00,VWS V14.01,2013-04-01 22:39:00,
2013-04-01 18:40:00,28.9,18.3,30.02,West,260,2.0,3.0,64,0.00,,OVC003,0.00,VWS V14.01,2013-04-01 22:40:00,
2013-04-01 18:41:00,28.9,18.3,30.02,West,260,2.0,0.0,64,0.00,,OVC003,0.00,VWS V14.01,2013-04-01 22:41:00,
2013-04-01 18:42:00,28.8,18.2,30.02,SSW,198,4.0,4.0,64,0.00,,OVC003,0.00,VWS V14.01,2013-04-01 22:42:00,
2013-04-01 18:43:00,28.8,18.2,30.02,NNW,329,3.0,5.0,64,0.00,,OVC003,0.00,VWS V14.01,2013-04-01 22:43:00,
2013-04-01 18:44:00,28.7,17.7,30.02,NNW,329,2.0,5.0,63,0.00,,OVC003,0.00,VWS V14.01,2013-04-01 22:44:00,
2013-04-01 18:45:00,28.8,17.8,30.02,NNW,330,2.0,5.0,63,0.00,,OVC003,0.00,VWS V14.01,2013-04-01 22:45:00,
2013-04-01 18:46:00,28.7,17.7,30.02,NNW,330,2.0,2.0,63,0.00,,OVC003,0.00,VWS V14.01,2013-04-01 22:46:00,
2013-04-01 18:47:00,28.7,17.7,30.02,NNW,330,2.0,2.0,63,0.00,,OVC003,0.00,VWS V14.01,2013-04-01 22:47:00,
2013-04-01 18:48:00,28.6,17.6,30.02,NNW,330,2.0,2.0,63,0.00,,OVC003,0.00,VWS V14.01,2013-04-01 22:48:00,
2013-04-01 18:49:00,28.6,17.6,30.02,SW,233,4.0,4.0,63,0.00,,OVC003,0.00,VWS V14.01,2013-04-01 22:49:00,
2013-04-01 18:50:00,28.6,17.6,30.02,SW,233,2.0,2.0,63,0.00,,OVC003,0.00,VWS V14.01,2013-04-01 22:50:00,
2013-04-01 18:51:00,28.5,17.5,30.02,SW,233,2.0,2.0,63,0.00,,OVC003,0.00,VWS V14.01,2013-04-01 22:51:00,
2013-04-01 18:52:00,28.5,17.5,30.02,SW,233,2.0,2.0,63,0.00,,OVC003,0.00,VWS V14.01,2013-04-01 22:52:00,
2013-04-01 18:53:00,28.5,17.5,30.02,SW,233,2.0,2.0,63,0.00,,OVC003,0.00,VWS V14.01,2013-04-01 22:53:00,
2013-04-01 18:54:00,28.5,17.5,30.02,SW,233,2.0,2.0,63,0.00,,OVC003,0.00,VWS V14.01,2013-04-01 22:54:00,
2013-04-01 18:55:00,28.5,17.5,30.02,SW,233,2.0,2.0,63,0.00,,OVC003,0.00,VWS V14.01,2013-04-01 22:55:00,
2013-04-01 18:56:00,28.5,17.5,30.02,SW,233,2.0,0.0,63,0.00,,OVC003,0.00,VWS V14.01,2013-04-01 22:56:00,
2013-04-01 18:57:00,28.5,17.5,30.02,SW,233,2.0,0.0,63,0.00,,OVC003,0.00,VWS V14.01,2013-04-01 22:57:00,
2013-04-01 18:58:00,28.4,17.4,30.02,SW,233,3.0,3.0,63,0.00,,OVC003,0.00,VWS V14.01,2013-04-01 22:58:00,
2013-04-01 18:59:00,28.4,17.4,30.02,SW,233,3.0,3.0,63,0.00,,OVC003,0.00,VWS V14.01,2013-04-01 22:59:00,
2013-04-01 19:00:00,28.4,17.4,30.02,SW,233,3.0,3.0,63,0.00,,OVC003,0.00,VWS V14.01,2013-04-01 23:00:00,
2013-04-01 19:01:00,28.4,17.4,30.02,SW,233,2.0,2.0,63,0.00,,OVC003,0.00,VWS V14.01,2013-04-01 23:01:00,
2013-04-01 19:02:00,28.4,17.4,30.02,SW,233,3.0,3.0,63,0.00,,OVC003,0.00,VWS V14.01,2013-04-01 23:02:00,
2013-04-01 19:03:00,28.4,17.4,30.02,SW,233,2.0,2.0,63,0.00,,OVC003,0.00,VWS V14.01,2013-04-01 23:03:00,
2013-04-01 19:04:00,28.4,17.4,30.02,SW,233,4.0,4.0,63,0.00,,OVC003,0.00,VWS V14.01,2013-04-01 23:04:00,
2013-04-01 19:05:00,28.4,17.4,30.02,WSW,254,4.0,5.0,63,0.00,,OVC003,0.00,VWS V14.01,2013-04-01 23:05:00,
2013-04-01 19:06:00,28.4,17.4,30.02,South,175,5.0,5.0,63,0.00,,OVC003,0.00,VWS V14.01,2013-04-01 23:06:00,
2013-04-01 19:07:00,28.4,17.4,30.02,WSW,250,2.0,4.0,63,0.00,,OVC003,0.00,VWS V14.01,2013-04-01 23:07:00,
2013-04-01 19:08:00,28.4,17.4,30.02,WSW,253,7.0,7.0,63,0.00,,OVC003,0.00,VWS V14.01,2013-04-01 23:08:00,
2013-04-01 19:09:00,28.4,17.1,30.02,WSW,253,3.0,5.0,62,0.00,,OVC003,0.00,VWS V14.01,2013-04-01 23:09:00,
2013-04-01 19:10:00,28.4,17.1,30.02,WSW,253,2.0,5.0,62,0.00,,OVC003,0.00,VWS V14.01,2013-04-01 23:10:00,
2013-04-01 19:11:00,28.4,17.1,30.02,WSW,253,2.0,2.0,62,0.00,,OVC003,0.00,VWS V14.01,2013-04-01 23:11:00,
2013-04-01 19:12:00,28.3,17.0,30.02,WSW,253,2.0,2.0,62,0.00,,OVC003,0.00,VWS V14.01,2013-04-01 23:12:00,
2013-04-01 19:13:00,28.3,17.0,30.02,WSW,253,2.0,2.0,62,0.00,,OVC003,0.00,VWS V14.01,2013-04-01 23:13:00,
2013-04-01 19:14:00,28.4,17.1,30.03,WSW,253,2.0,2.0,62,0.00,,OVC003,0.00,VWS V14.01,2013-04-01 23:14:00,
2013-04-01 19:15:00,28.3,17.0,30.03,SW,224,6.0,7.0,62,0.00,,OVC003,0.00,VWS V14.01,2013-04-01 23:15:00,
2013-04-01 19:16:00,28.3,17.0,30.03,SSW,210,3.0,7.0,62,0.00,,OVC003,0.00,VWS V14.01,2013-04-01 23:16:00,
2013-04-01 19:17:00,28.3,17.0,30.03,SSW,210,2.0,7.0,62,0.00,,OVC003,0.00,VWS V14.01,2013-04-01 23:17:00,
2013-04-01 19:18:00,28.3,17.3,30.03,SW,217,2.0,7.0,63,0.00,,OVC003,0.00,VWS V14.01,2013-04-01 23:18:00,
2013-04-01 19:19:00,28.3,17.0,30.03,SW,217,3.0,7.0,62,0.00,,OVC003,0.00,VWS V14.01,2013-04-01 23:19:00,
2013-04-01 19:20:00,28.3,17.0,30.03,SW,217,3.0,7.0,62,0.00,,OVC003,0.00,VWS V14.01,2013-04-01 23:20:00,
2013-04-01 19:21:00,28.4,17.1,30.03,WNW,291,4.0,6.0,62,0.00,,OVC003,0.00,VWS V14.01,2013-04-01 23:21:00,
2013-04-01 19:22:00,28.4,17.1,30.03,WNW,291,3.0,6.0,62,0.00,,OVC003,0.00,VWS V14.01,2013-04-01 23:22:00,
2013-04-01 19:23:00,28.4,17.4,30.03,WNW,292,4.0,6.0,63,0.00,,OVC003,0.00,VWS V14.01,2013-04-01 23:23:00,
2013-04-01 19:24:00,28.4,17.4,30.03,WSW,242,2.0,6.0,63,0.00,,OVC003,0.00,VWS V14.01,2013-04-01 23:24:00,
2013-04-01 19:25:00,28.4,17.4,30.03,WSW,242,4.0,6.0,63,0.00,,OVC003,0.00,VWS V14.01,2013-04-01 23:25:00,
2013-04-01 19:26:00,28.5,17.5,30.03,South,189,4.0,4.0,63,0.00,,OVC003,0.00,VWS V14.01,2013-04-01 23:26:00,
2013-04-01 19:27:00,28.5,17.9,30.03,SW,230,4.0,4.0,64,0.00,,OVC003,0.00,VWS V14.01,2013-04-01 23:27:00,
2013-04-01 19:28:00,28.5,17.9,30.03,West,276,2.0,7.0,64,0.00,,OVC003,0.00,VWS V14.01,2013-04-01 23:28:00,
2013-04-01 19:29:00,28.4,17.8,30.03,WNW,296,4.0,7.0,64,0.00,,OVC003,0.00,VWS V14.01,2013-04-01 23:29:00,
2013-04-01 19:30:00,28.4,17.8,30.03,SW,224,4.0,7.0,64,0.00,,OVC003,0.00,VWS V14.01,2013-04-01 23:30:00,
2013-04-01 19:31:00,28.4,17.8,30.03,SW,234,3.0,3.0,64,0.00,,OVC003,0.00,VWS V14.01,2013-04-01 23:31:00,
2013-04-01 19:32:00,28.4,17.8,30.03,SW,234,2.0,3.0,64,0.00,,OVC003,0.00,VWS V14.01,2013-04-01 23:32:00,
2013-04-01 19:33:00,28.3,17.7,30.03,SW,234,2.0,3.0,64,0.00,,OVC003,0.00,VWS V14.01,2013-04-01 23:33:00,
2013-04-01 19:35:00,28.3,17.7,30.03,SW,234,2.0,0.0,64,0.00,,OVC003,0.00,VWS V14.01,2013-04-01 23:35:00,
2013-04-01 19:36:00,28.3,17.7,30.03,SW,234,2.0,2.0,64,0.00,,OVC003,0.00,VWS V14.01,2013-04-01 23:36:00,
2013-04-01 19:37:00,28.2,17.6,30.03,SW,234,2.0,2.0,64,0.00,,OVC003,0.00,VWS V14.01,2013-04-01 23:37:00,
2013-04-01 19:38:00,28.2,17.6,30.03,SW,234,2.0,2.0,64,0.00,,OVC003,0.00,VWS V14.01,2013-04-01 23:38:00,
2013-04-01 19:40:00,28.2,17.6,30.03,SW,234,3.0,3.0,64,0.00,,OVC003,0.00,VWS V14.01,2013-04-01 23:40:00,
2013-04-01 19:41:00,28.2,17.6,30.03,SW,234,3.0,3.0,64,0.00,,OVC003,0.00,VWS V14.01,2013-04-01 23:41:00,
2013-04-01 19:42:00,28.1,17.5,30.03,SW,234,2.0,2.0,64,0.00,,OVC003,0.00,VWS V14.01,2013-04-01 23:42:00,
2013-04-01 19:43:00,28.1,17.5,30.03,SW,234,2.0,2.0,64,0.00,,OVC003,0.00,VWS V14.01,2013-04-01 23:43:00,
2013-04-01 19:44:00,28.1,17.5,30.03,SW,234,2.0,2.0,64,0.00,,OVC003,0.00,VWS V14.01,2013-04-01 23:44:00,
2013-04-01 19:45:00,28.1,17.5,30.03,SW,234,2.0,2.0,64,0.00,,OVC003,0.00,VWS V14.01,2013-04-01 23:45:00,
2013-04-01 19:46:00,28.1,17.5,30.03,SW,234,2.0,0.0,64,0.00,,OVC003,0.00,VWS V14.01,2013-04-01 23:46:00,
2013-04-01 19:47:00,28.0,17.4,30.03,SW,234,2.0,0.0,64,0.00,,OVC003,0.00,VWS V14.01,2013-04-01 23:47:00,
2013-04-01 19:48:00,28.0,17.4,30.03,SW,234,2.0,2.0,64,0.00,,OVC003,0.00,VWS V14.01,2013-04-01 23:48:00,
2013-04-01 19:49:00,28.0,17.4,30.03,SW,234,2.0,2.0,64,0.00,,OVC003,0.00,VWS V14.01,2013-04-01 23:49:00,
2013-04-01 19:50:00,28.0,17.4,30.03,SW,234,2.0,2.0,64,0.00,,OVC003,0.00,VWS V14.01,2013-04-01 23:50:00,
2013-04-01 19:51:00,27.9,17.0,30.03,SW,234,2.0,2.0,63,0.00,,OVC003,0.00,VWS V14.01,2013-04-01 23:51:00,
2013-04-01 19:52:00,27.9,17.3,30.03,SW,234,2.0,2.0,64,0.00,,OVC003,0.00,VWS V14.01,2013-04-01 23:52:00,
2013-04-01 19:53:00,27.9,17.0,30.03,SW,234,2.0,2.0,63,0.00,,OVC003,0.00,VWS V14.01,2013-04-01 23:53:00,
2013-04-01 19:54:00,27.8,16.9,30.03,SW,234,2.0,2.0,63,0.00,,OVC003,0.00,VWS V14.01,2013-04-01 23:54:00,
2013-04-01 19:55:00,27.8,16.9,30.03,SW,234,3.0,3.0,63,0.00,,OVC003,0.00,VWS V14.01,2013-04-01 23:55:00,
2013-04-01 19:56:00,27.8,16.9,30.03,SW,234,2.0,2.0,63,0.00,,OVC003,0.00,VWS V14.01,2013-04-01 23:56:00,
2013-04-01 19:57:00,27.8,16.9,30.03,SW,234,2.0,2.0,63,0.00,,OVC003,0.00,VWS V14.01,2013-04-01 23:57:00,
2013-04-01 19:58:00,27.8,17.2,30.03,SW,234,2.0,2.0,64,0.00,,OVC003,0.00,VWS V14.01,2013-04-01 23:58:00,
2013-04-01 19:59:00,27.7,17.1,30.03,SW,234,2.0,2.0,64,0.00,,OVC003,0.00,VWS V14.01,2013-04-01 23:59:00,
2013-04-01 20:00:00,27.7,17.1,30.03,SW,234,2.0,2.0,64,0.00,,OVC003,0.00,VWS V14.01,2013-04-02 00:00:00,
2013-04-01 20:01:00,27.7,17.1,30.03,SW,234,3.0,3.0,64,0.00,,OVC003,0.00,VWS V14.01,2013-04-02 00:01:00,
2013-04-01 20:02:00,27.7,16.8,30.03,SW,234,2.0,2.0,63,0.00,,OVC003,0.00,VWS V14.01,2013-04-02 00:02:00,
2013-04-01 20:03:00,27.6,16.7,30.03,SW,234,2.0,2.0,63,0.00,,OVC003,0.00,VWS V14.01,2013-04-02 00:03:00,
2013-04-01 20:04:00,27.6,16.7,30.03,SW,234,2.0,2.0,63,0.00,,OVC003,0.00,VWS V14.01,2013-04-02 00:04:00,
2013-04-01 20:05:00,27.6,16.7,30.03,SW,234,2.0,2.0,63,0.00,,OVC003,0.00,VWS V14.01,2013-04-02 00:05:00,
2013-04-01 20:06:00,27.6,16.7,30.03,SW,234,2.0,0.0,63,0.00,,OVC003,0.00,VWS V14.01,2013-04-02 00:06:00,
2013-04-01 20:07:00,27.6,16.7,30.03,SW,234,2.0,0.0,63,0.00,,OVC003,0.00,VWS V14.01,2013-04-02 00:07:00,
2013-04-01 20:08:00,27.6,16.7,30.03,SW,234,2.0,0.0,63,0.00,,OVC003,0.00,VWS V14.01,2013-04-02 00:08:00,
2013-04-01 20:09:00,27.5,16.6,30.03,SW,234,2.0,0.0,63,0.00,,OVC003,0.00,VWS V14.01,2013-04-02 00:09:00,
2013-04-01 20:10:00,27.6,16.7,30.03,SW,234,2.0,0.0,63,0.00,,OVC003,0.00,VWS V14.01,2013-04-02 00:10:00,
2013-04-01 20:11:00,27.5,16.6,30.03,SW,234,2.0,2.0,63,0.00,,OVC003,0.00,VWS V14.01,2013-04-02 00:11:00,
2013-04-01 20:12:00,27.5,16.6,30.03,SW,234,2.0,2.0,63,0.00,,OVC003,0.00,VWS V14.01,2013-04-02 00:12:00,
2013-04-01 20:13:00,27.5,16.6,30.03,SW,234,2.0,2.0,63,0.00,,OVC003,0.00,VWS V14.01,2013-04-02 00:13:00,
2013-04-01 20:14:00,27.5,16.6,30.03,SW,234,2.0,2.0,63,0.00,,OVC003,0.00,VWS V14.01,2013-04-02 00:14:00,
2013-04-01 20:15:00,27.5,16.6,30.03,SW,234,2.0,0.0,63,0.00,,OVC003,0.00,VWS V14.01,2013-04-02 00:15:00,
2013-04-01 20:16:00,27.5,16.6,30.03,SW,234,2.0,0.0,63,0.00,,OVC003,0.00,VWS V14.01,2013-04-02 00:16:00,
2013-04-01 20:17:00,27.4,16.5,30.03,SW,234,2.0,0.0,63,0.00,,OVC003,0.00,VWS V14.01,2013-04-02 00:17:00,
2013-04-01 20:18:00,27.4,16.5,30.03,SW,234,2.0,0.0,63,0.00,,OVC003,0.00,VWS V14.01,2013-04-02 00:18:00,
2013-04-01 20:19:00,27.4,16.5,30.03,SW,234,2.0,0.0,63,0.00,,OVC003,0.00,VWS V14.01,2013-04-02 00:19:00,
2013-04-01 20:20:00,27.4,16.5,30.03,SW,234,2.0,0.0,63,0.00,,OVC003,0.00,VWS V14.01,2013-04-02 00:20:00,
2013-04-01 20:21:00,27.4,16.5,30.03,SW,234,2.0,0.0,63,0.00,,OVC003,0.00,VWS V14.01,2013-04-02 00:21:00,
2013-04-01 20:22:00,27.4,16.5,30.03,SW,234,2.0,0.0,63,0.00,,OVC003,0.00,VWS V14.01,2013-04-02 00:22:00,
2013-04-01 20:23:00,27.3,16.4,30.03,SW,234,2.0,0.0,63,0.00,,OVC003,0.00,VWS V14.01,2013-04-02 00:23:00,
2013-04-01 20:24:00,27.3,16.4,30.03,SW,234,2.0,0.0,63,0.00,,OVC003,0.00,VWS V14.01,2013-04-02 00:24:00,
2013-04-01 20:25:00,27.3,16.4,30.03,SW,234,2.0,0.0,63,0.00,,OVC003,0.00,VWS V14.01,2013-04-02 00:25:00,
2013-04-01 20:26:00,27.2,16.3,30.03,SW,234,2.0,0.0,63,0.00,,OVC003,0.00,VWS V14.01,2013-04-02 00:26:00,
2013-04-01 20:27:00,27.2,16.3,30.03,SW,234,2.0,0.0,63,0.00,,OVC003,0.00,VWS V14.01,2013-04-02 00:27:00,
2013-04-01 20:28:00,27.2,16.3,30.03,SW,234,2.0,0.0,63,0.00,,OVC003,0.00,VWS V14.01,2013-04-02 00:28:00,
2013-04-01 20:29:00,27.2,16.3,30.03,SW,234,2.0,0.0,63,0.00,,OVC003,0.00,VWS V14.01,2013-04-02 00:29:00,
2013-04-01 20:30:00,27.1,16.2,30.03,SW,234,2.0,0.0,63,0.00,,OVC003,0.00,VWS V14.01,2013-04-02 00:30:00,
2013-04-01 20:31:00,27.1,16.2,30.03,SW,234,2.0,0.0,63,0.00,,OVC003,0.00,VWS V14.01,2013-04-02 00:31:00,
2013-04-01 20:32:00,27.1,16.2,30.03,SW,234,2.0,0.0,63,0.00,,OVC003,0.00,VWS V14.01,2013-04-02 00:32:00,
2013-04-01 20:33:00,27.1,16.2,30.03,SW,234,2.0,0.0,63,0.00,,OVC003,0.00,VWS V14.01,2013-04-02 00:33:00,
2013-04-01 20:34:00,27.0,16.1,30.03,SW,234,2.0,0.0,63,0.00,,OVC003,0.00,VWS V14.01,2013-04-02 00:34:00,
2013-04-01 20:35:00,27.0,16.1,30.03,SW,234,2.0,0.0,63,0.00,,OVC003,0.00,VWS V14.01,2013-04-02 00:35:00,
2013-04-01 20:36:00,27.0,16.1,30.03,SW,234,2.0,0.0,63,0.00,,OVC003,0.00,VWS V14.01,2013-04-02 00:36:00,
2013-04-01 20:37:00,26.9,16.0,30.03,SW,234,2.0,0.0,63,0.00,,OVC003,0.00,VWS V14.01,2013-04-02 00:37:00,
2013-04-01 20:38:00,26.9,16.0,30.03,SW,234,2.0,0.0,63,0.00,,OVC003,0.00,VWS V14.01,2013-04-02 00:38:00,
2013-04-01 20:39:00,26.9,16.0,30.03,SW,234,2.0,0.0,63,0.00,,OVC003,0.00,VWS V14.01,2013-04-02 00:39:00,
2013-04-01 20:40:00,26.8,15.9,30.03,SW,234,2.0,0.0,63,0.00,,OVC003,0.00,VWS V14.01,2013-04-02 00:40:00,
2013-04-01 20:41:00,26.8,15.9,30.03,SW,234,2.0,0.0,63,0.00,,OVC003,0.00,VWS V14.01,2013-04-02 00:41:00,
2013-04-01 20:42:00,26.7,15.8,30.03,SW,234,2.0,0.0,63,0.00,,OVC003,0.00,VWS V14.01,2013-04-02 00:42:00,
2013-04-01 20:43:00,26.7,15.8,30.03,SW,234,2.0,0.0,63,0.00,,OVC003,0.00,VWS V14.01,2013-04-02 00:43:00,
2013-04-01 20:44:00,26.7,15.8,30.03,SW,234,2.0,0.0,63,0.00,,OVC003,0.00,VWS V14.01,2013-04-02 00:44:00,
2013-04-01 20:45:00,26.7,15.8,30.03,SW,234,2.0,0.0,63,0.00,,OVC003,0.00,VWS V14.01,2013-04-02 00:45:00,
2013-04-01 20:46:00,26.6,15.7,30.03,SW,234,2.0,0.0,63,0.00,,OVC003,0.00,VWS V14.01,2013-04-02 00:46:00,
2013-04-01 20:47:00,26.6,15.7,30.03,SW,234,2.0,0.0,63,0.00,,OVC003,0.00,VWS V14.01,2013-04-02 00:47:00,
2013-04-01 20:48:00,26.5,16.0,30.03,SW,234,2.0,0.0,64,0.00,,OVC003,0.00,VWS V14.01,2013-04-02 00:48:00,
2013-04-01 20:49:00,26.5,16.0,30.03,SW,234,2.0,0.0,64,0.00,,OVC003,0.00,VWS V14.01,2013-04-02 00:49:00,
2013-04-01 20:50:00,26.5,16.0,30.03,SW,234,2.0,0.0,64,0.00,,OVC003,0.00,VWS V14.01,2013-04-02 00:50:00,
2013-04-01 20:51:00,26.4,15.9,30.03,SW,234,2.0,0.0,64,0.00,,OVC003,0.00,VWS V14.01,2013-04-02 00:51:00,
2013-04-01 20:52:00,26.4,15.9,30.03,SW,234,2.0,0.0,64,0.00,,OVC003,0.00,VWS V14.01,2013-04-02 00:52:00,
2013-04-01 20:53:00,26.3,15.8,30.03,SW,234,2.0,0.0,64,0.00,,OVC003,0.00,VWS V14.01,2013-04-02 00:53:00,
2013-04-01 20:54:00,26.3,15.8,30.03,SW,234,2.0,0.0,64,0.00,,OVC003,0.00,VWS V14.01,2013-04-02 00:54:00,
2013-04-01 20:55:00,26.3,15.8,30.03,SW,234,2.0,0.0,64,0.00,,OVC003,0.00,VWS V14.01,2013-04-02 00:55:00,
2013-04-01 20:56:00,26.2,15.7,30.03,SW,234,2.0,0.0,64,0.00,,OVC003,0.00,VWS V14.01,2013-04-02 00:56:00,
2013-04-01 20:57:00,26.2,15.7,30.03,SW,234,2.0,0.0,64,0.00,,OVC003,0.00,VWS V14.01,2013-04-02 00:57:00,
2013-04-01 20:58:00,26.2,15.7,30.03,SW,234,2.0,0.0,64,0.00,,OVC003,0.00,VWS V14.01,2013-04-02 00:58:00,
2013-04-01 20:59:00,26.2,15.7,30.04,SW,234,2.0,0.0,64,0.00,,OVC003,0.00,VWS V14.01,2013-04-02 00:59:00,
2013-04-01 21:00:00,26.2,16.1,30.04,SW,234,2.0,0.0,65,0.00,,OVC003,0.00,VWS V14.01,2013-04-02 01:00:00,
2013-04-01 21:01:00,26.1,16.0,30.04,SW,234,2.0,0.0,65,0.00,,OVC003,0.00,VWS V14.01,2013-04-02 01:01:00,
2013-04-01 21:02:00,26.1,16.3,30.04,SW,234,2.0,0.0,66,0.00,,OVC003,0.00,VWS V14.01,2013-04-02 01:02:00,
2013-04-01 21:03:00,26.1,16.3,30.04,SW,234,2.0,0.0,66,0.00,,OVC003,0.00,VWS V14.01,2013-04-02 01:03:00,
2013-04-01 21:04:00,26.1,16.3,30.04,SW,234,2.0,0.0,66,0.00,,OVC003,0.00,VWS V14.01,2013-04-02 01:04:00,
2013-04-01 21:05:00,26.1,16.7,30.04,SW,234,2.0,0.0,67,0.00,,OVC003,0.00,VWS V14.01,2013-04-02 01:05:00,
2013-04-01 21:06:00,26.1,16.7,30.04,SW,234,2.0,0.0,67,0.00,,OVC003,0.00,VWS V14.01,2013-04-02 01:06:00,
2013-04-01 21:07:00,26.0,16.9,30.04,SW,234,2.0,0.0,68,0.00,,OVC003,0.00,VWS V14.01,2013-04-02 01:07:00,
2013-04-01 21:08:00,26.0,16.9,30.04,SW,234,2.0,0.0,68,0.00,,OVC003,0.00,VWS V14.01,2013-04-02 01:08:00,
2013-04-01 21:09:00,25.9,16.8,30.04,SW,234,2.0,0.0,68,0.00,,OVC003,0.00,VWS V14.01,2013-04-02 01:09:00,
2013-04-01 21:10:00,25.9,16.8,30.04,SW,234,2.0,0.0,68,0.00,,OVC003,0.00,VWS V14.01,2013-04-02 01:10:00,
2013-04-01 21:11:00,25.9,17.1,30.04,SW,234,2.0,0.0,69,0.00,,OVC003,0.00,VWS V14.01,2013-04-02 01:11:00,
2013-04-01 21:12:00,25.8,17.0,30.04,SW,234,2.0,0.0,69,0.00,,OVC003,0.00,VWS V14.01,2013-04-02 01:12:00,
2013-04-01 21:13:00,25.8,17.0,30.04,SW,234,2.0,0.0,69,0.00,,OVC003,0.00,VWS V14.01,2013-04-02 01:13:00,
2013-04-01 21:14:00,25.8,17.0,30.04,SW,234,2.0,0.0,69,0.00,,OVC003,0.00,VWS V14.01,2013-04-02 01:14:00,
2013-04-01 21:15:00,25.8,17.0,30.04,SW,234,2.0,0.0,69,0.00,,OVC003,0.00,VWS V14.01,2013-04-02 01:15:00,
2013-04-01 21:16:00,25.7,17.0,30.04,SW,234,2.0,0.0,69,0.00,,OVC003,0.00,VWS V14.01,2013-04-02 01:16:00,
2013-04-01 21:17:00,25.7,17.3,30.04,SW,234,2.0,0.0,70,0.00,,OVC003,0.00,VWS V14.01,2013-04-02 01:17:00,
2013-04-01 21:18:00,25.6,17.2,30.04,SW,234,2.0,0.0,70,0.00,,OVC003,0.00,VWS V14.01,2013-04-02 01:18:00,
2013-04-01 21:19:00,25.6,17.2,30.04,SW,234,2.0,0.0,70,0.00,,OVC003,0.00,VWS V14.01,2013-04-02 01:19:00,
2013-04-01 21:20:00,25.6,17.2,30.04,SW,234,2.0,0.0,70,0.00,,OVC003,0.00,VWS V14.01,2013-04-02 01:20:00,
2013-04-01 21:21:00,25.6,17.5,30.04,SW,234,2.0,0.0,71,0.00,,OVC003,0.00,VWS V14.01,2013-04-02 01:21:00,
2013-04-01 21:22:00,25.6,17.5,30.04,SW,234,2.0,0.0,71,0.00,,OVC003,0.00,VWS V14.01,2013-04-02 01:22:00,
2013-04-01 21:23:00,25.5,17.4,30.04,SW,234,2.0,0.0,71,0.00,,OVC003,0.00,VWS V14.01,2013-04-02 01:23:00,
2013-04-01 21:24:00,25.5,17.4,30.04,SW,234,2.0,0.0,71,0.00,,OVC003,0.00,VWS V14.01,2013-04-02 01:24:00,
2013-04-01 21:25:00,25.5,17.4,30.04,SW,234,2.0,0.0,71,0.00,,OVC003,0.00,VWS V14.01,2013-04-02 01:25:00,
2013-04-01 21:26:00,25.5,17.4,30.04,SW,234,2.0,0.0,71,0.00,,OVC003,0.00,VWS V14.01,2013-04-02 01:26:00,
2013-04-01 21:27:00,25.4,17.3,30.04,SW,234,2.0,0.0,71,0.00,,OVC003,0.00,VWS V14.01,2013-04-02 01:27:00,
2013-04-01 21:28:00,25.4,17.3,30.04,SW,234,2.0,0.0,71,0.00,,OVC003,0.00,VWS V14.01,2013-04-02 01:28:00,
2013-04-01 21:29:00,25.4,17.3,30.04,SW,234,2.0,0.0,71,0.00,,OVC003,0.00,VWS V14.01,2013-04-02 01:29:00,
2013-04-01 21:30:00,25.4,17.3,30.04,SW,234,2.0,0.0,71,0.00,,OVC003,0.00,VWS V14.01,2013-04-02 01:30:00,
2013-04-01 21:31:00,25.3,17.2,30.04,SW,234,2.0,0.0,71,0.00,,OVC003,0.00,VWS V14.01,2013-04-02 01:31:00,
2013-04-01 21:32:00,25.3,16.9,30.04,SW,234,2.0,0.0,70,0.00,,OVC003,0.00,VWS V14.01,2013-04-02 01:32:00,
2013-04-01 21:33:00,25.3,16.9,30.04,SW,234,2.0,0.0,70,0.00,,OVC003,0.00,VWS V14.01,2013-04-02 01:33:00,
2013-04-01 21:35:00,25.3,16.9,30.04,SW,234,2.0,0.0,70,0.00,,OVC003,0.00,VWS V14.01,2013-04-02 01:35:00,
2013-04-01 21:36:00,25.4,17.0,30.04,SW,234,2.0,0.0,70,0.00,,OVC003,0.00,VWS V14.01,2013-04-02 01:36:00,
2013-04-01 21:37:00,25.4,17.0,30.04,SW,234,2.0,0.0,70,0.00,,OVC003,0.00,VWS V14.01,2013-04-02 01:37:00,
2013-04-01 21:39:00,25.4,17.0,30.04,SW,234,2.0,0.0,70,0.00,,OVC003,0.00,VWS V14.01,2013-04-02 01:39:00,
2013-04-01 21:40:00,25.5,16.8,30.04,SW,234,2.0,0.0,69,0.00,,OVC003,0.00,VWS V14.01,2013-04-02 01:40:00,
2013-04-01 21:41:00,25.5,16.8,30.04,SW,234,2.0,0.0,69,0.00,,OVC003,0.00,VWS V14.01,2013-04-02 01:41:00,
2013-04-01 21:42:00,25.6,16.9,30.04,SW,234,2.0,0.0,69,0.00,,OVC003,0.00,VWS V14.01,2013-04-02 01:42:00,
2013-04-01 21:43:00,25.6,16.9,30.04,SW,234,2.0,0.0,69,0.00,,OVC003,0.00,VWS V14.01,2013-04-02 01:43:00,
2013-04-01 21:44:00,25.7,17.0,30.04,WNW,284,3.0,3.0,69,0.00,,OVC003,0.00,VWS V14.01,2013-04-02 01:44:00,
2013-04-01 21:45:00,25.7,16.6,30.04,WNW,284,2.0,3.0,68,0.00,,OVC003,0.00,VWS V14.01,2013-04-02 01:45:00,
2013-04-01 21:46:00,25.8,16.4,30.04,WNW,284,2.0,0.0,67,0.00,,OVC003,0.00,VWS V14.01,2013-04-02 01:46:00,
2013-04-01 21:47:00,25.9,16.5,30.04,WNW,284,2.0,0.0,67,0.00,,OVC003,0.00,VWS V14.01,2013-04-02 01:47:00,
2013-04-01 21:48:00,26.0,16.6,30.04,WNW,284,3.0,3.0,67,0.00,,OVC003,0.00,VWS V14.01,2013-04-02 01:48:00,
2013-04-01 21:49:00,26.0,16.6,30.04,WNW,284,2.0,2.0,67,0.00,,OVC003,0.00,VWS V14.01,2013-04-02 01:49:00,
2013-04-01 21:50:00,26.1,16.7,30.04,WNW,284,3.0,3.0,67,0.00,,OVC003,0.00,VWS V14.01,2013-04-02 01:50:00,
2013-04-01 21:51:00,26.2,16.4,30.04,WNW,284,3.0,3.0,66,0.00,,OVC003,0.00,VWS V14.01,2013-04-02 01:51:00,
2013-04-01 21:52:00,26.2,16.4,30.04,WNW,284,3.0,3.0,66,0.00,,OVC003,0.00,VWS V14.01,2013-04-02 01:52:00,
2013-04-01 21:53:00,26.3,16.5,30.04,WNW,284,2.0,2.0,66,0.00,,OVC003,0.00,VWS V14.01,2013-04-02 01:53:00,
2013-04-01 21:54:00,26.3,16.5,30.04,WNW,284,2.0,2.0,66,0.00,,OVC003,0.00,VWS V14.01,2013-04-02 01:54:00,
2013-04-01 21:55:00,26.4,16.6,30.04,WNW,284,2.0,0.0,66,0.00,,OVC003,0.00,VWS V14.01,2013-04-02 01:55:00,
2013-04-01 21:56:00,26.5,16.7,30.04,WNW,284,2.0,0.0,66,0.00,,OVC003,0.00,VWS V14.01,2013-04-02 01:56:00,
2013-04-01 21:57:00,26.5,16.7,30.04,WNW,284,2.0,0.0,66,0.00,,OVC003,0.00,VWS V14.01,2013-04-02 01:57:00,
2013-04-01 21:58:00,26.5,16.7,30.04,WNW,284,2.0,0.0,66,0.00,,OVC003,0.00,VWS V14.01,2013-04-02 01:58:00,
2013-04-01 21:59:00,26.5,16.7,30.04,WNW,284,2.0,0.0,66,0.00,,OVC003,0.00,VWS V14.01,2013-04-02 01:59:00,
2013-04-01 22:00:00,26.6,16.8,30.04,WNW,284,3.0,3.0,66,0.00,,OVC003,0.00,VWS V14.01,2013-04-02 02:00:00,
2013-04-01 22:01:00,26.5,16.3,30.04,WNW,284,2.0,2.0,65,0.00,,OVC003,0.00,VWS V14.01,2013-04-02 02:01:00,
2013-04-01 22:02:00,26.6,16.4,30.04,WNW,284,2.0,2.0,65,0.00,,OVC003,0.00,VWS V14.01,2013-04-02 02:02:00,
2013-04-01 22:03:00,26.5,16.3,30.04,WNW,284,2.0,2.0,65,0.00,,OVC003,0.00,VWS V14.01,2013-04-02 02:03:00,
2013-04-01 22:04:00,26.6,16.1,30.04,WNW,284,3.0,3.0,64,0.00,,OVC003,0.00,VWS V14.01,2013-04-02 02:04:00,
2013-04-01 22:05:00,26.5,16.0,30.04,WNW,284,2.0,2.0,64,0.00,,OVC003,0.00,VWS V14.01,2013-04-02 02:05:00,
2013-04-01 22:06:00,26.5,16.0,30.04,WNW,284,2.0,2.0,64,0.00,,OVC003,0.00,VWS V14.01,2013-04-02 02:06:00,
2013-04-01 22:07:00,26.5,16.0,30.04,WNW,284,2.0,2.0,64,0.00,,OVC003,0.00,VWS V14.01,2013-04-02 02:07:00,
2013-04-01 22:08:00,26.5,16.0,30.04,WNW,284,2.0,2.0,64,0.00,,OVC003,0.00,VWS V14.01,2013-04-02 02:08:00,
2013-04-01 22:09:00,26.5,16.0,30.04,WNW,284,2.0,2.0,64,0.00,,OVC003,0.00,VWS V14.01,2013-04-02 02:09:00,
2013-04-01 22:10:00,26.5,15.6,30.04,WNW,284,2.0,2.0,63,0.00,,OVC003,0.00,VWS V14.01,2013-04-02 02:10:00,
2013-04-01 22:11:00,26.5,16.0,30.04,WNW,284,2.0,2.0,64,0.00,,OVC003,0.00,VWS V14.01,2013-04-02 02:11:00,
2013-04-01 22:12:00,26.5,16.0,30.04,WNW,284,2.0,2.0,64,0.00,,OVC003,0.00,VWS V14.01,2013-04-02 02:12:00,
2013-04-01 22:13:00,26.5,15.6,30.04,WNW,284,2.0,2.0,63,0.00,,OVC003,0.00,VWS V14.01,2013-04-02 02:13:00,
2013-04-01 22:14:00,26.5,15.6,30.03,WNW,284,2.0,2.0,63,0.00,,OVC003,0.00,VWS V14.01,2013-04-02 02:14:00,
2013-04-01 22:15:00,26.5,15.6,30.03,WNW,284,2.0,2.0,63,0.00,,OVC003,0.00,VWS V14.01,2013-04-02 02:15:00,
2013-04-01 22:16:00,26.4,15.5,30.03,WNW,284,2.0,0.0,63,0.00,,OVC003,0.00,VWS V14.01,2013-04-02 02:16:00,
2013-04-01 22:17:00,26.4,15.5,30.03,WNW,284,2.0,0.0,63,0.00,,OVC003,0.00,VWS V14.01,2013-04-02 02:17:00,
2013-04-01 22:18:00,26.4,15.5,30.03,WNW,284,2.0,0.0,63,0.00,,OVC003,0.00,VWS V14.01,2013-04-02 02:18:00,
2013-04-01 22:19:00,26.3,15.4,30.03,WNW,284,2.0,2.0,63,0.00,,OVC003,0.00,VWS V14.01,2013-04-02 02:19:00,
2013-04-01 22:20:00,26.4,15.5,30.03,WNW,284,2.0,2.0,63,0.00,,OVC003,0.00,VWS V14.01,2013-04-02 02:20:00,
2013-04-01 22:21:00,26.3,15.8,30.03,WNW,284,2.0,0.0,64,0.00,,OVC003,0.00,VWS V14.01,2013-04-02 02:21:00,
2013-04-01 22:22:00,26.3,15.8,30.03,WNW,284,2.0,0.0,64,0.00,,OVC003,0.00,VWS V14.01,2013-04-02 02:22:00,
2013-04-01 22:23:00,26.3,15.8,30.03,WNW,284,2.0,0.0,64,0.00,,OVC003,0.00,VWS V14.01,2013-04-02 02:23:00,
2013-04-01 22:24:00,26.3,15.8,30.03,WNW,284,2.0,0.0,64,0.00,,OVC003,0.00,VWS V14.01,2013-04-02 02:24:00,
2013-04-01 22:25:00,26.2,15.7,30.03,WNW,284,2.0,0.0,64,0.00,,OVC003,0.00,VWS V14.01,2013-04-02 02:25:00,
2013-04-01 22:26:00,26.2,15.7,30.03,WNW,284,2.0,0.0,64,0.00,,OVC003,0.00,VWS V14.01,2013-04-02 02:26:00,
2013-04-01 22:27:00,26.2,15.7,30.03,WNW,284,2.0,0.0,64,0.00,,OVC003,0.00,VWS V14.01,2013-04-02 02:27:00,
2013-04-01 22:28:00,26.2,15.7,30.03,WNW,284,2.0,0.0,64,0.00,,OVC003,0.00,VWS V14.01,2013-04-02 02:28:00,
2013-04-01 22:30:00,26.2,15.7,30.04,WNW,284,2.0,0.0,64,0.00,,OVC003,0.00,VWS V14.01,2013-04-02 02:30:00,
2013-04-01 22:31:00,26.1,15.6,30.04,WNW,284,2.0,0.0,64,0.00,,OVC003,0.00,VWS V14.01,2013-04-02 02:31:00,
2013-04-01 22:32:00,26.1,15.6,30.04,WNW,284,2.0,0.0,64,0.00,,OVC003,0.00,VWS V14.01,2013-04-02 02:32:00,
2013-04-01 22:33:00,26.1,15.6,30.04,WSW,243,2.0,4.0,64,0.00,,OVC003,0.00,VWS V14.01,2013-04-02 02:33:00,
2013-04-01 22:34:00,26.0,15.5,30.04,WSW,243,2.0,4.0,64,0.00,,OVC003,0.00,VWS V14.01,2013-04-02 02:34:00,
2013-04-01 22:35:00,26.0,15.5,30.04,WSW,243,2.0,4.0,64,0.00,,OVC003,0.00,VWS V14.01,2013-04-02 02:35:00,
2013-04-01 22:36:00,26.0,15.9,30.04,WSW,243,2.0,0.0,65,0.00,,OVC003,0.00,VWS V14.01,2013-04-02 02:36:00,
2013-04-01 22:37:00,26.0,15.9,30.04,WSW,243,2.0,0.0,65,0.00,,OVC003,0.00,VWS V14.01,2013-04-02 02:37:00,
2013-04-01 22:38:00,26.0,15.9,30.04,WSW,243,2.0,2.0,65,0.00,,OVC003,0.00,VWS V14.01,2013-04-02 02:38:00,
2013-04-01 22:39:00,26.0,15.9,30.04,WSW,243,2.0,2.0,65,0.00,,OVC003,0.00,VWS V14.01,2013-04-02 02:39:00,
2013-04-01 22:40:00,25.9,15.8,30.04,West,263,2.0,2.0,65,0.00,,OVC003,0.00,VWS V14.01,2013-04-02 02:40:00,
2013-04-01 22:41:00,25.9,15.8,30.04,West,263,2.0,0.0,65,0.00,,OVC003,0.00,VWS V14.01,2013-04-02 02:41:00,
2013-04-01 22:42:00,25.9,15.8,30.04,West,263,2.0,0.0,65,0.00,,OVC003,0.00,VWS V14.01,2013-04-02 02:42:00,
2013-04-01 22:43:00,25.9,15.8,30.04,West,263,2.0,0.0,65,0.00,,OVC003,0.00,VWS V14.01,2013-04-02 02:43:00,
2013-04-01 22:44:00,25.9,15.8,30.04,West,263,2.0,0.0,65,0.00,,OVC003,0.00,VWS V14.01,2013-04-02 02:44:00,
2013-04-01 22:45:00,25.9,15.8,30.04,West,263,2.0,0.0,65,0.00,,OVC003,0.00,VWS V14.01,2013-04-02 02:45:00,
2013-04-01 22:46:00,25.9,15.8,30.04,West,263,2.0,0.0,65,0.00,,OVC003,0.00,VWS V14.01,2013-04-02 02:46:00,
2013-04-01 22:47:00,25.9,15.8,30.04,West,263,2.0,0.0,65,0.00,,OVC003,0.00,VWS V14.01,2013-04-02 02:47:00,
2013-04-01 22:48:00,25.9,16.1,30.04,West,263,2.0,0.0,66,0.00,,OVC003,0.00,VWS V14.01,2013-04-02 02:48:00,
2013-04-01 22:49:00,25.9,16.1,30.04,West,263,2.0,2.0,66,0.00,,OVC003,0.00,VWS V14.01,2013-04-02 02:49:00,
2013-04-01 22:50:00,25.9,16.1,30.04,West,263,2.0,2.0,66,0.00,,OVC003,0.00,VWS V14.01,2013-04-02 02:50:00,
2013-04-01 22:51:00,25.9,16.1,30.04,West,263,3.0,3.0,66,0.00,,OVC003,0.00,VWS V14.01,2013-04-02 02:51:00,
2013-04-01 22:52:00,26.0,16.2,30.04,SW,225,2.0,3.0,66,0.00,,OVC003,0.00,VWS V14.01,2013-04-02 02:52:00,
2013-04-01 22:53:00,26.0,16.2,30.04,SW,225,2.0,3.0,66,0.00,,OVC003,0.00,VWS V14.01,2013-04-02 02:53:00,
2013-04-01 22:54:00,26.0,16.2,30.04,SW,225,2.0,3.0,66,0.00,,OVC003,0.00,VWS V14.01,2013-04-02 02:54:00,
2013-04-01 22:55:00,26.0,16.2,30.04,SW,225,3.0,3.0,66,0.00,,OVC003,0.00,VWS V14.01,2013-04-02 02:55:00,
2013-04-01 22:56:00,26.0,16.2,30.04,SW,225,2.0,2.0,66,0.00,,OVC003,0.00,VWS V14.01,2013-04-02 02:56:00,
2013-04-01 22:57:00,26.1,16.3,30.04,SW,225,2.0,2.0,66,0.00,,OVC003,0.00,VWS V14.01,2013-04-02 02:57:00,
2013-04-01 22:58:00,26.1,16.3,30.04,SW,225,2.0,2.0,66,0.00,,OVC003,0.00,VWS V14.01,2013-04-02 02:58:00,
2013-04-01 22:59:00,26.1,16.3,30.04,SW,225,2.0,2.0,66,0.00,,OVC003,0.00,VWS V14.01,2013-04-02 02:59:00,
2013-04-01 23:00:00,26.1,16.3,30.04,SW,225,2.0,2.0,66,0.00,,OVC003,0.00,VWS V14.01,2013-04-02 03:00:00,
2013-04-01 23:01:00,26.2,16.4,30.04,SW,225,2.0,0.0,66,0.00,,OVC003,0.00,VWS V14.01,2013-04-02 03:01:00,
2013-04-01 23:02:00,26.2,16.4,30.04,SW,232,2.0,3.0,66,0.00,,OVC003,0.00,VWS V14.01,2013-04-02 03:02:00,
2013-04-01 23:03:00,26.2,16.4,30.04,SW,232,2.0,3.0,66,0.00,,OVC003,0.00,VWS V14.01,2013-04-02 03:03:00,
2013-04-01 23:04:00,26.2,16.4,30.04,SW,232,2.0,3.0,66,0.00,,OVC003,0.00,VWS V14.01,2013-04-02 03:04:00,
2013-04-01 23:05:00,26.2,16.4,30.04,SW,232,2.0,3.0,66,0.00,,OVC003,0.00,VWS V14.01,2013-04-02 03:05:00,
2013-04-01 23:06:00,26.2,16.4,30.04,SW,232,2.0,0.0,66,0.00,,OVC003,0.00,VWS V14.01,2013-04-02 03:06:00,
2013-04-01 23:07:00,26.3,16.9,30.04,SW,232,3.0,3.0,67,0.00,,OVC003,0.00,VWS V14.01,2013-04-02 03:07:00,
2013-04-01 23:08:00,26.3,16.5,30.04,SW,232,3.0,3.0,66,0.00,,OVC003,0.00,VWS V14.01,2013-04-02 03:08:00,
2013-04-01 23:09:00,26.3,16.5,30.04,SW,232,2.0,3.0,66,0.00,,OVC003,0.00,VWS V14.01,2013-04-02 03:09:00,
2013-04-01 23:10:00,26.3,16.5,30.04,SSW,209,4.0,4.0,66,0.00,,OVC003,0.00,VWS V14.01,2013-04-02 03:10:00,
2013-04-01 23:11:00,26.3,16.5,30.04,SW,236,3.0,3.0,66,0.00,,OVC003,0.00,VWS V14.01,2013-04-02 03:11:00,
2013-04-01 23:12:00,26.3,16.5,30.04,SW,236,2.0,2.0,66,0.00,,OVC003,0.00,VWS V14.01,2013-04-02 03:12:00,
2013-04-01 23:13:00,26.4,16.6,30.04,SW,236,2.0,2.0,66,0.00,,OVC003,0.00,VWS V14.01,2013-04-02 03:13:00,
2013-04-01 23:14:00,26.4,16.6,30.04,SW,236,2.0,2.0,66,0.00,,OVC003,0.00,VWS V14.01,2013-04-02 03:14:00,
2013-04-01 23:15:00,26.4,16.6,30.04,SW,236,2.0,2.0,66,0.00,,OVC003,0.00,VWS V14.01,2013-04-02 03:15:00,
2013-04-01 23:16:00,26.4,16.6,30.04,SW,236,2.0,0.0,66,0.00,,OVC003,0.00,VWS V14.01,2013-04-02 03:16:00,
2013-04-01 23:17:00,26.4,16.9,30.04,SW,236,2.0,0.0,67,0.00,,OVC003,0.00,VWS V14.01,2013-04-02 03:17:00,
2013-04-01 23:18:00,26.5,17.0,30.04,SW,236,2.0,2.0,67,0.00,,OVC003,0.00,VWS V14.01,2013-04-02 03:18:00,
2013-04-01 23:20:00,26.5,17.0,30.04,SW,236,2.0,2.0,67,0.00,,OVC003,0.00,VWS V14.01,2013-04-02 03:20:00,
2013-04-01 23:21:00,26.5,17.0,30.04,SW,236,2.0,2.0,67,0.00,,OVC003,0.00,VWS V14.01,2013-04-02 03:21:00,
2013-04-01 23:22:00,26.5,17.0,30.04,SW,236,2.0,2.0,67,0.00,,OVC003,0.00,VWS V14.01,2013-04-02 03:22:00,
2013-04-01 23:23:00,26.5,17.0,30.04,SW,236,2.0,2.0,67,0.00,,OVC003,0.00,VWS V14.01,2013-04-02 03:23:00,
2013-04-01 23:24:00,26.5,17.0,30.04,SW,236,3.0,3.0,67,0.00,,OVC003,0.00,VWS V14.01,2013-04-02 03:24:00,
2013-04-01 23:25:00,26.5,17.0,30.04,SW,236,2.0,2.0,67,0.00,,OVC003,0.00,VWS V14.01,2013-04-02 03:25:00,
2013-04-01 23:27:00,26.5,17.0,30.04,SW,236,2.0,2.0,67,0.00,,OVC003,0.00,VWS V14.01,2013-04-02 03:27:00,
2013-04-01 23:28:00,26.5,17.0,30.04,SW,236,3.0,3.0,67,0.00,,OVC003,0.00,VWS V14.01,2013-04-02 03:28:00,
2013-04-01 23:29:00,26.5,17.0,30.04,SW,236,2.0,2.0,67,0.00,,OVC003,0.00,VWS V14.01,2013-04-02 03:29:00,
2013-04-01 23:30:00,26.5,17.0,30.04,SW,236,3.0,3.0,67,0.00,,OVC003,0.00,VWS V14.01,2013-04-02 03:30:00,
2013-04-01 23:31:00,26.5,17.0,30.04,SW,236,2.0,2.0,67,0.00,,OVC003,0.00,VWS V14.01,2013-04-02 03:31:00,
2013-04-01 23:32:00,26.5,17.0,30.04,SW,236,2.0,2.0,67,0.00,,OVC003,0.00,VWS V14.01,2013-04-02 03:32:00,
2013-04-01 23:33:00,26.5,17.0,30.04,SW,236,2.0,2.0,67,0.00,,OVC003,0.00,VWS V14.01,2013-04-02 03:33:00,
2013-04-01 23:34:00,26.5,17.0,30.04,SW,236,2.0,2.0,67,0.00,,OVC003,0.00,VWS V14.01,2013-04-02 03:34:00,
2013-04-01 23:35:00,26.5,17.0,30.04,SW,236,3.0,3.0,67,0.00,,OVC003,0.00,VWS V14.01,2013-04-02 03:35:00,
2013-04-01 23:36:00,26.4,16.9,30.04,SW,236,2.0,2.0,67,0.00,,OVC003,0.00,VWS V14.01,2013-04-02 03:36:00,
2013-04-01 23:37:00,26.4,16.9,30.04,SSW,209,5.0,5.0,67,0.00,,OVC003,0.00,VWS V14.01,2013-04-02 03:37:00,
2013-04-01 23:38:00,26.4,16.9,30.04,SSW,209,2.0,4.0,67,0.00,,OVC003,0.00,VWS V14.01,2013-04-02 03:38:00,
2013-04-01 23:39:00,26.4,16.9,30.04,SSW,209,2.0,4.0,67,0.00,,OVC003,0.00,VWS V14.01,2013-04-02 03:39:00,
2013-04-01 23:40:00,26.3,16.9,30.04,SSW,209,2.0,4.0,67,0.00,,OVC003,0.00,VWS V14.01,2013-04-02 03:40:00,
2013-04-01 23:41:00,26.3,16.9,30.04,SSW,209,2.0,2.0,67,0.00,,OVC003,0.00,VWS V14.01,2013-04-02 03:41:00,
2013-04-01 23:42:00,26.3,16.9,30.04,SSW,209,2.0,2.0,67,0.00,,OVC003,0.00,VWS V14.01,2013-04-02 03:42:00,
2013-04-01 23:43:00,26.3,16.9,30.04,SSW,209,2.0,2.0,67,0.00,,OVC003,0.00,VWS V14.01,2013-04-02 03:43:00,
2013-04-01 23:44:00,26.2,16.8,30.04,SSW,209,2.0,2.0,67,0.00,,OVC003,0.00,VWS V14.01,2013-04-02 03:44:00,
2013-04-01 23:45:00,26.2,16.8,30.04,SSW,209,2.0,2.0,67,0.00,,OVC003,0.00,VWS V14.01,2013-04-02 03:45:00,
2013-04-01 23:46:00,26.2,16.8,30.04,NNW,330,4.0,4.0,67,0.00,,OVC003,0.00,VWS V14.01,2013-04-02 03:46:00,
2013-04-01 23:47:00,26.2,16.8,30.04,NNW,330,2.0,2.0,67,0.00,,OVC003,0.00,VWS V14.01,2013-04-02 03:47:00,
2013-04-01 23:48:00,26.2,17.1,30.04,NNW,332,3.0,3.0,68,0.00,,OVC003,0.00,VWS V14.01,2013-04-02 03:48:00,
2013-04-01 23:49:00,26.2,17.1,30.04,WNW,293,3.0,4.0,68,0.00,,OVC003,0.00,VWS V14.01,2013-04-02 03:49:00,
2013-04-01 23:50:00,26.1,17.0,30.04,WNW,293,2.0,4.0,68,0.00,,OVC003,0.00,VWS V14.01,2013-04-02 03:50:00,
2013-04-01 23:51:00,26.1,17.0,30.04,WSW,243,4.0,4.0,68,0.00,,OVC003,0.00,VWS V14.01,2013-04-02 03:51:00,
2013-04-01 23:52:00,26.1,17.0,30.04,WSW,243,2.0,3.0,68,0.00,,OVC003,0.00,VWS V14.01,2013-04-02 03:52:00,
2013-04-01 23:53:00,26.0,16.9,30.04,WSW,243,2.0,3.0,68,0.00,,OVC003,0.00,VWS V14.01,2013-04-02 03:53:00,
2013-04-01 23:54:00,26.0,16.9,30.04,WSW,243,2.0,3.0,68,0.00,,OVC003,0.00,VWS V14.01,2013-04-02 03:54:00,
2013-04-01 23:55:00,26.0,16.9,30.04,WSW,243,3.0,3.0,68,0.00,,OVC003,0.00,VWS V14.01,2013-04-02 03:55:00,
2013-04-01 23:56:00,26.0,16.9,30.04,WSW,243,3.0,3.0,68,0.00,,OVC003,0.00,VWS V14.01,2013-04-02 03:56:00,
2013-04-01 23:57:00,26.0,16.9,30.04,WSW,243,2.0,2.0,68,0.00,,OVC003,0.00,VWS V14.01,2013-04-02 03:57:00,
2013-04-01 23:58:00,25.9,16.8,30.04,WSW,243,2.0,2.0,68,0.00,,OVC003,0.00,VWS V14.01,2013-04-02 03:58:00,
2013-04-01 23:59:00,25.9,17.1,30.04,WSW,243,2.0,2.0,69,0.00,,OVC003,0.00,VWS V14.01,2013-04-02 03:59:00,